[[{"header":{"parameterUnit":"m.s-1","parameterCategory":1,"la1":31.0,"la2":29.5877,"lo1":-88.7671,"lo2":-86.6584,"dy":0.0162,"dx":0.0185,"nx":115,"ny":88,"refTime":"2023-05-05T06:00:00:Z","depth":0,"parameterNumber":2,"parameterNumberName":"U-component_of_WINDS"},"data":[0.0,0.0,0.0,0.0,0.0,0.0,0.0,0.0,0.0,0.0,0.0,0.0,0.0,0.0,0.0,0.0,0.0,0.0,0.0,0.0,0.0,0.0,0.0,0.0,0.0,0.0,0.0,0.0,0.0,0.0,0.0,0.0,0.0,0.0,0.0,0.0,0.0,0.0,0.0,0.0,0.0,0.0,0.0,0.0,0.0,0.0,0.0,0.0,0.0,0.0,0.0,0.0,0.0,0.0,0.0,0.0,0.0,0.0,0.0,0.0,0.0,0.0,0.0,0.0,0.0,0.0,0.0,0.0,0.0,0.0,0.0,0.0,0.0,0.0,0.0,0.0,0.0,0.0,0.0,0.0,0.0,0.0,0.0,0.0,0.0,0.0,0.0,0.0,0.0,0.0,0.0,0.0,0.0,0.0,0.0,0.0,0.0,0.0,0.0,0.0,0.0,0.0,0.0,0.0,0.0,0.0,0.0,0.0,0.0,0.0,0.0,0.0,0.0,0.0,0.0,0.0,0.0,0.0,0.0,0.0,0.0,0.0,0.0,0.0,0.0,0.0,0.0,0.0,0.0,0.0,0.0,0.0,0.0,0.0,0.0,0.0,0.0,0.0,0.0,0.0,0.0,0.0,0.0,0.0,0.0,0.0,0.0,0.0,0.0,0.0,0.0,0.0,0.0,0.0,0.0,0.0,0.0,0.0,0.0,0.0,0.0,0.0,0.0,0.0,0.0,0.0,0.0,0.0,0.0,0.0,0.0,0.0,0.0,0.0,0.0,0.0,0.0,0.0,0.0,0.0,0.0,0.0,0.0,0.0,0.0,0.0,0.0,0.0,0.0,0.0,0.0,0.0,0.0,0.0,0.0,0.0,0.0,0.0,0.0,0.0,0.0,0.0,0.0,0.0,0.0,0.0,0.0,0.0,0.0,0.0,0.0,0.0,0.0,0.0,0.0,0.0,0.0,0.0,0.0,0.0,0.0,0.0,0.0,0.0,0.0,0.0,0.0,0.0,0.0,0.0,0.0,0.0,0.0,0.0,0.0,0.0,0.0,0.0,0.0,0.0,0.0,0.0,0.0,0.0,0.0,0.0,0.0,0.0,0.0,0.0,0.0,0.0,0.0,0.0,0.0,0.0,0.0,0.0,0.0,0.0,0.0,0.0,0.0,0.0,0.0,0.0,0.0,0.0,0.0,0.0,0.0,0.0,0.0,0.0,0.0,0.0,0.0,0.0,0.0,0.0,0.0,0.0,0.0,0.0,0.0,0.0,0.0,0.0,0.0,0.0,0.0,0.0,0.0,0.0,0.0,0.0,0.0,0.0,0.0,0.0,0.0,0.0,0.0,0.0,0.0,0.0,0.0,0.0,0.0,0.0,0.0,0.0,0.0,0.0,0.0,0.0,0.0,0.0,0.0,0.0,0.0,0.0,0.0,0.0,0.0,0.0,0.0,0.0,0.0,0.0,0.0,0.0,0.0,0.0,0.0,0.0,0.0,0.0,0.0,0.0,0.0,0.0,0.0,0.0,0.0,0.0,0.0,0.0,0.0,0.0,0.0,0.0,0.0,0.0,0.0,0.0,0.0,0.0,0.0,0.0,0.0,0.0,0.0,0.0,0.0,0.0,0.0,0.0,0.0,0.0,0.0,0.0,0.0,0.0,0.0,0.0,0.0,0.0,0.0,0.0,0.0,0.0,0.0,0.0,0.0,0.0,0.0,0.0,0.0,0.0,0.0,0.0,0.0,0.0,0.0,0.0,0.0,0.0,0.0,0.0,0.0,0.0,0.0,0.0,0.0,0.0,0.0,0.0,0.0,0.0,0.0,0.0,0.0,0.0,0.0,0.0,0.0,0.0,0.0,0.0,0.0,0.0,0.0,0.0,0.0,0.0,0.0,0.0,0.0,0.0,0.0,0.0,0.0,0.0,0.0,0.0,0.0,0.0,0.0,0.0,0.0,0.0,0.0,0.0,0.0,0.0,0.0,0.0,0.0,0.0,0.0,0.0,0.0,0.0,0.0,0.0,0.0,0.0,0.0,0.0,0.0,0.0,0.0,0.0,0.0,0.0,0.0,0.0,0.0,0.0,0.0,0.0,0.0,0.0,0.0,0.0,0.0,0.0,0.0,0.0,0.0,0.0,0.0,0.0,0.0,0.0,0.0,0.0,0.0,0.0,0.0,0.0,0.0,0.0,0.0,0.0,0.0,0.0,0.0,0.0,0.0,0.0,0.0,0.0,0.0,0.0,0.0,0.0,0.0,0.0,0.0,0.0,0.0,0.0,0.0,0.0,0.0,0.0,0.0,0.0,0.0,0.0,0.0,0.0,0.0,0.0,0.0,0.0,0.0,0.0,0.0,0.0,0.0,0.0,0.0,0.0,0.0,0.0,0.0,0.0,0.0,0.0,0.0,0.0,0.0,0.0,0.0,0.0,0.0,0.0,0.0,0.0,0.0,0.0,0.0,0.0,0.0,0.0,0.0,0.0,0.0,0.0,0.0,0.0,0.0,0.0,0.0,0.0,0.0,0.0,0.0,0.0,0.0,0.0,0.0,0.0,0.0,0.0,0.0,0.0,0.0,0.0,0.0,0.0,0.0,0.0,0.0,0.0,0.0,0.0,0.0,0.0,0.0,0.0,0.0,0.0,0.0,0.0,0.0,0.0,0.0,0.0,0.0,0.0,0.0,0.0,0.0,0.0,0.0,0.0,0.0,0.0,0.0,0.0,0.0,0.0,0.0,0.0,0.0,0.0,0.0,0.0,0.0,0.0,0.0,0.0,0.0,0.0,0.0,0.0,0.0,0.0,0.0,0.0,0.0,0.0,0.0,0.0,0.0,0.0,0.0,0.0,0.0,0.0,0.0,0.0,0.0,0.0,0.0,0.0,0.0,0.0,0.0,0.0,0.0,0.0,0.0,0.0,0.0,0.0,0.0,0.0,0.0,0.0,0.0,0.0,0.0,0.0,0.0,0.0,0.0,0.0,0.0,0.0,0.0,0.0,0.0,0.0,0.0,0.0,0.0,0.0,0.0,0.0,0.0,0.0,0.0,0.0,0.0,0.0,0.0,0.0,0.0,0.0,0.0,0.0,0.0,0.0,0.0,0.0,0.0,0.0,0.0,0.0,0.0,0.0,0.0,0.0,0.0,0.0,0.0,0.0,0.0,0.0,0.0,0.0,0.0,0.0,0.0,0.0,0.0,0.0,0.0,0.0,0.0,0.0,0.0,0.0,0.0,0.0,0.0,0.0,0.0,0.0,0.0,0.0,0.0,0.0,0.0,0.0,0.0,0.0,0.0,0.0,0.0,0.0,0.0,0.0,0.0,0.0,0.0,0.0,0.0,0.0,0.0,0.0,0.0,0.0,0.0,0.0,0.0,0.0,0.0,0.0,0.0,0.0,0.0,0.0,0.0,0.0,0.0,0.0,0.0,0.0,0.0,0.0,0.0,0.0,0.0,0.0,0.0,0.0,0.0,0.0,0.0,0.0,0.0,0.0,0.0,0.0,0.0,0.0,0.0,0.0,0.0,0.0,0.0,0.0,0.0,0.0,0.0,0.0,0.0,0.0,0.0,0.0,0.0,0.0,0.0,0.0,0.0,0.0,0.0,0.0,0.0,0.0,0.0,0.0,0.0,0.0,0.0,0.0,0.0,0.0,0.0,0.0,0.0,0.0,0.0,0.0,0.0,0.0,0.0,0.0,0.0,0.0,0.0,0.0,0.0,0.0,0.0,0.0,0.0,0.0,0.0,0.0,0.0,0.0,0.0,0.0,0.0,0.0,0.0,0.0,0.0,0.0,0.0,0.0,0.0,0.0,0.0,0.0,0.0,0.0,0.0,0.0,0.0,0.0,0.0,0.0,0.0,0.0,0.0,0.0,0.0,0.0,0.0,0.0,0.0,0.0,0.0,0.0,0.0,0.0,0.0,0.0,0.0,0.0,0.0,0.0,0.0,0.0,0.0,0.0,0.0,0.0,0.0,0.0,0.0,0.0,0.0,0.0,0.0,0.0,0.0,0.0,0.0,0.0,0.0,0.0,0.0,0.0,0.0,0.0,0.0,0.0,0.0,0.0,0.0,0.0,0.0,0.0,0.0,0.0,0.0,0.0,0.0,0.0,0.0,0.0,0.0,0.0,0.0,0.0,0.0,0.0,0.0,0.0,0.0,0.0,0.0,0.0,0.0,0.0,0.0,0.0,0.0,0.0,0.0,0.0,0.0,0.0,0.0,0.0,0.0,0.0,0.0,0.0,0.0,0.0,0.0,0.0,0.0,0.0,0.0,0.0,-0.1554,0.0,0.0,0.0,0.0,0.0,0.0,0.0,0.0,0.0,0.0,0.0,0.0,0.0,0.0,0.0,0.0,0.0,0.0,0.0,0.0,0.0,0.0,0.0,0.0,0.0,0.0,0.0,0.0,0.0,0.0,0.0,0.0,0.0,0.0,0.0,0.0,0.0,0.0,0.0,0.0,0.0,0.0,0.0,0.0,0.0,0.0,0.0,0.0,0.0,0.0,0.0,0.0,0.0,0.0,0.0,0.0,0.0,0.0,0.0,0.0,0.0,0.0,0.0,0.0,0.0,0.0,0.0,0.0,0.0,0.0,0.0,0.0,0.0,0.0,0.0,0.0,0.0,0.0,0.0,0.0,0.0,0.0,0.0,0.0,0.0,0.0,0.0,0.0,0.0,0.0,0.0,0.0,0.0,0.0,0.0,0.0,0.0,0.0,0.0,0.0,0.0,0.0,0.0,0.0,0.0,0.0,0.0,0.0,0.0,0.0,-0.4876,-0.4381,-0.3836,-0.334,-0.2782,0.0,0.0,0.0,0.0,0.0,0.0,0.0,0.0,0.0,0.0,0.0,0.0,0.0,0.0,0.0,0.0,0.0,0.0,0.0,0.0,0.0,0.0,0.0,0.0,0.0,0.0,0.0,0.0,0.0,0.0,0.0,0.0,0.0,0.0,0.0,0.0,0.0,0.0,0.0,0.0,0.0,0.0,0.0,0.0,0.0,0.0,0.0,0.0,0.0,0.0,0.0,0.0,0.0,0.0,0.0,0.0,0.0,0.0,0.0,0.0,0.0,0.0,0.0,0.0,0.0,0.0,0.0,0.0,0.0,0.0,0.0,0.0,0.0,0.0,0.0,0.0,0.0,0.0,0.0,0.0,0.0,0.0,0.0,0.0,0.0,0.0,0.0,0.0,0.0,0.0,0.0,0.0,0.0,0.0,0.0,0.0,0.0,0.0,0.0,0.0,0.0,0.0,0.0,0.0,0.0,0.0,0.0,0.0,0.0,0.0,0.0,0.0,-0.5433,-0.4719,-0.3883,0.0,0.0,0.0,0.0,0.0,0.0,0.0,0.0,0.0,0.0,0.0,0.0,0.0,0.0,0.0,0.0,0.0,0.0,0.0,0.0,0.0,0.0,0.0,0.0,0.0,0.0,0.0,0.0,0.0,0.0,0.0,0.0,0.0,0.0,0.0,0.0,0.0,0.0,0.0,0.0,0.0,0.0,0.0,0.0,0.0,0.0,0.0,0.0,0.0,0.0,0.0,0.0,0.0,0.0,0.0,0.0,0.0,0.0,0.0,0.0,0.0,0.0,0.0,0.0,0.0,0.0,0.0,0.0,0.0,0.0,0.0,0.0,0.0,0.0,0.0,0.0,0.0,0.0,0.0,0.0,0.0,0.0,0.0,0.0,0.0,0.0,0.0,0.0,0.0,0.0,0.0,0.0,0.0,0.0,0.0,0.0,0.0,0.0,0.0,0.0,0.0,0.0,0.0,0.0,0.0,0.0,0.0,0.0,0.0,0.0,-0.7853,-0.7329,-0.6727,0.0,-0.4657,0.0,0.0,0.0,0.0,0.0,0.0,0.0,0.0,0.0,0.0,0.0,0.0,0.0,0.0,0.0,0.0,0.0,0.0,0.0,0.0,0.0,0.0,0.0,0.0,0.0,0.0,0.0,0.0,0.0,0.0,0.0,0.0,0.0,0.0,0.0,0.0,0.0,0.0,0.0,0.0,0.0,0.0,0.0,0.0,0.0,0.0,0.0,0.0,0.0,0.0,0.0,0.0,0.0,0.0,0.0,0.0,0.0,0.0,0.0,0.0,0.0,0.0,0.0,0.0,0.0,0.0,0.0,0.0,0.0,0.0,0.0,0.0,0.0,0.0,0.0,0.0,0.0,0.0,0.0,0.0,0.0,0.0,0.0,0.0,0.0,0.0,0.0,0.0,0.0,0.0,0.0,0.0,0.0,0.0,0.0,0.0,0.0,0.0,0.0,0.0,0.0,0.0,0.0,0.0,0.0,0.0,0.0,0.0,0.0,0.0,-0.9147,-0.8859,-0.7897,-0.694,0.0,0.0,0.0,0.0,0.0,0.0,0.0,0.0,0.0,0.0,0.0,0.0,0.0,0.0,0.0,0.0,0.0,0.0,0.0,0.0,0.0,0.0,0.0,0.0,0.0,0.0,0.0,0.0,0.0,0.0,0.0,0.0,0.0,0.0,0.0,0.0,0.0,0.0,0.0,0.0,0.0,0.0,0.0,0.0,0.0,0.0,0.0,0.0,0.0,0.0,0.0,0.0,0.0,0.0,0.0,0.0,0.0,0.0,0.0,0.0,0.0,0.0,0.0,0.0,0.0,0.0,0.0,0.0,0.0,0.0,0.0,0.0,0.0,0.0,0.0,0.0,0.0,0.0,0.0,0.0,0.0,0.0,0.0,0.0,0.0,0.0,0.0,0.0,0.0,0.0,0.0,0.0,0.0,0.0,0.0,0.0,0.0,0.0,0.0,0.0,0.0,0.0,0.0,0.0,0.0,0.0,0.0,0.0,0.0,0.0,-1.0717,-1.0136,-0.9688,-0.8745,-0.7899,-0.717,0.0,0.0,0.0,0.0,0.0,0.0,0.0,0.0,0.0,0.0,0.0,0.0,0.0,0.0,0.0,0.0,0.0,0.0,0.0,0.0,0.0,0.0,0.0,0.0,0.0,0.0,0.0,0.0,0.0,0.0,0.0,0.0,0.0,0.0,0.0,0.0,0.0,0.0,0.0,0.0,0.0,0.0,0.0,0.0,0.0,0.0,0.0,0.0,0.0,0.0,0.0,0.0,0.0,0.0,0.0,0.0,0.0,0.0,0.0,0.0,0.0,0.0,0.0,0.0,0.0,0.0,0.0,0.0,0.0,0.0,0.0,0.0,0.0,0.0,0.0,0.0,0.0,0.0,0.0,0.0,0.0,0.0,0.0,0.0,0.0,0.0,0.0,0.0,0.0,0.0,0.0,0.0,0.0,0.0,0.0,0.0,0.0,0.0,0.0,0.0,0.0,0.0,0.0,0.0,0.0,0.0,0.0,0.0,-1.1995,-1.1523,-1.0744,-0.9469,-0.9234,-0.8799,0.0,0.0,0.0,0.0,0.0,0.0,0.0,0.0,0.0,0.0,0.0,0.0,0.0,0.0,0.0,0.0,0.0,0.0,0.0,0.0,0.0,0.0,0.0,0.0,0.0,0.0,0.0,0.0,0.0,0.0,0.0,0.0,0.0,0.0,0.0,0.0,0.0,0.0,0.0,0.0,0.0,0.0,0.0,0.0,0.0,0.0,0.0,0.0,0.0,0.0,0.0,0.0,0.0,0.0,0.0,0.0,0.0,0.0,0.0,0.0,0.0,0.0,0.0,0.0,0.0,0.0,0.0,0.0,0.0,0.0,0.0,0.0,0.0,0.0,0.0,0.0,0.0,0.0,0.0,0.0,0.0,0.0,0.0,0.0,0.0,0.0,0.0,0.0,0.0,0.0,0.0,0.0,0.0,0.0,0.0,0.0,0.0,0.0,0.0,0.0,0.0,0.0,0.0,0.0,0.0,0.0,0.0,0.0,0.0,-1.2837,-1.1869,-1.0906,-0.9922,-0.9844,-0.9624,0.0,0.0,0.0,0.0,0.0,0.0,0.0,0.0,0.0,0.0,0.0,0.0,0.0,0.0,0.0,0.0,0.0,0.0,0.0,0.0,0.0,0.0,0.0,0.0,0.0,0.0,0.0,0.0,0.0,0.0,0.0,0.0,0.0,0.0,0.0,0.0,0.0,0.0,0.0,0.0,0.0,0.0,0.0,0.0,0.0,0.0,0.0,0.0,0.0,0.0,0.0,0.0,0.0,0.0,0.0,0.0,0.0,0.0,0.0,0.0,0.0,0.0,0.0,0.0,0.0,0.0,0.0,0.0,0.0,0.0,0.0,0.0,0.0,0.0,0.0,0.0,0.0,0.0,0.0,0.0,0.0,0.0,0.0,0.0,0.0,0.0,0.0,0.0,0.0,0.0,0.0,0.0,0.0,0.0,0.0,0.0,0.0,0.0,0.0,0.0,0.0,0.0,0.0,0.0,0.0,0.0,0.0,0.0,0.0,-1.3028,0.0,-1.1059,-1.0387,-1.0387,-1.0231,0.0,0.0,0.0,0.0,0.0,0.0,0.0,0.0,0.0,0.0,0.0,0.0,0.0,0.0,0.0,0.0,0.0,0.0,0.0,0.0,0.0,0.0,0.0,0.0,0.0,0.0,0.0,0.0,0.0,0.0,0.0,0.0,0.0,0.0,0.0,0.0,0.0,0.0,0.0,0.0,0.0,0.0,0.0,0.0,0.0,0.0,0.0,0.0,0.0,0.0,0.0,0.0,0.0,0.0,0.0,0.0,0.0,0.0,0.0,0.0,0.0,0.0,0.0,0.0,0.0,0.0,0.0,0.0,0.0,0.0,0.0,0.0,0.0,0.0,0.0,0.0,0.0,0.0,0.0,0.0,0.0,0.0,0.0,0.0,0.0,0.0,0.0,0.0,0.0,0.0,0.0,0.0,0.0,0.0,0.0,0.0,0.0,0.0,0.0,0.0,0.0,0.0,0.0,0.0,0.0,0.0,0.0,0.0,-1.414,-1.2485,-1.1708,-1.1179,-1.0937,-1.0819,-1.0586,0.0,0.0,0.0,0.0,0.0,0.0,0.0,0.0,0.0,0.0,0.0,0.0,0.0,0.0,0.0,0.0,0.0,0.0,0.0,0.0,0.0,0.0,0.0,0.0,0.0,0.0,0.0,0.0,0.0,0.0,0.0,0.0,0.0,0.0,0.0,0.0,0.0,0.0,0.0,0.0,0.0,0.0,0.0,0.0,0.0,0.0,0.0,0.0,0.0,0.0,0.0,0.0,0.0,0.0,0.0,0.0,0.0,0.0,0.0,0.0,0.0,0.0,0.0,0.0,0.0,0.0,0.0,0.0,0.0,0.0,0.0,0.0,0.0,0.0,0.0,0.0,0.0,0.0,0.0,0.0,0.0,0.0,0.0,0.0,0.0,0.0,0.0,0.0,0.0,0.0,0.0,0.0,0.0,0.0,0.0,0.0,0.0,0.0,0.0,0.0,0.0,0.0,0.0,0.0,0.0,0.0,0.0,0.0,0.0,-1.2514,-1.1988,-1.1621,-1.1394,-1.1084,-1.088,0.0,0.0,0.0,0.0,0.0,0.0,0.0,0.0,0.0,0.0,0.0,0.0,0.0,0.0,0.0,0.0,0.0,0.0,0.0,0.0,0.0,0.0,0.0,0.0,0.0,0.0,0.0,0.0,0.0,0.0,0.0,0.0,0.0,0.0,0.0,0.0,0.0,0.0,0.0,0.0,0.0,0.0,0.0,0.0,0.0,0.0,0.0,0.0,0.0,0.0,0.0,0.0,0.0,0.0,0.0,0.0,0.0,0.0,0.0,0.0,0.0,0.0,0.0,0.0,0.0,0.0,0.0,0.0,0.0,0.0,0.0,0.0,0.0,0.0,0.0,0.0,0.0,0.0,0.0,0.0,0.0,0.0,0.0,0.0,0.0,0.0,0.0,0.0,0.0,0.0,0.0,0.0,0.0,0.0,0.0,0.0,0.0,0.0,0.0,0.0,0.0,0.0,0.0,0.0,0.0,0.0,0.0,0.0,0.0,-1.2918,-1.2425,-1.2102,-1.1842,-1.1468,-1.1232,-1.1059,0.0,0.0,0.0,0.0,0.0,0.0,0.0,0.0,0.0,0.0,0.0,0.0,0.0,0.0,0.0,0.0,0.0,0.0,0.0,0.0,0.0,0.0,0.0,0.0,0.0,0.0,0.0,0.0,0.0,0.0,0.0,0.0,0.0,0.0,0.0,0.0,0.0,0.0,0.0,0.0,0.0,0.0,0.0,0.0,0.0,0.0,0.0,0.0,0.0,0.0,0.0,0.0,0.0,0.0,0.0,0.0,0.0,0.0,0.0,0.0,0.0,0.0,0.0,0.0,0.0,0.0,0.0,0.0,0.0,0.0,0.0,0.0,0.0,0.0,0.0,0.0,0.0,0.0,0.0,0.0,0.0,0.0,0.0,0.0,0.0,0.0,0.0,0.0,0.0,0.0,0.0,0.0,0.0,0.0,0.0,0.0,0.0,0.0,0.0,0.0,0.0,0.0,0.0,0.0,0.0,0.0,0.0,0.0,-1.3642,-1.3047,-1.2585,-1.2246,-1.1957,-1.1579,0.0,0.0,0.0,0.0,0.0,0.0,0.0,0.0,0.0,0.0,0.0,0.0,0.0,0.0,0.0,0.0,0.0,0.0,0.0,0.0,0.0,0.0,0.0,0.0,0.0,0.0,0.0,0.0,0.0,0.0,0.0,0.0,0.0,0.0,0.0,0.0,0.0,0.0,0.0,0.0,0.0,0.0,0.0,0.0,0.0,0.0,0.0,0.0,0.0,0.0,0.0,0.0,0.0,0.0,0.0,0.0,0.0,0.0,0.0,0.0,0.0,0.0,0.0,0.0,0.0,0.0,0.0,0.0,0.0,0.0,0.0,0.0,0.0,0.0,0.0,0.0,0.0,0.0,0.0,0.0,0.0,0.0,0.0,0.0,0.0,0.0,0.0,0.0,0.0,0.0,0.0,0.0,0.0,0.0,0.0,0.0,0.0,0.0,0.0,0.0,0.0,0.0,0.0,0.0,0.0,0.0,0.0,0.0,0.0,-1.3894,-1.3514,-1.3082,-1.2591,-1.2222,-1.1889,0.0,0.0,0.0,0.0,0.0,0.0,0.0,0.0,0.0,0.0,0.0,0.0,0.0,0.0,0.0,0.0,0.0,0.0,0.0,0.0,0.0,0.0,0.0,0.0,0.0,0.0,0.0,0.0,0.0,0.0,0.0,0.0,0.0,0.0,0.0,0.0,0.0,0.0,0.0,0.0,0.0,0.0,0.0,0.0,0.0,0.0,0.0,0.0,0.0,0.0,0.0,0.0,0.0,0.0,0.0,0.0,0.0,0.0,0.0,0.0,0.0,0.0,0.0,0.0,0.0,0.0,0.0,0.0,0.0,0.0,0.0,0.0,0.0,0.0,0.0,0.0,0.0,0.0,0.0,0.0,0.0,0.0,0.0,0.0,0.0,0.0,0.0,0.0,0.0,0.0,0.0,0.0,0.0,0.0,0.0,0.0,0.0,0.0,0.0,0.0,0.0,0.0,0.0,0.0,0.0,0.0,0.0,0.0,-1.4592,-1.4176,-1.3828,-1.3425,-1.2978,-1.2508,-1.2113,0.0,0.0,0.0,0.0,0.0,0.0,0.0,0.0,0.0,0.0,0.0,0.0,0.0,0.0,0.0,0.0,0.0,0.0,0.0,0.0,0.0,0.0,0.0,0.0,0.0,0.0,0.0,0.0,0.0,0.0,0.0,0.0,0.0,0.0,0.0,0.0,0.0,0.0,0.0,0.0,0.0,0.0,0.0,0.0,0.0,0.0,0.0,0.0,0.0,0.0,0.0,0.0,0.0,0.0,0.0,0.0,0.0,0.0,0.0,0.0,0.0,0.0,0.0,0.0,0.0,0.0,0.0,0.0,0.0,0.0,0.0,0.0,0.0,0.0,0.0,0.0,0.0,0.0,0.0,0.0,0.0,0.0,0.0,0.0,0.0,0.0,0.0,0.0,0.0,0.0,0.0,0.0,0.0,0.0,0.0,0.0,0.0,0.0,0.0,0.0,0.0,0.0,0.0,0.0,0.0,0.0,0.0,0.0,-1.4873,-1.4461,-1.404,-1.3714,-1.3419,-1.2861,-1.2318,0.0,0.0,0.0,0.0,0.0,0.0,0.0,0.0,0.0,0.0,0.0,0.0,0.0,0.0,0.0,0.0,0.0,0.0,0.0,0.0,0.0,0.0,0.0,0.0,0.0,0.0,0.0,0.0,0.0,0.0,0.0,0.0,0.0,0.0,0.0,0.0,0.0,0.0,0.0,0.0,0.0,0.0,0.0,0.0,0.0,0.0,0.0,0.0,0.0,0.0,0.0,0.0,0.0,0.0,0.0,0.0,0.0,0.0,0.0,0.0,0.0,0.0,0.0,0.0,0.0,0.0,0.0,0.0,0.0,0.0,0.0,0.0,0.0,0.0,0.0,0.0,0.0,0.0,0.0,0.0,0.0,0.0,0.0,0.0,0.0,0.0,0.0,0.0,0.0,0.0,0.0,0.0,0.0,0.0,0.0,0.0,0.0,0.0,0.0,0.0,0.0,0.0,0.0,0.0,0.0,0.0,0.0,0.0,-1.5156,-1.4651,-1.4234,-1.3848,-1.3493,-1.3006,-1.2579,0.0,0.0,0.0,0.0,0.0,0.0,0.0,0.0,0.0,0.0,0.0,0.0,0.0,0.0,0.0,0.0,0.0,0.0,0.0,0.0,0.0,0.0,0.0,0.0,0.0,0.0,0.0,0.0,0.0,0.0,0.0,0.0,0.0,0.0,0.0,0.0,0.0,0.0,0.0,0.0,0.0,0.0,0.0,0.0,0.0,0.0,0.0,0.0,0.6237,0.0,0.0,0.0,0.0,0.0,0.0,0.0,0.0,0.0,0.0,0.0,0.0,0.0,0.0,0.0,0.0,0.0,0.0,0.0,0.0,0.0,0.0,0.0,0.0,0.0,0.0,0.0,0.0,0.0,0.0,0.0,0.0,0.0,0.0,0.0,0.0,0.0,0.0,0.0,0.0,0.0,0.0,0.0,0.0,0.0,0.0,0.0,0.0,0.0,0.0,0.0,0.0,0.0,0.0,0.0,0.0,0.0,0.0,0.0,-1.5477,-1.4963,-1.4567,-1.4169,-1.3735,-1.3344,-1.2902,0.0,0.0,0.0,0.0,0.0,0.0,0.0,0.0,0.0,0.0,0.0,0.0,0.0,0.0,0.0,0.0,0.0,0.0,0.0,0.0,0.0,0.0,0.0,0.0,0.0,0.0,0.0,0.0,0.0,0.0,0.0,0.0,0.0,0.0,0.0,0.0,0.0,0.0,0.0,0.0,0.0,0.0,0.0,0.0,0.0,0.0,0.0,0.0,0.0,0.0,0.0,0.0,0.0,0.0,0.0,0.0,0.0,0.0,0.0,0.0,0.0,0.0,0.0,0.0,0.0,0.0,0.0,0.0,0.0,0.0,0.0,0.0,0.0,0.0,0.0,0.0,0.0,0.0,0.0,0.0,0.0,0.0,0.0,0.0,0.0,0.0,0.0,0.0,0.0,0.0,0.0,0.0,0.0,0.0,0.0,0.0,0.0,0.0,0.0,0.0,0.0,0.0,0.0,0.0,0.0,0.0,0.0,-1.6183,-1.5805,-1.5268,-1.4894,-1.4497,-1.4026,-1.3675,-1.3167,-1.252,0.0,0.0,0.0,0.0,0.0,0.0,0.0,0.0,0.0,0.0,0.0,0.0,0.0,0.0,0.0,0.0,0.0,0.0,0.0,0.0,0.0,0.0,0.0,0.0,0.0,0.0,0.0,0.0,0.0,0.0,0.0,0.0,0.0,0.0,0.0,0.0,0.0,0.0,0.4676,0.4415,0.0,0.0,0.0,0.0,0.0,0.0,0.0,0.0,0.3765,0.0,0.0,0.0,0.0,0.0,0.0,0.0,0.0,0.0,0.0,0.0,0.0,0.0,0.0,0.0,0.0,0.0,0.0,0.0,0.0,0.0,0.0,0.0,0.0,0.0,0.0,0.0,0.0,0.0,0.0,0.0,0.0,0.0,0.0,0.0,0.0,0.0,0.0,0.0,0.0,0.0,0.0,0.0,0.0,0.0,0.0,0.0,0.0,0.0,0.0,0.0,0.0,0.0,0.0,0.0,0.0,-1.6825,-1.6448,-1.5988,-1.5455,-1.5018,-1.456,-1.4091,-1.3709,-1.3276,-1.2856,0.0,0.0,0.0,0.0,0.0,0.0,0.0,0.0,0.0,0.0,0.0,0.0,0.0,0.0,0.0,0.0,0.0,0.0,0.0,0.0,0.0,0.0,0.0,0.0,0.0,0.0,0.0,0.0,0.0,0.0,0.0,0.0,0.0,0.0,0.0,0.0,0.0,0.0,0.0,0.2568,0.2351,0.0,0.0,0.0,0.0,0.0,0.0,0.0,0.0,0.2742,0.0,0.0,0.0,0.0,0.0,0.0,0.0,0.0,0.0,0.0,0.0,0.0,0.0,0.0,0.0,0.0,0.0,0.0,0.0,0.0,0.0,0.0,0.0,0.0,0.0,0.0,0.0,0.0,0.0,0.0,0.0,0.0,0.0,0.0,0.0,0.0,0.0,0.0,0.0,0.0,0.0,0.0,0.0,0.0,0.0,0.0,0.0,0.0,0.0,0.0,0.0,0.0,0.0,0.0,0.0,-1.7109,-1.673,-1.6215,-1.5682,-1.5269,-1.4835,-1.431,-1.3914,-1.3527,0.0,0.0,0.0,0.0,0.0,0.0,0.0,0.0,0.0,0.0,0.0,0.0,0.0,0.0,0.0,0.0,0.0,0.0,0.0,0.0,0.0,0.0,0.0,0.0,0.0,0.0,0.0,0.0,0.0,0.0,0.0,0.0,0.0,0.0,0.0,0.0,0.0,0.0,0.0,0.0,0.0696,0.0601,0.0515,0.0,0.0,0.0,0.0,0.0,0.0,0.1227,0.1363,0.0,0.0,0.0,0.0,0.0,0.0,0.0,0.0,0.0,0.0,0.0,0.0,0.0,0.0,0.0,0.0,0.0,0.0,0.0,0.0,0.0,0.0,0.0,0.0,0.0,0.0,0.0,0.0,0.0,0.0,0.0,0.0,0.0,0.0,0.0,0.0,0.0,0.0,0.0,0.0,0.0,0.0,0.0,0.0,0.0,0.0,0.0,0.0,0.0,0.0,0.0,0.0,0.0,0.0,0.0,-1.7383,-1.6969,-1.6477,-1.5917,-1.5521,-1.5074,-1.4578,-1.4144,-1.3768,0.0,0.0,0.0,0.0,0.0,0.0,0.0,0.0,0.0,0.0,0.0,0.0,0.0,0.0,0.0,0.0,0.0,0.0,0.0,0.0,0.0,0.0,0.0,0.0,0.0,0.0,0.0,0.0,0.0,0.0,0.0,0.0,0.0,0.0,0.0,0.0,0.0,0.0,0.0,0.0,0.0,-0.1069,-0.111,-0.1077,0.0,0.0,0.0,0.0,-0.0461,-0.0229,0.0,0.0,0.0,0.0,0.0,0.0,0.0,0.0,0.0,0.0,0.0,0.0,0.0,0.0,0.0,0.0,0.0,0.0,0.0,0.0,0.0,0.0,0.0,0.0,0.0,0.0,0.0,0.0,0.0,0.0,0.0,0.0,0.0,0.0,0.0,0.0,0.0,0.0,0.0,0.0,0.0,0.0,0.0,0.0,0.0,0.0,0.0,0.0,0.0,0.0,0.0,0.0,0.0,0.0,0.0,0.0,-1.7664,-1.7199,-1.6738,-1.6231,-1.5696,-1.5179,-1.477,-1.4266,-1.3842,0.0,0.0,0.0,0.0,0.0,0.0,0.0,0.0,0.0,0.0,0.0,0.0,0.0,0.0,0.0,0.0,0.0,0.0,0.0,0.0,0.0,0.0,0.0,0.0,0.0,0.0,0.0,0.0,0.0,0.0,0.0,0.0,0.0,0.0,0.0,0.0,0.0,0.0,0.0,0.0,0.0,-0.2353,-0.2469,-0.2461,-0.2411,0.0,0.0,-0.2149,-0.1824,-0.1547,0.0,0.0,0.0,0.0,0.0,0.0,0.0,0.0,0.0,0.0,0.0,0.0,0.0,0.0,0.0,0.0,0.0,0.0,0.0,0.0,0.0,0.0,0.0,0.0,0.0,0.0,0.0,0.0,0.0,0.0,0.0,0.0,0.0,0.0,0.0,0.0,0.0,0.0,0.0,0.0,0.0,0.0,0.0,0.0,0.0,0.0,0.0,0.0,0.0,0.0,0.0,0.0,0.0,0.0,0.0,-1.8225,-1.7878,-1.7361,-1.6866,-1.6355,-1.5803,-1.5285,-1.4856,-1.4376,-1.3954,0.0,0.0,0.0,0.0,0.0,0.0,0.0,0.0,0.0,0.0,0.0,0.0,0.0,0.0,0.0,0.0,0.0,0.0,0.0,0.0,0.0,0.0,0.0,0.0,0.0,0.0,0.0,0.0,0.0,0.0,0.0,0.0,0.0,0.0,0.0,0.0,0.0,0.0,0.0,0.0,0.0,0.0,-0.3608,-0.3556,0.0,0.0,0.0,-0.3096,-0.2793,0.0,0.0,0.0,0.0,0.0,0.0,0.0,0.0,0.0,0.0,0.0,0.0,0.0,0.0,0.0,0.0,0.0,0.0,0.0,0.0,0.0,0.0,0.0,0.0,0.0,0.0,0.0,0.0,0.0,0.0,0.0,0.0,0.0,0.0,0.0,0.0,0.0,0.0,0.0,0.0,0.0,0.0,0.0,0.0,0.0,0.0,0.0,0.0,0.0,0.0,0.0,0.0,0.0,0.0,0.0,0.0,0.0,-1.8001,-1.7511,-1.6993,-1.6463,-1.5917,-1.5396,-1.4949,-1.4447,0.0,0.0,0.0,0.0,0.0,0.0,0.0,0.0,0.0,0.0,0.0,0.0,0.0,0.0,0.0,0.0,0.0,0.0,0.0,0.0,0.0,0.0,0.0,0.0,0.0,0.0,0.0,-0.569,0.0,0.0,0.0,0.0,0.0,0.0,0.0,0.0,0.0,0.0,0.0,0.0,0.0,0.0,-0.454,-0.454,-0.4455,-0.4363,0.0,0.0,-0.3914,-0.3684,-0.3388,-0.3128,0.0,0.0,0.0,0.0,0.0,0.0,0.0,0.0,0.0,0.0,0.0,0.0,0.0,0.0,0.0,0.0,0.0,0.0,0.0,0.0,0.0,0.0,0.0,0.0,0.0,0.0,0.0,0.0,0.0,0.0,0.0,0.0,0.0,0.0,0.0,0.0,0.0,0.0,0.0,0.0,0.0,0.0,0.0,0.0,0.0,0.0,0.0,0.0,0.0,0.0,0.0,0.0,0.0,0.0,-1.8461,-1.7993,-1.7587,-1.7134,-1.6581,-1.6001,-1.547,-1.5006,-1.4543,-1.4138,0.0,0.0,0.0,0.0,0.0,0.0,0.0,0.0,0.0,0.0,0.0,0.0,0.0,0.0,0.0,0.0,0.0,0.0,0.0,0.0,0.0,0.0,0.0,0.0,0.0,0.0,0.0,0.0,0.0,0.0,0.0,0.0,0.0,0.0,0.0,0.0,0.0,0.0,0.0,0.0,0.0,-0.524,-0.524,-0.5224,-0.5179,0.0,-0.495,-0.4826,-0.4561,-0.4272,-0.4011,-0.3681,0.0,0.0,0.0,0.0,0.0,0.0,0.0,0.0,0.0,0.0,0.0,0.0,0.0,0.0,0.0,0.0,0.0,0.0,0.0,0.0,0.0,0.0,0.0,0.0,0.0,0.0,0.0,0.0,0.0,0.0,0.0,0.0,0.0,0.0,0.0,0.0,0.0,0.0,0.0,0.0,0.0,0.0,0.0,0.0,0.0,0.0,0.0,0.0,0.0,0.0,0.0,0.0,0.0,-1.85,-1.8069,-1.7616,-1.7134,-1.6615,-1.6029,-1.5477,-1.5006,-1.456,-1.4131,0.0,0.0,0.0,0.0,0.0,0.0,0.0,0.0,0.0,0.0,0.0,0.0,0.0,0.0,0.0,0.0,0.0,0.0,0.0,0.0,0.0,0.0,0.0,0.0,0.0,0.0,0.0,0.0,-0.7384,-0.7179,-0.7095,0.0,0.0,0.0,0.0,0.0,0.0,0.0,0.0,0.0,0.0,-0.5936,-0.5959,-0.5924,0.0,0.0,-0.5648,-0.5404,-0.5201,-0.4947,-0.4651,-0.4301,-0.3983,0.0,0.0,0.0,0.0,0.0,0.0,0.0,0.0,0.0,0.0,0.0,0.0,0.0,0.0,0.0,0.0,0.0,0.0,0.0,0.0,0.0,0.0,0.0,0.0,0.0,0.0,0.0,0.0,0.0,0.0,0.0,0.0,0.0,0.0,0.0,0.0,0.0,0.0,0.0,0.0,0.0,0.0,0.0,0.0,0.0,0.0,0.0,0.0,0.0,0.0,0.0,0.0,-1.851,-1.8102,-1.7625,-1.7134,-1.6615,-1.6029,-1.5477,-1.5013,-1.4543,-1.4131,0.0,0.0,0.0,0.0,0.0,0.0,0.0,0.0,0.0,0.0,0.0,0.0,0.0,0.0,0.0,0.0,0.0,0.0,0.0,0.0,0.0,0.0,0.0,0.0,0.0,0.0,0.0,0.0,-0.8345,-0.8185,-0.8189,0.0,0.0,0.0,0.0,0.0,0.0,0.0,0.0,0.0,0.0,-0.6464,-0.6517,-0.6494,-0.6437,-0.6472,-0.6187,-0.5963,-0.5776,-0.5515,-0.5226,-0.4887,0.0,0.0,0.0,0.0,0.0,0.0,0.0,0.0,0.0,0.0,0.0,0.0,0.0,0.0,0.0,0.0,0.0,0.0,0.0,0.0,0.0,0.0,0.0,0.0,0.0,0.0,0.0,-2.1805,0.0,0.0,-2.2986,0.0,0.0,0.0,0.0,0.0,0.0,0.0,0.0,0.0,0.0,0.0,0.0,0.0,0.0,0.0,0.0,0.0,0.0,0.0,0.0,0.0,0.0,-1.8557,-1.8111,-1.7639,-1.715,-1.6615,-1.5994,-1.5477,-1.5006,-1.4536,-1.4131,-1.3781,0.0,0.0,0.0,0.0,0.0,0.0,0.0,0.0,0.0,0.0,0.0,0.0,0.0,0.0,0.0,0.0,0.0,0.0,0.0,0.0,0.0,0.0,0.0,0.0,0.0,0.0,-0.9478,-0.9168,-0.9016,0.0,0.0,0.0,0.0,0.0,0.0,0.0,0.0,0.0,-0.6781,-0.6785,-0.6781,-0.6785,-0.6785,-0.6781,-0.6781,-0.6621,-0.6433,-0.6307,-0.6048,-0.5758,0.0,0.0,0.0,0.0,0.0,0.0,0.0,0.0,0.0,0.0,0.0,0.0,0.0,0.0,0.0,0.0,0.0,0.0,0.0,0.0,0.0,0.0,0.0,0.0,0.0,0.0,0.0,-2.0937,-2.0968,0.0,0.0,0.0,0.0,0.0,0.0,0.0,0.0,0.0,0.0,0.0,-2.0294,-2.0233,0.0,0.0,0.0,0.0,0.0,0.0,0.0,0.0,0.0,0.0,0.0,0.0,-1.8519,-1.809,-1.7639,-1.7142,-1.6615,-1.6001,-1.5477,-1.4998,-1.4536,-1.4066,-1.356,0.0,0.0,0.0,0.0,0.0,0.0,0.0,0.0,0.0,0.0,0.0,0.0,0.0,0.0,0.0,0.0,0.0,0.0,0.0,0.0,0.0,0.0,0.0,0.0,0.0,-1.0462,0.0,0.0,0.0,0.0,0.0,0.0,0.0,0.0,0.0,0.0,0.0,-0.7051,-0.7173,-0.728,-0.732,-0.7287,-0.7237,-0.7168,0.0,0.0,0.0,0.0,0.0,0.0,0.0,0.0,0.0,0.0,0.0,0.0,0.0,0.0,-0.3049,-0.2504,-0.2373,-0.2431,-0.255,0.0,0.0,0.0,0.0,0.0,0.0,0.0,0.0,0.0,0.0,0.0,0.0,0.0,0.0,-2.0506,-2.0502,-2.0513,0.0,0.0,0.0,0.0,0.0,0.0,0.0,0.0,-2.0419,-2.0363,-2.0289,-2.0227,-2.0155,-2.006,-2.0027,-1.9971,0.0,0.0,0.0,0.0,0.0,0.0,0.0,0.0,-1.8469,-1.8074,-1.7602,-1.7109,-1.6562,-1.5994,-1.5477,-1.5006,-1.4433,-1.3901,-1.3452,-1.3235,-1.2998,0.0,0.0,0.0,0.0,0.0,0.0,0.0,0.0,0.0,0.0,0.0,0.0,0.0,0.0,0.0,0.0,0.0,0.0,0.0,0.0,0.0,0.0,0.0,-1.0878,0.0,0.0,0.0,0.0,0.0,0.0,0.0,0.0,0.0,-0.8061,-0.7579,-0.7328,-0.744,-0.7518,-0.7548,-0.7519,0.0,0.0,0.0,0.0,0.0,0.0,0.0,-0.6421,-0.6083,-0.5793,-0.5453,-0.5046,-0.4634,-0.4323,-0.4288,0.0,0.0,-0.3294,-0.3097,-0.3066,-0.3102,-0.312,-0.3156,-0.3344,-0.344,-0.3515,0.0,0.0,0.0,0.0,-2.0499,0.0,0.0,0.0,-2.0473,-2.0507,0.0,-2.0503,0.0,0.0,0.0,0.0,-2.0506,-2.051,0.0,0.0,-2.0423,-2.0366,-2.0294,-2.0236,-2.0146,-2.0008,-1.9995,-1.9936,-1.9807,-1.9785,0.0,0.0,0.0,0.0,0.0,0.0,-1.8399,-1.7996,-1.7549,-1.7043,-1.652,-1.5966,-1.5441,-1.4968,-1.4208,-1.3701,-1.3486,-1.3163,-1.2967,-1.2803,-1.2621,0.0,0.0,0.0,0.0,0.0,0.0,0.0,0.0,0.0,0.0,0.0,0.0,0.0,0.0,0.0,0.0,0.0,0.0,0.0,0.0,-1.1389,0.0,0.0,0.0,0.0,0.0,0.0,0.0,0.0,0.0,0.0,-0.8266,-0.7805,-0.7529,-0.7515,0.0,0.0,0.0,0.0,-0.749,-0.7415,-0.7303,-0.7145,-0.6945,-0.6833,-0.669,-0.6345,0.0,0.0,-0.5222,-0.4957,-0.4739,-0.4634,-0.4561,-0.4401,-0.4018,-0.3814,-0.3719,-0.3723,-0.3726,-0.3754,-0.3891,-0.3935,-0.3956,-2.0528,0.0,0.0,0.0,0.0,-2.0424,-2.0418,-2.0392,-2.0418,-2.0454,-2.0511,-2.0508,0.0,0.0,0.0,0.0,0.0,0.0,-2.0502,-2.0497,-2.0388,-2.0294,-2.0236,-2.0153,-2.0079,-1.9989,-1.99,-1.9809,-1.9735,-1.9692,-1.9615,-1.9537,0.0,0.0,0.0,0.0,-1.8365,-1.7974,-1.7487,-1.6952,-1.6429,-1.5902,-1.5263,-1.4529,-1.4066,-1.3708,-1.3527,-1.317,-1.2967,-1.2867,-1.2615,0.0,0.0,0.0,0.0,0.0,0.0,0.0,0.0,0.0,0.0,0.0,0.0,0.0,0.0,0.0,0.0,0.0,0.0,0.0,-1.1844,-1.1591,-1.1394,0.0,0.0,0.0,0.0,0.0,0.0,0.0,0.0,0.0,-0.8819,-0.8388,-0.8015,0.0,0.0,-0.7637,-0.7637,-0.7637,-0.7612,-0.749,-0.7421,0.0,-0.7017,-0.6915,-0.676,-0.6425,-0.5955,-0.5557,-0.5271,-0.5087,-0.4928,-0.4896,-0.4858,-0.4826,-0.4695,-0.4433,-0.4299,-0.4264,-0.4266,-0.4301,-0.4333,-0.4371,-0.4374,-2.0509,-2.0513,-2.0511,-2.0463,-2.04,-2.0384,-2.0387,-2.039,-2.0388,-2.0444,-2.0506,-2.0513,-2.0513,-2.0506,-2.0506,0.0,0.0,0.0,-2.0473,-2.0448,-2.0353,-2.0265,-2.0208,-2.0134,-2.0069,-1.9996,-1.9898,-1.9794,-1.9688,-1.9629,-1.9546,-1.9422,0.0,-1.912,-1.8932,-1.8593,-1.8255,-1.7878,-1.7361,-1.6866,-1.6355,-1.566,-1.4951,-1.4293,-1.3894,-1.3668,-1.348,-1.3198,-1.299,-1.2902,-1.2726,-1.2573,0.0,0.0,0.0,0.0,0.0,0.0,0.0,0.0,0.0,0.0,0.0,-1.2029,-1.2228,0.0,0.0,0.0,-1.2288,-1.215,-1.2022,-1.1776,0.0,0.0,0.0,0.0,0.0,0.0,0.0,-1.0539,-1.0158,-0.9663,-0.9087,-0.8784,-0.8398,-0.7778,-0.7695,-0.7695,-0.7695,0.0,-0.7632,-0.7515,-0.749,-0.7342,-0.7042,-0.6962,-0.682,-0.6421,-0.5959,-0.5585,-0.5397,-0.5211,-0.509,-0.5116,-0.5084,-0.5087,-0.5119,-0.495,-0.4791,-0.4727,-0.4695,-0.4695,-0.4695,-0.4724,-0.4692,-2.0509,-2.0506,-2.0509,-2.0468,-2.0403,-2.0387,-2.039,-2.0381,-2.0408,-2.0449,-2.0511,-2.0513,-2.0506,-2.0506,-2.0506,0.0,-2.0513,-2.0509,-2.0478,-2.0384,-2.0328,-2.0265,-2.0198,-2.0143,-2.0069,-1.9984,-1.9928,-1.9835,-1.9699,-1.9615,-1.9484,-1.9314,-1.9207,-1.9052,-1.8779,-1.8459,-1.8103,-1.7695,-1.724,-1.6746,-1.6203,-1.5292,-1.4606,-1.4203,-1.3815,-1.3594,-1.3493,-1.3232,-1.3025,-1.2943,-1.2838,-1.2726,-1.2544,0.0,0.0,0.0,0.0,0.0,0.0,0.0,0.0,0.0,0.0,0.0,0.0,0.0,0.0,0.0,-1.2288,0.0,-1.2108,-1.1918,0.0,0.0,0.0,-1.1099,-1.0921,-1.0731,-1.0544,-1.0423,0.0,0.0,-0.9111,-0.9004,-0.8654,-0.7807,-0.7695,-0.7695,-0.7695,-0.7622,-0.7559,-0.7485,-0.7431,-0.7287,-0.7026,-0.6932,-0.6751,-0.6337,-0.5998,-0.5718,-0.5529,-0.5334,-0.5242,-0.5281,-0.5239,-0.5204,-0.5277,-0.5252,-0.5221,-0.5023,-0.4992,-0.5023,-0.4992,-0.4957,-0.489,-2.0511,-2.051,-2.0505,-2.0458,-2.0394,-2.0388,-2.0388,-2.0408,-2.0454,-2.0478,-2.0504,-2.0503,-2.0507,-2.0506,-2.0506,-2.0503,-2.0511,-2.0505,-2.0459,-2.0394,-2.0328,-2.0265,-2.0208,-2.018,-2.0117,-1.9997,-1.993,-1.9837,-1.9701,-1.9578,-1.946,-1.9299,-1.9135,-1.8931,-1.8724,-1.8333,-1.798,-1.7627,-1.7117,-1.6432,-1.5551,-1.4996,-1.4556,-1.4196,-1.3815,-1.3547,-1.3493,-1.3226,-1.3053,-1.2965,-1.2867,-1.2762,-1.2661,-1.2662,0.0,0.0,0.0,0.0,0.0,0.0,0.0,0.0,0.0,-1.2556,-1.2473,0.0,-1.2697,0.0,-1.2478,-1.2294,-1.2168,-1.1949,0.0,0.0,-1.1378,-1.1131,-1.0921,-1.0731,-1.0539,-1.0428,-1.0356,-0.9961,-0.9116,-0.8945,-0.8593,-0.7753,-0.7656,-0.7695,-0.7652,-0.7618,-0.753,-0.7319,-0.7264,-0.715,-0.6889,-0.6612,-0.6425,-0.6241,-0.5947,-0.5666,-0.5526,-0.5372,-0.5277,-0.5312,-0.5239,-0.5207,-0.5207,-0.5147,-0.5087,-0.5023,-0.5081,-0.5141,-0.5144,-0.5055,-0.4928,-2.051,-2.0504,-2.0511,-2.0481,-2.0451,-2.0449,-2.0449,-2.0454,-2.0482,-2.0513,-2.0506,-2.0513,-2.0509,-2.0511,-2.0506,-2.0503,-2.0505,-2.0509,-2.0478,-2.0442,-2.0363,-2.0282,-2.0242,-2.0198,-2.0127,-1.999,-1.9934,-1.9821,-1.9704,-1.9601,-1.9475,-1.9289,-1.9084,-1.8923,-1.8731,-1.829,-1.7867,-1.7516,-1.6817,-1.605,-1.5218,-1.4835,-1.4433,-1.4111,-1.3749,-1.3547,-1.3486,-1.3273,-1.3135,-1.3053,-1.2908,-1.2832,-1.2743,-1.2739,-1.2709,0.0,0.0,0.0,0.0,0.0,0.0,0.0,0.0,0.0,0.0,0.0,-1.2803,-1.2739,-1.252,-1.2335,-1.221,-1.1954,-1.1751,-1.1576,-1.1335,-1.1056,-1.0812,-1.0616,-1.0467,-1.0351,-1.0278,-0.9886,-0.9067,-0.8877,-0.8484,-0.7684,-0.7554,-0.7554,-0.7544,-0.7466,-0.7373,-0.7225,-0.7111,-0.6966,-0.6712,-0.6468,-0.6245,-0.611,-0.5846,-0.5641,-0.5474,-0.5344,-0.5274,-0.5242,-0.5179,-0.5116,-0.5116,-0.5052,-0.4988,-0.4988,-0.5023,-0.5052,-0.5084,-0.4988,-0.4902,-2.0508,-2.0504,-2.051,-2.0503,-2.0511,-2.0509,-2.0508,-2.0505,-2.0505,-2.051,-2.0511,-2.0509,-2.0509,-2.0509,-2.0511,-2.051,-2.0503,-2.0513,-2.0512,-2.0496,-2.0372,-2.0308,-2.0294,-2.0234,-2.0155,-2.0011,-1.9927,-1.9847,-1.9717,-1.9656,-1.9508,-1.9314,-1.9101,-1.8941,-1.8774,-1.8275,-1.7762,-1.731,-1.6512,-1.5761,-1.5097,-1.4735,-1.4356,-1.3993,-1.3675,-1.3527,-1.3486,-1.3323,-1.317,-1.3107,-1.2978,-1.2867,-1.2797,-1.2739,-1.2709,0.0,-1.2774,0.0,0.0,0.0,0.0,0.0,0.0,0.0,0.0,-1.2902,-1.2867,-1.2803,-1.2556,-1.2324,-1.2216,-1.1949,-1.1677,-1.1421,-1.1207,-1.0969,-1.0654,-1.05,-1.038,-1.0283,-1.0118,-0.9738,-0.8997,-0.8712,-0.829,-0.7607,-0.7372,-0.7342,-0.7397,-0.7294,-0.72,-0.7175,-0.6966,-0.6729,-0.6521,-0.6341,-0.6156,-0.5924,-0.5749,-0.5582,-0.5417,-0.5277,-0.5204,-0.5137,-0.5052,-0.496,-0.496,-0.4931,-0.4925,-0.4931,-0.4803,-0.4809,-0.4934,-0.4835,-0.4748,-2.054,-2.0575,-2.0517,-2.0536,-2.0572,-2.0516,-2.0508,-2.0509,-2.0509,-2.0537,-2.0585,-2.0573,-2.057,-2.058,-2.0531,-2.0509,-2.0503,-2.0505,-2.0506,-2.0512,-2.0416,-2.0357,-2.0294,-2.0294,-2.0198,-2.0089,-2.0021,-1.9936,-1.9861,-1.9748,-1.9569,-1.939,-1.9186,-1.8958,-1.8693,0.0,0.0,0.0,-1.6258,-1.5696,-1.5036,-1.4773,-1.4433,-1.4032,-1.3742,0.0,-1.3486,-1.3288,-1.3198,-1.3163,-1.3012,0.0,0.0,0.0,0.0,0.0,0.0,0.0,0.0,0.0,0.0,0.0,-1.3157,-1.3088,-1.2943,-1.2832,-1.2803,-1.2803,-1.2556,-1.2335,-1.2198,-1.1912,-1.1613,-1.1421,-1.1131,-1.085,-1.0616,-1.05,-1.0336,-1.0152,-0.9829,-0.9394,-0.8812,-0.8356,-0.7871,-0.7356,-0.7141,-0.7056,-0.703,-0.706,-0.7069,-0.6889,-0.6616,-0.6403,-0.6372,-0.6095,-0.5905,-0.5776,-0.5599,-0.5449,-0.5347,-0.5246,-0.5109,-0.4982,-0.4899,-0.4803,-0.4701,-0.464,-0.4616,-0.4587,-0.4517,-0.4549,-0.4774,-0.4649,-0.4452,-2.1164,-2.115,-2.0692,-2.0513,0.0,-2.0537,-2.0556,-2.0546,-2.0558,-2.0567,-2.0601,-2.0598,-2.0598,-2.0596,-2.057,-2.0538,-2.051,-2.0503,-2.0509,-2.0502,-2.0427,-2.0386,-2.0359,-2.0317,-2.0233,-2.0144,-2.005,-1.9959,-1.9884,-1.9763,-1.9597,-1.9416,-1.9198,-1.8984,-1.875,-1.8043,-1.7357,-1.6659,-1.6246,-1.5761,-1.5172,-1.4849,-1.4511,-1.4118,-1.3822,0.0,0.0,0.0,0.0,0.0,0.0,0.0,0.0,-1.2774,0.0,-1.2709,-1.2803,-1.2867,-1.2896,-1.3053,-1.3163,-1.3204,-1.321,-1.3163,-1.3047,-1.2949,-1.2867,-1.2832,-1.2579,-1.233,-1.218,-1.1881,-1.1576,-1.1341,-1.1002,-1.0764,-1.0616,-1.039,-1.0152,-0.9834,-0.9525,-0.9047,-0.8379,-0.8015,-0.7594,-0.7132,-0.697,-0.6885,-0.679,-0.6855,-0.6868,-0.6621,-0.6433,-0.6249,-0.6091,-0.5936,-0.5756,-0.5631,-0.547,-0.5344,-0.5274,-0.5116,-0.4963,-0.4864,-0.4707,-0.4581,-0.4511,-0.4447,-0.4385,-0.4385,-0.4318,-0.4288,-0.4385,-0.432,-0.4223,-2.1914,-2.173,-2.1039,-2.0641,-2.0513,-2.0564,-2.0597,-2.0599,-2.0595,0.0,0.0,-2.0603,-2.0602,-2.0601,-2.0596,-2.0568,-2.0511,-2.0507,-2.0511,-2.0502,-2.0438,-2.0385,-2.0389,-2.0328,-2.0265,-2.0216,-2.0098,-1.999,-1.9909,-1.9788,-1.9628,-1.9438,-1.9243,-1.899,-1.8705,-1.7898,-1.7254,-1.6791,-1.6348,-1.5847,-1.5322,-1.4935,-1.4543,-1.4189,-1.3947,-1.3701,-1.3486,-1.3425,-1.3335,-1.3207,-1.299,-1.2914,-1.291,-1.2786,-1.2709,-1.2709,-1.2838,-1.2902,-1.2902,-1.3082,-1.321,-1.321,-1.321,-1.321,-1.321,-1.3012,-1.2902,-1.2902,-1.2585,-1.2335,-1.2113,-1.1839,-1.1522,-1.1223,-1.0888,-1.0649,-1.0539,-1.0273,-0.9925,-0.951,-0.917,-0.871,-0.7959,-0.7616,-0.7318,-0.6937,-0.6772,-0.6716,-0.6608,-0.6643,-0.6594,-0.6403,-0.6245,-0.6091,-0.587,-0.5752,-0.5634,-0.5417,-0.5347,-0.5242,-0.5116,-0.4931,-0.4812,-0.4678,-0.4514,-0.4385,-0.432,-0.425,-0.4215,-0.4188,-0.4091,-0.3999,-0.3931,-0.3931,-0.3933,-2.2359,-2.1697,-2.1637,-2.1181,-2.0503,-2.0504,-2.0537,-2.0594,-2.0602,-2.0604,-2.0595,-2.0596,-2.0595,-2.0604,-2.0598,-2.0603,-2.058,-2.0528,-2.0506,-2.049,-2.042,-2.0388,-2.0389,-2.0327,-2.0294,-2.0294,-2.0209,-2.0108,-1.999,-1.9911,-1.9767,-1.9569,-1.9383,-1.899,-1.8456,-1.7984,-1.7549,-1.7134,-1.652,-1.5889,-1.5315,-1.5041,-1.4644,-1.4242,-1.4007,-1.3775,-1.3527,-1.3452,-1.3335,-1.3207,-1.299,-1.292,-1.291,-1.2798,-1.2709,-1.2709,-1.2838,-1.2902,-1.2902,-1.3088,-1.321,-1.321,-1.321,-1.321,-1.3198,-1.3006,-1.2902,-1.2902,-1.2585,-1.2335,-1.2113,-1.1737,-1.141,-1.1115,-1.0817,-1.0544,-1.0356,-1.0176,-0.9815,-0.9226,-0.8815,-0.8312,-0.7654,-0.7181,-0.6867,-0.6686,-0.6578,-0.6499,-0.6364,-0.6341,-0.6341,-0.628,-0.606,-0.5874,-0.5749,-0.5599,-0.5445,-0.5344,-0.5242,-0.5119,-0.4937,-0.4809,-0.4675,-0.4447,-0.4318,-0.4215,-0.4051,-0.3953,-0.3921,-0.3831,-0.3735,-0.3665,-0.3663,-0.3539,-0.3475,-2.3332,-2.2897,-2.2055,-2.1482,-2.1109,-2.0694,-2.0506,-2.055,-2.0555,-2.0565,-2.0602,-2.0604,-2.0595,-2.0595,-2.0604,-2.0601,-2.0603,-2.0538,-2.0513,-2.0503,-2.0477,-2.0444,-2.0398,-2.0366,-2.033,-2.0294,-2.023,-2.0153,-2.004,-1.9947,-1.9823,-1.964,-1.9353,-1.8966,-1.8498,-1.8125,-1.7724,-1.7344,-1.6688,-1.6148,-1.5667,-1.5321,-1.4925,-1.4511,-1.4293,-1.4033,-1.3741,-1.3634,-1.3478,-1.3229,-1.3129,-1.2978,-1.2803,-1.2768,-1.2774,-1.2739,-1.2838,-1.2937,-1.3025,-1.3129,-1.321,-1.321,-1.321,-1.317,-1.3141,-1.2978,-1.2867,-1.2768,-1.2556,-1.2294,-1.2029,-1.1695,-1.1404,-1.1121,-1.0731,-1.0472,-1.0288,-0.982,-0.9357,-0.8811,-0.8277,-0.7714,-0.7167,-0.6814,-0.6551,-0.6421,-0.6333,-0.621,-0.6153,-0.6056,-0.6029,-0.6002,-0.5901,-0.5749,-0.5599,-0.547,-0.5344,-0.5242,-0.5087,-0.4966,-0.4777,-0.4675,-0.4476,-0.4312,-0.4121,-0.3961,-0.38,-0.3728,-0.3663,-0.36,-0.3508,-0.344,-0.3372,-0.3177,-0.3039,-2.4207,-2.3945,-2.2684,-2.1965,-2.1623,-2.0832,-2.0478,-2.0481,-2.0487,-2.0533,-2.058,-2.0597,-2.0603,-2.0595,-2.0596,-2.0605,-2.0598,-2.0558,-2.0507,-2.0513,-2.0504,-2.0468,-2.0415,-2.0412,-2.0373,-2.032,-2.025,-2.0197,-2.0117,-1.999,-1.9841,-1.9656,-1.9332,-1.8992,-1.8652,-1.8284,-1.7919,-1.7595,-1.701,-1.6493,-1.6088,-1.5602,-1.5245,-1.4887,-1.4606,-1.4319,-1.3974,-1.3881,-1.3647,-1.3295,-1.3226,-1.3076,-1.2832,-1.2791,-1.2838,-1.2803,-1.2902,-1.3019,-1.31,-1.3163,-1.321,-1.3204,-1.3198,-1.3135,-1.306,-1.2949,-1.2803,-1.2703,-1.2478,-1.2216,-1.1915,-1.1616,-1.1298,-1.0997,-1.0626,-1.0292,-1.0002,-0.946,-0.8853,-0.8335,-0.7714,-0.7201,-0.6787,-0.6486,-0.6325,-0.6218,-0.606,-0.5967,-0.5905,-0.5811,-0.5718,-0.5686,-0.5686,-0.5624,-0.5414,-0.5347,-0.5246,-0.5144,-0.496,-0.4806,-0.4678,-0.4447,-0.4253,-0.4153,-0.3931,-0.374,-0.3639,-0.3504,-0.3434,-0.3401,-0.3272,-0.3175,-0.3076,-0.2915,-0.2746,-2.4624,-2.4043,-2.3794,-2.293,-2.1575,-2.0818,-2.0458,-2.0425,-2.047,-2.0511,-2.0503,-2.0574,-2.0597,-2.0601,-2.0595,-2.0596,-2.0595,-2.0589,-2.0558,-2.0507,-2.0513,-2.0494,-2.0483,-2.0443,-2.0381,-2.0379,-2.0316,-2.0262,-2.0186,-2.0117,-1.9935,-1.9625,-1.9385,-1.9148,-1.8878,-1.8531,-1.8232,-1.7944,-1.7534,-1.6977,-1.6301,-1.5853,-1.5477,-1.5066,-1.4818,-1.4504,-1.413,-1.3974,-1.3768,-1.348,-1.3288,-1.3176,-1.3125,-1.299,-1.2902,-1.2902,-1.3012,-1.3107,-1.317,-1.3198,-1.3204,-1.3204,-1.3135,-1.306,-1.2931,-1.2803,-1.2709,-1.2633,-1.2407,-1.2108,-1.1805,-1.1479,-1.1105,-1.0736,-1.0467,-1.0017,-0.938,-0.9087,-0.8626,-0.7595,-0.7272,-0.6913,-0.6471,-0.6237,-0.6118,-0.5978,-0.5877,-0.5784,-0.5721,-0.5627,-0.5495,-0.5404,-0.5382,-0.5379,-0.5281,-0.5242,-0.5112,-0.4985,-0.4864,-0.4675,-0.4514,-0.435,-0.4221,-0.3928,-0.3735,-0.3607,-0.3412,-0.3278,-0.3208,-0.3171,-0.3037,-0.2907,-0.2779,-0.2683,-0.2648,-2.4825,-2.4564,-2.407,-2.2978,-2.153,-2.0709,-2.037,-2.0348,-2.0415,-2.0449,-2.0443,-2.0516,-2.0543,-2.0539,-2.0589,-2.0602,-2.0604,-2.0604,-2.0598,-2.0552,-2.0526,-2.0503,-2.0492,-2.0481,-2.0434,-2.0408,-2.0376,-2.033,-2.0236,-2.0126,-1.9927,-1.9716,-1.9504,-1.9308,-1.9067,-1.8735,-1.8463,-1.8213,-1.7922,-1.7526,-1.706,-1.6424,-1.596,-1.5638,-1.5285,-1.4951,-1.4596,-1.4337,-1.4033,-1.3722,-1.3607,-1.3444,-1.3217,-1.3135,-1.3053,-1.3025,-1.3066,-1.3107,-1.3141,-1.3088,-1.3012,-1.3006,-1.3012,-1.2943,-1.2867,-1.2739,-1.2627,-1.2407,-1.2246,-1.2041,-1.1771,-1.141,-1.1024,-1.0659,-1.0322,-0.9848,-0.9147,-0.8634,-0.8052,-0.7294,-0.6868,-0.6514,-0.6188,-0.6002,-0.5846,-0.5686,-0.562,-0.5592,-0.5529,-0.5432,-0.534,-0.5204,-0.5144,-0.5116,-0.509,-0.5023,-0.4931,-0.4835,-0.464,-0.4412,-0.4347,-0.4091,-0.3863,-0.3702,-0.3574,-0.3442,-0.3278,-0.3177,-0.3107,-0.3004,-0.2874,-0.2744,-0.2611,-0.2449,-0.2349,-2.4875,-2.4805,-2.4081,-2.3147,-2.2029,-2.0782,-2.0398,-2.0561,-2.0434,-2.0387,-2.0374,-2.0444,-2.0484,-2.0484,-2.054,-2.0583,-2.058,-2.0595,-2.0605,-2.0601,-2.0552,-2.054,-2.0525,-2.051,-2.0469,-2.0444,-2.0414,-2.0363,-2.0294,-2.0144,-1.999,-1.9855,-1.9682,-1.9485,-1.9283,-1.8971,-1.8717,-1.8469,-1.8246,-1.7971,-1.765,-1.706,-1.6554,-1.6191,-1.5769,-1.5404,-1.5043,-1.4704,-1.4369,-1.396,-1.3874,-1.3674,-1.3323,-1.3248,-1.3198,-1.3107,-1.31,-1.306,-1.3066,-1.2943,-1.2902,-1.2902,-1.2861,-1.2838,-1.2733,-1.2627,-1.2443,-1.2222,-1.2041,-1.1839,-1.1586,-1.1223,-1.0878,-1.0462,-1.0007,-0.9454,-0.8752,-0.8087,-0.742,-0.6913,-0.6435,-0.6091,-0.5897,-0.5714,-0.5561,-0.5425,-0.539,-0.5362,-0.5299,-0.5239,-0.5144,-0.5042,-0.4915,-0.4861,-0.4931,-0.4832,-0.4774,-0.4649,-0.4447,-0.4309,-0.4215,-0.3896,-0.3639,-0.3541,-0.3379,-0.3245,-0.3177,-0.3107,-0.2975,-0.2805,-0.2707,-0.258,-0.2414,-0.2215,-0.2047,-2.4682,-2.4686,-2.4026,-2.3692,-2.351,-2.1317,-2.068,-2.1214,-2.0585,-2.0301,-2.0324,-2.0381,-2.0399,-2.0415,-2.0481,-2.0511,-2.051,-2.0579,-2.0595,-2.0605,-2.0593,-2.0594,-2.0597,-2.0526,-2.05,-2.0488,-2.0448,-2.038,-2.031,-2.022,-2.0153,-2.0069,-1.9881,-1.9673,-1.9481,-1.9268,-1.9021,-1.8726,-1.8492,-1.8261,-1.7979,-1.7681,-1.7216,-1.6633,-1.6199,-1.579,-1.5404,-1.5074,-1.469,-1.4292,-1.4059,-1.3788,-1.3509,-1.3406,-1.3295,-1.31,-1.31,-1.3025,-1.2937,-1.2902,-1.2867,-1.2867,-1.2768,-1.2703,-1.2627,-1.2371,-1.218,-1.2108,-1.176,-1.1469,-1.1228,-1.0916,-1.0485,-1.0055,-0.9469,-0.8816,-0.8038,-0.7458,-0.6787,-0.6301,-0.5989,-0.5714,-0.5481,-0.5418,-0.5327,-0.5194,-0.5131,-0.5106,-0.5017,-0.4953,-0.489,-0.4797,-0.4701,-0.4669,-0.4739,-0.4672,-0.4573,-0.4447,-0.4318,-0.4213,-0.3991,-0.3768,-0.3574,-0.3412,-0.3278,-0.3177,-0.3074,-0.294,-0.2777,-0.261,-0.2543,-0.2379,-0.2247,-0.2114,-0.1913,-2.453,-2.4667,-2.4472,-2.4129,-2.3659,-2.3398,-2.2591,-2.1281,-2.0499,-2.0187,-2.0244,-2.0301,-2.0334,-2.0331,-2.041,-2.0469,-2.0503,-2.0531,-2.0567,-2.0594,-2.0595,-2.0605,-2.0596,-2.0585,-2.0537,-2.0496,-2.0477,-2.0424,-2.0355,-2.0304,-2.0227,-2.0152,-2.0011,-1.983,-1.9632,-1.9481,-1.9286,-1.9024,-1.8834,-1.8577,-1.8313,-1.8056,-1.7721,-1.7296,-1.6696,-1.6183,-1.579,-1.5396,-1.502,-1.4624,-1.4351,-1.4059,-1.3729,-1.3419,-1.3226,-1.3107,-1.2932,-1.2815,-1.2774,-1.2668,-1.2579,-1.2585,-1.2556,-1.2478,-1.236,-1.2216,-1.2029,-1.1768,-1.1479,-1.118,-1.0883,-1.0692,-1.0314,-0.9705,-0.9156,-0.8436,-0.7616,-0.7031,-0.6559,-0.6018,-0.5651,-0.5397,-0.5232,-0.5137,-0.5042,-0.5008,-0.4922,-0.4861,-0.4762,-0.4692,-0.4631,-0.454,-0.4382,-0.4285,-0.4256,-0.4379,-0.4344,-0.4218,-0.4058,-0.3928,-0.377,-0.3574,-0.3379,-0.3278,-0.3175,-0.3045,-0.2942,-0.2775,-0.2611,-0.2543,-0.2444,-0.2246,-0.2114,-0.1913,-0.1712,-2.4429,-2.4549,-2.4663,-2.4416,-2.4029,-2.4667,-2.3869,-2.1948,-2.0644,-2.0221,-2.046,-2.0336,-2.024,-2.0282,-2.0344,-2.0384,-2.0428,-2.0487,-2.0526,-2.0562,-2.0565,-2.0593,-2.0595,-2.0595,-2.0562,-2.0537,-2.0511,-2.0476,-2.042,-2.0371,-2.0305,-2.026,-2.0133,-1.9992,-1.9821,-1.967,-1.9504,-1.9305,-1.9124,-1.8903,-1.8634,-1.8375,-1.8111,-1.7796,-1.724,-1.6686,-1.6176,-1.579,-1.5403,-1.5001,-1.4683,-1.4287,-1.3782,-1.3385,-1.3129,-1.3002,-1.2809,-1.2674,-1.2597,-1.2443,-1.2324,-1.233,-1.2252,-1.218,-1.2102,-1.1962,-1.1774,-1.1473,-1.1201,-1.0847,-1.0434,-1.0172,-0.9866,-0.9231,-0.8708,-0.8004,-0.7132,-0.6668,-0.6205,-0.5709,-0.5369,-0.5144,-0.5014,-0.4852,-0.4791,-0.4727,-0.4669,-0.4608,-0.4538,-0.4444,-0.4344,-0.4288,-0.4126,-0.4026,-0.3963,-0.3991,-0.4021,-0.3896,-0.3863,-0.3702,-0.3543,-0.3379,-0.3212,-0.3142,-0.3043,-0.2911,-0.2779,-0.2611,-0.251,-0.2475,-0.2311,-0.2113,-0.1913,-0.1678,-0.1511,-2.433,-2.4403,-2.4489,-2.451,-2.4512,-2.4657,-2.4265,-2.3102,-2.1155,-2.0757,-2.1066,-2.048,-2.0229,-2.0196,-2.0267,-2.0308,-2.0328,-2.0425,-2.0486,-2.0493,-2.0504,-2.0539,-2.0581,-2.0582,-2.0585,-2.0592,-2.0523,-2.0507,-2.0488,-2.0429,-2.0394,-2.037,-2.0248,-2.0151,-2.0089,-1.9897,-1.9697,-1.9513,-1.9361,-1.9171,-1.8904,-1.8643,-1.8386,-1.8111,-1.7769,-1.7256,-1.6573,-1.6183,-1.5762,-1.5342,-1.4909,-1.4383,-1.3722,-1.3363,-1.3088,-1.2873,-1.2739,-1.2591,-1.2407,-1.2252,-1.2174,-1.218,-1.2018,-1.1889,-1.1822,-1.1654,-1.1437,-1.118,-1.0843,-1.0414,-0.9805,-0.934,-0.9009,-0.8724,-0.8009,-0.732,-0.6807,-0.6203,-0.5662,-0.534,-0.5049,-0.4864,-0.4771,-0.4637,-0.4503,-0.4415,-0.4347,-0.428,-0.4248,-0.4156,-0.4061,-0.3996,-0.3893,-0.3793,-0.37,-0.3604,-0.3604,-0.3602,-0.3567,-0.3501,-0.3372,-0.3177,-0.3078,-0.3008,-0.2911,-0.278,-0.2711,-0.2543,-0.2444,-0.2344,-0.2179,-0.1979,-0.1778,-0.1577,-0.1413,-2.4247,-2.4256,-2.433,-2.4393,-2.4473,-2.453,-2.412,-2.3455,-2.3103,-2.239,-2.1301,-2.0954,-2.0572,-2.0155,-2.0125,-2.0196,-2.0225,-2.0324,-2.0388,-2.0427,-2.048,-2.05,-2.0531,-2.0537,-2.0539,-2.0547,-2.0552,-2.0549,-2.0494,-2.0481,-2.0437,-2.04,-2.0369,-2.0282,-2.0178,-2.005,-1.9899,-1.9719,-1.9576,-1.9392,-1.9172,-1.8954,-1.8726,-1.851,-1.8132,-1.7698,-1.728,-1.6633,-1.6088,-1.5668,-1.5238,-1.4676,-1.3934,-1.3438,-1.3088,-1.2844,-1.2591,-1.2413,-1.2228,-1.2083,-1.1974,-1.1912,-1.1802,-1.1703,-1.1586,-1.1426,-1.1153,-1.0831,-1.0338,-0.981,-0.9348,-0.8637,-0.8162,-0.7936,-0.7433,-0.6861,-0.6303,-0.5716,-0.5249,-0.4998,-0.4765,-0.4602,-0.4514,-0.4347,-0.4221,-0.4156,-0.4053,-0.3988,-0.3893,-0.3831,-0.3765,-0.373,-0.366,-0.3562,-0.3436,-0.3337,-0.3305,-0.3305,-0.3305,-0.3305,-0.3175,-0.3076,-0.2942,-0.2876,-0.278,-0.2679,-0.2611,-0.2477,-0.2377,-0.2211,-0.2045,-0.1845,-0.1643,-0.1444,-0.1246,-2.4094,-2.4133,-2.4238,-2.4294,-2.434,-2.4385,-2.4159,-2.3817,-2.4317,-2.3553,-2.2121,-2.1679,-2.1138,-2.0535,-2.0476,-2.0346,-2.0164,-2.0215,-2.0265,-2.0326,-2.0434,-2.0456,-2.0467,-2.0506,-2.0506,-2.0512,-2.0566,-2.0564,-2.0508,-2.0506,-2.0467,-2.0439,-2.043,-2.0377,-2.0268,-2.0201,-2.0088,-1.9921,-1.9818,-1.9663,-1.9458,-1.9253,-1.9048,-1.8789,-1.8463,-1.812,-1.776,-1.7134,-1.6543,-1.5962,-1.5336,-1.4641,-1.4013,-1.356,-1.3185,-1.2867,-1.2579,-1.233,-1.2119,-1.1991,-1.1819,-1.1714,-1.1597,-1.1442,-1.1287,-1.111,-1.0873,-1.0479,-0.9883,-0.9302,-0.8761,-0.8037,-0.7419,-0.7007,-0.6714,-0.6307,-0.5771,-0.5327,-0.4979,-0.4765,-0.4505,-0.4347,-0.4221,-0.4058,-0.3933,-0.3863,-0.3796,-0.3698,-0.3604,-0.3541,-0.3471,-0.3436,-0.3368,-0.327,-0.3138,-0.3072,-0.3004,-0.3039,-0.3041,-0.3043,-0.2979,-0.2911,-0.2843,-0.2777,-0.2679,-0.2611,-0.251,-0.2344,-0.2211,-0.2078,-0.1911,-0.1711,-0.1477,-0.1244,-0.1044,-2.3937,-2.3996,-2.4122,-2.4199,-2.4199,-2.4257,-2.4284,-2.4338,-2.4442,-2.3962,-2.3145,-2.249,-2.1854,-2.1284,-2.1201,-2.0865,-2.0219,-2.0231,-2.0221,-2.024,-2.0324,-2.0384,-2.041,-2.0474,-2.0499,-2.0506,-2.0547,-2.0545,-2.0508,-2.0505,-2.0505,-2.0501,-2.0487,-2.0472,-2.0389,-2.0341,-2.0238,-2.0104,-2.0041,-1.9896,-1.9701,-1.9527,-1.9301,-1.9055,-1.878,-1.8482,-1.8132,-1.7653,-1.7018,-1.6194,-1.5203,-1.4537,-1.4142,-1.3749,-1.3344,-1.2937,-1.2644,-1.2407,-1.2161,-1.1966,-1.1804,-1.1565,-1.14,-1.1201,-1.0964,-1.0797,-1.0534,-1.0133,-0.9455,-0.8771,-0.8149,-0.7399,-0.6747,-0.6172,-0.597,-0.5697,-0.534,-0.5046,-0.4791,-0.4573,-0.4285,-0.4061,-0.3961,-0.3763,-0.3635,-0.3534,-0.3499,-0.3438,-0.3342,-0.3276,-0.321,-0.3175,-0.3138,-0.3074,-0.2977,-0.2942,-0.2907,-0.2808,-0.281,-0.2812,-0.2812,-0.2779,-0.2744,-0.2678,-0.2578,-0.251,-0.2411,-0.2246,-0.2111,-0.1945,-0.1778,-0.1545,-0.1345,-0.1111,-0.0943,-2.3846,-2.3867,-2.3996,-2.4045,-2.4065,-2.4133,-2.4162,-2.419,-2.4248,-2.3867,-2.3209,-2.2954,-2.2492,-2.1887,-2.1845,-2.1477,-2.0956,-2.0844,-2.0493,-2.0117,-2.0134,-2.027,-2.0363,-2.041,-2.0449,-2.05,-2.0521,-2.0508,-2.0509,-2.0507,-2.0507,-2.0508,-2.0508,-2.0476,-2.0459,-2.0415,-2.0348,-2.0246,-2.0192,-2.0068,-1.9913,-1.9778,-1.9593,-1.9377,-1.9109,-1.8824,-1.851,-1.7875,-1.7059,-1.6187,-1.55,-1.4869,-1.4431,-1.4019,-1.3575,-1.3116,-1.2803,-1.2478,-1.215,-1.1918,-1.1719,-1.1528,-1.1282,-1.1045,-1.0797,-1.0534,-1.0239,-0.9809,-0.9046,-0.8299,-0.7804,-0.6934,-0.6175,-0.5697,-0.5508,-0.5352,-0.5042,-0.4759,-0.45,-0.4253,-0.3963,-0.3798,-0.3632,-0.3501,-0.3344,-0.3241,-0.3206,-0.3173,-0.3041,-0.3006,-0.2973,-0.2972,-0.297,-0.2909,-0.2878,-0.2845,-0.2777,-0.261,-0.261,-0.2643,-0.2644,-0.2644,-0.2577,-0.2543,-0.2477,-0.2376,-0.2279,-0.2147,-0.1979,-0.181,-0.1643,-0.1444,-0.1278,-0.1078,-0.0909,-2.375,-2.378,-2.3873,-2.3905,-2.3917,-2.4014,-2.4054,-2.4074,-2.4125,-2.3933,-2.3585,-2.3538,-2.3183,-2.256,-2.2504,-2.2135,-2.154,-2.151,-2.1105,-2.0452,-2.0191,-2.018,-2.0291,-2.0323,-2.0381,-2.0454,-2.0459,-2.0484,-2.0501,-2.0511,-2.0513,-2.0508,-2.0507,-2.0509,-2.0499,-2.0455,-2.0426,-2.0386,-2.0324,-2.0215,-2.0073,-1.9984,-1.9818,-1.9629,-1.9407,-1.9132,-1.869,-1.8112,-1.7337,-1.6485,-1.5824,-1.5293,-1.4783,-1.4335,-1.3875,-1.3357,-1.3047,-1.2697,-1.2264,-1.2016,-1.1734,-1.148,-1.1201,-1.0878,-1.0606,-1.0312,-1.0015,-0.9533,-0.8701,-0.8072,-0.7472,-0.6505,-0.5715,-0.5292,-0.5134,-0.4979,-0.4753,-0.4538,-0.425,-0.3963,-0.3702,-0.3471,-0.3337,-0.3175,-0.3076,-0.2977,-0.2944,-0.2843,-0.2742,-0.274,-0.2739,-0.2737,-0.2737,-0.2674,-0.2676,-0.2643,-0.261,-0.2477,-0.2411,-0.2477,-0.2477,-0.2477,-0.2477,-0.2409,-0.2343,-0.2243,-0.2113,-0.1979,-0.181,-0.1676,-0.1509,-0.1342,-0.1143,-0.101,-0.0875,-2.3687,-2.3678,-2.3752,-2.3777,-2.3822,-2.3921,-2.3942,-2.3985,-2.4034,-2.4036,-2.4001,-2.4095,-2.3704,-2.3206,-2.316,-2.2787,-2.2114,-2.2176,-2.1681,-2.1037,-2.0505,-2.0231,-2.0151,-2.0253,-2.0308,-2.0359,-2.0381,-2.0434,-2.0472,-2.0484,-2.0504,-2.0511,-2.0512,-2.0507,-2.0506,-2.0486,-2.0507,-2.0471,-2.0437,-2.0345,-2.0225,-2.0139,-2.0021,-1.9862,-1.9638,-1.9297,-1.8849,-1.8404,-1.7818,-1.691,-1.6251,-1.5701,-1.5196,-1.4738,-1.4214,-1.3702,-1.3316,-1.2943,-1.2478,-1.2102,-1.1785,-1.1474,-1.1099,-1.0738,-1.0457,-1.0123,-0.9779,-0.9324,-0.8596,-0.7828,-0.7013,-0.6004,-0.5394,-0.4996,-0.4743,-0.4567,-0.4441,-0.4223,-0.3968,-0.367,-0.341,-0.321,-0.3043,-0.2911,-0.2747,-0.2742,-0.2711,-0.2643,-0.2575,-0.2573,-0.254,-0.2507,-0.2474,-0.2441,-0.2441,-0.2408,-0.2376,-0.231,-0.2278,-0.2278,-0.2278,-0.2311,-0.2344,-0.2311,-0.2211,-0.2078,-0.1978,-0.1843,-0.1674,-0.1475,-0.1343,-0.1109,-0.0909,-0.0875,-0.0774,-2.3499,-2.3544,-2.3616,-2.3665,-2.3721,-2.3743,-2.3774,-2.3777,-2.3838,-2.3859,-2.388,-2.3885,-2.3848,-2.3772,-2.3709,-2.3428,-2.281,-2.2741,-2.2305,-2.1273,-2.0964,-2.0452,-2.0154,-2.0164,-2.0246,-2.0272,-2.0308,-2.0361,-2.0399,-2.0419,-2.0453,-2.0487,-2.0492,-2.0506,-2.0492,-2.0497,-2.0507,-2.0498,-2.0487,-2.0441,-2.0362,-2.0288,-2.0203,-2.0067,-1.9787,-1.9457,-1.912,-1.8824,-1.8375,-1.7737,-1.6962,-1.6254,-1.5694,-1.5226,-1.4683,-1.4084,-1.3608,-1.3179,-1.2697,-1.2294,-1.1895,-1.1527,-1.1105,-1.0731,-1.0351,-0.9976,-0.9545,-0.9031,-0.8353,-0.7498,-0.6495,-0.5708,-0.5196,-0.4856,-0.443,-0.4069,-0.3931,-0.3833,-0.3639,-0.334,-0.3105,-0.2873,-0.2674,-0.2608,-0.2543,-0.2509,-0.2442,-0.2441,-0.2408,-0.2374,-0.2343,-0.231,-0.2308,-0.2275,-0.2275,-0.2242,-0.2142,-0.2109,-0.2077,-0.2043,-0.2078,-0.2081,-0.2114,-0.2079,-0.2046,-0.1945,-0.1811,-0.1676,-0.1508,-0.1343,-0.1143,-0.0976,-0.0842,-0.0774,-0.0605,-2.3313,-2.336,-2.343,-2.3508,-2.3553,-2.3603,-2.3585,-2.3589,-2.3652,-2.3665,-2.3674,-2.366,-2.3738,-2.3852,-2.3843,-2.3624,-2.3369,-2.3052,-2.2618,-2.196,-2.1587,-2.0802,-2.009,-2.0259,-2.0478,-2.0238,-2.0217,-2.0272,-2.0305,-2.0346,-2.0375,-2.04,-2.0437,-2.0435,-2.0447,-2.0474,-2.0509,-2.0507,-2.0506,-2.0484,-2.0437,-2.041,-2.032,-2.019,-1.9935,-1.9665,-1.9439,-1.9175,-1.8833,-1.8369,-1.7729,-1.697,-1.6243,-1.5716,-1.5128,-1.4557,-1.4026,-1.3535,-1.3022,-1.2502,-1.2035,-1.159,-1.1132,-1.0692,-1.0273,-0.9853,-0.9337,-0.8816,-0.8138,-0.7352,-0.6188,-0.547,-0.5023,-0.4573,-0.4155,-0.3743,-0.3429,-0.3407,-0.3344,-0.301,-0.2775,-0.2542,-0.2376,-0.2276,-0.221,-0.2145,-0.2075,-0.2041,-0.2143,-0.211,-0.2111,-0.2111,-0.211,-0.211,-0.211,-0.2043,-0.1942,-0.1876,-0.1809,-0.1809,-0.1809,-0.1812,-0.1849,-0.1848,-0.1846,-0.1746,-0.1612,-0.1476,-0.1342,-0.121,-0.1043,-0.0875,-0.074,-0.0673,-0.0437,-2.3144,-2.3151,-2.3241,-2.3298,-2.3345,-2.3413,-2.3428,-2.3439,-2.3439,-2.3462,-2.3471,-2.348,-2.3544,-2.3634,-2.3647,-2.3685,-2.3602,-2.3304,-2.2913,-2.2849,-2.2293,-2.1655,-2.099,-2.1031,-2.0838,-2.0266,-2.0155,-2.0162,-2.0192,-2.0236,-2.0272,-2.0296,-2.0353,-2.0366,-2.0381,-2.0443,-2.0471,-2.0472,-2.049,-2.0507,-2.0485,-2.049,-2.0398,-2.0256,-2.0123,-1.9945,-1.9731,-1.9494,-1.9222,-1.8903,-1.852,-1.7803,-1.6995,-1.6216,-1.5672,-1.5068,-1.4519,-1.394,-1.3312,-1.2766,-1.2216,-1.1689,-1.1175,-1.0654,-1.0157,-0.9637,-0.9079,-0.8472,-0.7829,-0.7014,-0.602,-0.523,-0.4678,-0.4203,-0.3804,-0.3353,-0.2985,-0.2978,-0.2858,-0.2611,-0.2376,-0.2143,-0.1978,-0.1878,-0.1846,-0.1812,-0.171,-0.1674,-0.1777,-0.1845,-0.1878,-0.1878,-0.1909,-0.1879,-0.1846,-0.1847,-0.1747,-0.1611,-0.1542,-0.1542,-0.1509,-0.1511,-0.1548,-0.1647,-0.1613,-0.1512,-0.1412,-0.1244,-0.1143,-0.1044,-0.0943,-0.0774,-0.0639,-0.0538,-0.0269,-2.2893,-2.2961,-2.302,-2.3095,-2.3153,-2.3177,-2.3168,-2.3175,-2.3217,-2.3241,-2.3265,-2.3321,-2.336,-2.343,-2.3471,-2.3553,-2.3606,-2.3455,-2.3535,-2.3494,-2.3014,-2.2538,-2.2839,-2.1995,-2.1407,-2.0703,-2.034,-2.017,-2.0098,-2.0125,-2.0149,-2.0208,-2.0229,-2.0255,-2.0308,-2.0369,-2.0396,-2.0402,-2.0448,-2.0484,-2.0501,-2.0488,-2.0472,-2.0355,-2.0274,-2.0161,-2.0022,-1.9815,-1.9552,-1.9228,-1.8933,-1.8498,-1.786,-1.7028,-1.6319,-1.565,-1.5009,-1.4358,-1.3696,-1.3085,-1.2467,-1.1847,-1.125,-1.0616,-1.0035,-0.9315,-0.8667,-0.7886,-0.7059,-0.6189,-0.5508,-0.4803,-0.4293,-0.384,-0.3372,-0.283,-0.2504,-0.2347,-0.2283,-0.1982,-0.1793,-0.1676,-0.1543,-0.141,-0.1377,-0.1411,-0.1408,-0.1442,-0.1543,-0.161,-0.1643,-0.1642,-0.1674,-0.1612,-0.1581,-0.1582,-0.1549,-0.1346,-0.1278,-0.121,-0.1211,-0.1178,-0.1246,-0.1346,-0.1346,-0.1279,-0.1145,-0.101,-0.0943,-0.0875,-0.0774,-0.0673,-0.0538,-0.037,-0.0067,-2.2703,-2.2773,-2.2816,-2.2859,-2.2885,-2.2876,-2.2919,-2.2927,-2.2926,-2.2985,-2.3028,-2.3086,-2.3144,-2.3184,-2.3193,-2.3313,-2.3444,-2.3513,-2.3647,-2.3654,-2.3478,-2.3418,-2.386,-2.2813,-2.2029,-2.1392,-2.0988,-2.0451,-2.0008,-1.9939,-1.9991,-2.0041,-2.0078,-2.0122,-2.0172,-2.0229,-2.0259,-2.0288,-2.0361,-2.0427,-2.0461,-2.0464,-2.0468,-2.0447,-2.0392,-2.0298,-2.0195,-2.0048,-1.9852,-1.962,-1.9365,-1.9036,-1.8574,-1.7985,-1.7172,-1.6315,-1.5599,-1.4887,-1.4148,-1.3475,-1.2737,-1.1999,-1.1324,-1.0567,-0.9825,-0.9066,-0.817,-0.7133,-0.6292,-0.5402,-0.4824,-0.4266,-0.3724,-0.3261,-0.2866,-0.2381,-0.183,-0.1556,-0.1299,-0.1157,-0.1096,-0.1016,-0.0973,-0.0907,-0.0908,-0.0975,-0.104,-0.1141,-0.1209,-0.131,-0.1342,-0.1376,-0.1376,-0.1344,-0.1313,-0.1347,-0.1348,-0.1146,-0.101,-0.0943,-0.0943,-0.0943,-0.0976,-0.1043,-0.1043,-0.101,-0.0943,-0.0875,-0.0774,-0.0707,-0.0639,-0.0538,-0.0404,-0.0168,0.0134,-2.2525,-2.2542,-2.2587,-2.2605,-2.2605,-2.2614,-2.2667,-2.2694,-2.2686,-2.2721,-2.2842,-2.2868,-2.2885,-2.2936,-2.2986,-2.3061,-2.3241,-2.3313,-2.3421,-2.3567,-2.3567,-2.3599,-2.3463,-2.317,-2.2562,-2.189,-2.1798,-2.123,-2.0307,-2.0086,-1.996,-1.987,-1.9888,-1.9961,-2.0031,-2.005,-2.0085,-2.0152,-2.0224,-2.0292,-2.0371,-2.0448,-2.0497,-2.0508,-2.0451,-2.0386,-2.0328,-2.0234,-2.0094,-1.9926,-1.9738,-1.949,-1.9203,-1.8862,-1.815,-1.7099,-1.6315,-1.5513,-1.4734,-1.3842,-1.3082,-1.2264,-1.1356,-1.048,-0.9451,-0.8448,-0.7388,-0.6167,-0.531,-0.4615,-0.4047,-0.3693,-0.3111,-0.2493,-0.2207,-0.1878,-0.108,-0.0582,-0.019,-0.0147,-0.0281,-0.0274,-0.017,-0.0336,-0.0303,-0.037,-0.047,-0.0605,-0.0705,-0.0908,-0.0975,-0.1043,-0.1043,-0.1076,-0.1077,-0.1077,-0.1078,-0.0976,-0.0842,-0.074,-0.074,-0.074,-0.0774,-0.0808,-0.0808,-0.0774,-0.074,-0.074,-0.0639,-0.0605,-0.0538,-0.0404,-0.0134,0.0034,0.0269,-2.2257,-2.2257,-2.233,-2.233,-2.2358,-2.2358,-2.2377,-2.2451,-2.2497,-2.257,-2.2641,-2.2685,-2.2703,-2.2738,-2.2816,-2.2919,-2.302,-2.307,-2.3144,-2.3315,-2.3345,-2.335,-2.3388,-2.3508,-2.2964,-2.2413,-2.2344,-2.1671,-2.0839,-2.0591,-2.0233,-1.9837,-1.9684,-1.9692,-1.9826,-1.9843,-1.9911,-2.0021,-2.0098,-2.0192,-2.0302,-2.0366,-2.0418,-2.0468,-2.0491,-2.0468,-2.0428,-2.0367,-2.0284,-2.015,-2.0079,-1.9887,-1.9649,-1.9374,-1.8966,-1.8185,-1.7246,-1.6146,-1.5338,-1.4366,-1.3377,-1.2431,-1.1361,-1.0302,-0.8863,-0.7397,-0.6115,-0.5123,-0.4434,-0.3823,-0.33,-0.2994,-0.245,-0.1774,-0.1185,-0.0776,-0.0125,0.0605,0.095,0.1156,0.1148,0.085,0.0724,0.0476,0.0269,0.0202,0.0101,-0.0034,-0.0202,-0.037,-0.0572,-0.0639,-0.0707,-0.0707,-0.074,-0.0774,-0.0774,-0.0774,-0.0673,-0.0572,-0.0572,-0.0572,-0.0538,-0.0572,-0.0572,-0.0639,-0.0673,-0.0639,-0.0538,-0.0471,-0.0437,-0.0168,0.0168,0.0303,0.037,-2.1797,-2.1991,-2.2011,-2.202,-2.202,-2.2011,-2.2077,-2.2175,-2.2223,-2.2287,-2.2432,-2.2523,-2.2569,-2.2587,-2.2659,-2.2703,-2.2782,-2.2816,-2.2928,-2.3038,-2.307,-2.3074,-2.3132,-2.3257,-2.3073,-2.2944,-2.2798,-2.2428,-2.1581,-2.0752,-2.0204,-1.9991,-1.9592,-1.9448,-1.9592,-1.9617,-1.9688,-1.9786,-1.9909,-2.005,-2.0164,-2.0246,-2.0313,-2.0376,-2.0425,-2.0435,-2.0427,-2.0457,-2.0408,-2.0311,-2.0269,-2.0183,-1.9986,-1.9791,-1.95,-1.9108,-1.836,-1.7264,-1.6018,-1.4933,-1.3762,-1.2477,-1.1148,-0.9545,-0.7732,-0.6123,-0.4901,-0.3988,-0.3651,-0.3124,-0.2456,-0.2058,-0.1431,-0.076,-0.0179,0.0354,0.0909,0.1648,0.2181,0.2367,0.2538,0.225,0.1902,0.1601,0.1268,0.0948,0.081,0.0639,0.0437,0.0202,-0.0,-0.0202,-0.0269,-0.0336,-0.037,-0.0437,-0.0471,-0.0471,-0.0473,-0.0405,-0.0404,-0.037,-0.0376,-0.0408,-0.0473,-0.054,-0.0574,-0.0538,-0.0437,-0.0404,-0.0336,-0.0034,0.0235,0.0269,0.0404,-2.134,-2.154,-2.1639,-2.167,-2.1661,-2.1708,-2.1781,-2.189,-2.192,-2.2032,-2.2163,-2.2257,-2.2332,-2.2415,-2.247,-2.2489,-2.2569,-2.2623,-2.2694,-2.2764,-2.2808,-2.2816,-2.2857,-2.2968,-2.3052,-2.3061,-2.2988,-2.2678,-2.2053,-2.1226,-2.0546,-2.0192,-1.9701,-1.9392,-1.9338,-1.9387,-1.9456,-1.9568,-1.9704,-1.9855,-1.9971,-2.0069,-2.0145,-2.0226,-2.0288,-2.0347,-2.0357,-2.0406,-2.0396,-2.0389,-2.0375,-2.0312,-2.0221,-2.0372,-2.0339,-2.0116,-1.9748,-1.9162,-1.7549,-1.6006,-1.4159,-1.2409,-1.0464,-0.8363,-0.5826,-0.4576,-0.3669,-0.2752,-0.2406,-0.2057,-0.1612,-0.0984,-0.0447,0.0223,0.0849,0.1383,0.1909,0.2557,0.3157,0.3406,0.3567,0.3749,0.3358,0.2864,0.2354,0.1821,0.1529,0.1352,0.1083,0.0816,0.0542,0.0339,0.0237,0.0169,0.0034,-0.0034,-0.0101,-0.017,-0.0171,-0.0241,-0.0208,-0.0212,-0.0216,-0.0284,-0.0382,-0.046,-0.0545,-0.0454,-0.037,-0.0269,-0.0134,0.0034,0.0202,0.027,0.0406,-2.086,-2.0885,-2.1214,-2.134,-2.1332,-2.1386,-2.1487,-2.1625,-2.1678,-2.1768,-2.1865,-2.1928,-2.2061,-2.2175,-2.224,-2.2304,-2.2405,-2.2413,-2.2487,-2.2542,-2.2587,-2.258,-2.2599,-2.2634,-2.2721,-2.2721,-2.2712,-2.2669,-2.2453,-2.1751,-2.0824,-1.9954,-1.9916,-1.9487,-1.9173,-1.9095,-1.9226,-1.9344,-1.9467,-1.9585,-1.9723,-1.9821,-1.9931,-2.0012,-2.0085,-2.0154,-2.0215,-2.0366,-2.0486,-2.0515,-2.0687,-2.073,-2.0858,-2.1177,-2.127,-2.1162,-2.1288,-2.0786,-1.9605,-1.7069,-1.4155,-1.2053,-0.9374,-0.6375,-0.3835,-0.2949,-0.217,-0.1376,-0.0979,-0.067,-0.0268,0.0089,0.0671,0.1207,0.1876,0.2317,0.2847,0.337,0.3897,0.4328,0.4632,0.4867,0.4871,0.4404,0.3581,0.2993,0.2371,0.2181,0.1745,0.1432,0.114,0.0928,0.0821,0.0682,0.0476,0.0377,0.0246,0.0178,0.0108,0.0036,-0.0073,-0.0037,-0.0075,-0.0151,-0.0224,-0.0381,-0.046,-0.0294,-0.0176,-0.0068,0.0034,0.014,0.0281,0.0387,0.0524,-2.062,-2.062,-2.0753,-2.0917,-2.1071,-2.1095,-2.1175,-2.1333,-2.1388,-2.1503,-2.1664,-2.1738,-2.1848,-2.1936,-2.1986,-2.2052,-2.211,-2.2138,-2.2229,-2.2338,-2.2349,-2.2281,-2.2275,-2.2284,-2.2337,-2.2318,-2.2326,-2.2271,-2.2177,-2.1919,-2.1385,-2.0701,-2.0359,-1.9549,-1.9112,-1.8921,-1.9048,-1.9148,-1.9239,-1.932,-1.9405,-1.9526,-1.9613,-1.9691,-1.9817,-1.9876,-2.0021,-2.058,-2.0804,-2.1052,-2.1435,-2.1571,-2.1636,-2.2052,-2.2118,-2.1977,-2.2158,-2.1762,-2.0804,-1.8111,-1.4648,-0.8067,-0.5293,-0.3145,-0.1128,-0.0437,0.0044,0.0442,0.0621,0.0844,0.0847,0.1339,0.1967,0.2417,0.2861,0.3296,0.382,0.4345,0.4899,0.5426,0.58,0.6068,0.6025,0.5967,0.5044,0.4169,0.3535,0.2963,0.2578,0.2173,0.1909,0.162,0.1509,0.1193,0.0976,0.0767,0.0591,0.0483,0.0412,0.0265,0.0153,-0.0,-0.0039,-0.0078,-0.0,-0.0,-0.0,-0.0,-0.0,-0.0,-0.0,0.0112,0.0261,0.0477,0.0656,-2.0357,-2.0365,-2.0357,-2.052,-2.0771,-2.0811,-2.0933,-2.1046,-2.1095,-2.123,-2.1466,-2.155,-2.1587,-2.167,-2.1721,-2.1802,-2.1848,-2.1932,-2.2061,-2.2128,-2.2123,-2.2002,-2.196,-2.1968,-2.2019,-2.1969,-2.194,-2.192,-2.1874,-2.1845,-2.1499,-2.1119,-2.0829,-2.0108,-1.9337,-1.8993,-1.9167,-1.9356,-1.9344,-1.9534,-1.9703,-1.9911,-2.0008,-2.0096,-2.0244,-2.0341,-2.0557,-2.0998,-2.1306,-2.1568,-2.1931,-2.2345,-2.2526,-2.2658,-2.2704,-2.256,-2.2315,-2.1884,-2.0254,-1.6574,-1.1603,-0.3723,-0.0813,0.0905,0.2118,0.3011,0.3976,0.2878,0.2675,0.2382,0.2435,0.2796,0.3071,0.3431,0.3647,0.4081,0.4776,0.5384,0.5979,0.6564,0.6855,0.7096,0.7124,0.7003,0.6129,0.5188,0.4448,0.3919,0.3518,0.3177,0.2854,0.255,0.2254,0.1849,0.1477,0.1349,0.1148,0.0847,0.074,0.0518,0.0361,0.0201,-0.0,-0.0,-0.0,-0.0,-0.0,-0.0,-0.0,-0.0,-0.0,-0.0,0.0309,0.0495,0.0692,-2.0041,-2.0033,-2.008,-2.0273,-2.0494,-2.0652,-2.0726,-2.0752,-2.086,-2.1023,-2.1183,-2.1199,-2.1285,-2.1386,-2.144,-2.1518,-2.1656,-2.1749,-2.1859,-2.1927,-2.1839,-2.1748,-2.1685,-2.1685,-2.1713,-2.1716,-2.1648,-2.1554,-2.1515,-2.1485,-2.1387,-2.1379,-2.1138,-2.081,-1.9984,-1.9744,-1.9951,-2.031,-2.0066,-2.0406,-2.0477,-2.0639,-2.0686,-2.071,-2.0769,-2.0816,-2.0967,-2.1386,-2.1639,-2.1798,-2.2124,-2.237,-2.2384,-2.2839,-2.2857,-2.2526,-2.2482,-2.1092,-1.8167,-1.1697,-0.4436,0.2175,0.5231,0.5675,0.6764,0.7641,0.7755,0.6246,0.5416,0.4888,0.4608,0.4316,0.4413,0.447,0.4728,0.5072,0.5765,0.6404,0.7036,0.7536,0.7799,0.8013,0.8095,0.7914,0.7097,0.6217,0.5375,0.485,0.4565,0.4224,0.3901,0.3515,0.3162,0.2679,0.2278,0.1956,0.1704,0.1356,0.1054,0.0831,0.0593,0.0342,-0.0,-0.0,-0.0,-0.0,-0.0,-0.0,-0.0,-0.0,-0.0,-0.0,-0.0,0.0558,0.0729,-1.9998,-1.9998,-2.0025,-2.0103,-2.02,-2.0423,-2.0517,-2.061,-2.0703,-2.081,-2.0884,-2.0974,-2.1023,-2.1095,-2.1206,-2.1294,-2.1356,-2.1458,-2.1569,-2.1681,-2.1552,-2.1385,-2.1336,-2.1337,-2.1379,-2.1348,-2.1269,-2.119,-2.1087,-2.1087,-2.1031,-2.1031,-2.1062,-2.0872,-2.0406,-2.0126,-2.0027,-2.0312,-2.0722,-2.1123,-2.0567,-2.0631,-2.0699,-2.0704,-2.0815,-2.0903,-2.1042,-2.1542,-2.1891,-2.2014,-2.2352,-2.2672,-2.2633,-2.2998,-2.2626,-2.1942,-2.1311,-1.6491,-1.0043,-0.2578,0.3654,0.8639,1.104,1.0994,1.174,1.1576,1.0823,0.9616,0.8584,0.7873,0.6917,0.6283,0.6133,0.5911,0.6047,0.6307,0.6865,0.745,0.7994,0.8444,0.8784,0.8981,0.9102,0.8986,0.8277,0.7696,0.6955,0.6233,0.5818,0.5383,0.501,0.459,0.4168,0.3598,0.3149,0.2759,0.2298,0.186,0.15,0.1178,0.0887,0.0579,-0.0,-0.0,-0.0,-0.0,-0.0,-0.0,-0.0,-0.0,-0.0,-0.0,-0.0,0.0427,0.0737,-1.9919,-1.9884,-1.9919,-1.9919,-1.997,-2.0181,-2.0296,-2.0392,-2.0501,-2.0543,-2.0618,-2.072,-2.0786,-2.086,-2.0941,-2.1046,-2.1071,-2.1095,-2.1239,-2.1384,-2.1143,-2.0999,-2.0943,-2.0999,-2.1023,-2.1006,-2.0901,-2.0811,-2.0771,-2.0687,-2.0662,-2.0662,-2.0679,-2.0639,-2.0509,-2.0475,-2.06,-2.0838,-2.1196,-2.1364,-2.0981,-2.089,-2.0892,-2.0926,-2.096,-2.0994,-2.118,-2.157,-2.208,-2.2293,-2.2575,-2.2887,-2.2713,-2.2418,-2.1922,-2.0965,-1.7232,-1.1646,-0.3729,0.2642,0.8717,1.558,1.6279,1.6231,1.6,1.5534,1.45,1.3328,1.2082,1.0807,0.965,0.8898,0.801,0.7795,0.7602,0.7859,0.8082,0.8662,0.9036,0.9451,0.9728,0.9889,1.0011,0.9864,0.9532,0.9037,0.8573,0.7818,0.7078,0.6534,0.6073,0.5631,0.5113,0.455,0.402,0.3502,0.3032,0.2454,0.2014,0.1567,0.1165,0.0805,0.0538,-0.0,-0.0,-0.0,-0.0,-0.0,-0.0,-0.0,-0.0,-0.0,-0.0,0.027,0.0674,-1.9682,-1.9718,-1.9777,-1.9777,-1.9805,-1.9942,-2.0041,-2.01,-2.0227,-2.0312,-2.0381,-2.046,-2.0527,-2.0652,-2.0685,-2.0711,-2.0769,-2.0786,-2.0923,-2.0963,-2.0819,-2.0651,-2.0594,-2.0682,-2.0728,-2.0718,-2.0644,-2.0561,-2.0486,-2.0399,-2.0339,-2.0304,-2.0323,-2.0335,-2.0457,-2.0663,-2.0939,-2.1012,-2.1038,-2.1215,-2.1121,-2.1256,-2.1187,-2.1162,-2.1213,-2.1259,-2.1396,-2.164,-2.1989,-2.213,-2.215,-2.1873,-2.1616,-2.1303,-2.0535,-1.8151,-1.3561,-0.7181,-0.0888,0.4795,1.0865,1.663,1.8977,1.9609,1.9678,1.8907,1.7966,1.6776,1.5491,1.4153,1.2893,1.1556,1.0231,0.9854,0.9373,0.9444,0.9511,0.9851,1.0138,1.0422,1.0657,1.0814,1.0857,1.0748,1.0552,1.0205,0.9679,0.9116,0.8338,0.7529,0.7033,0.6579,0.611,0.5526,0.4961,0.4303,0.3603,0.299,0.2372,0.1926,0.1479,0.1076,0.0808,0.0539,0.0225,-0.0,-0.0,-0.0,-0.0,-0.0,-0.0,-0.0,-0.0,-0.0,0.0539,-1.9494,-1.9487,-1.9516,-1.9531,-1.9531,-1.9722,-1.9867,-2.0041,-2.0038,-2.0038,-2.0119,-2.0177,-2.0254,-2.0289,-2.0373,-2.0441,-2.0475,-2.0517,-2.0585,-2.0577,-2.0561,-2.0359,-2.0309,-2.0398,-2.046,-2.0407,-2.0331,-2.0262,-2.0185,-2.0096,-1.999,-1.9947,-1.994,-1.9917,-2.0007,-2.0139,-2.0447,-2.069,-2.0661,-2.0838,-2.0934,-2.0942,-2.0902,-2.0886,-2.0838,-2.0838,-2.0862,-2.0951,-2.1247,-2.1488,-2.1143,-2.067,-1.9851,-1.9607,-1.8804,-1.5387,-1.1142,-0.6441,-0.1078,0.4619,1.0234,1.5164,1.8048,2.0632,2.1333,2.14,2.0758,1.9697,1.8586,1.726,1.5736,1.4297,1.2937,1.2106,1.1565,1.1176,1.122,1.1206,1.1496,1.1524,1.176,1.1766,1.1813,1.1678,1.1446,1.1164,1.0786,1.0225,0.9556,0.871,0.7986,0.754,0.6959,0.6374,0.5615,0.4961,0.422,0.3563,0.2903,0.2239,0.1748,0.1346,0.1033,0.0674,0.027,-0.0,-0.0,-0.0,-0.0,-0.0,-0.0,-0.0,-0.0,-0.0,0.045,-1.9428,-1.9428,-1.9428,-1.9428,-1.9435,-1.9524,-1.9656,-1.9741,-1.9826,-1.9861,-1.9919,-2.0018,-2.0053,-2.008,-2.0166,-2.0216,-2.025,-2.0243,-2.03,-2.0416,-2.0346,-2.0181,-2.0131,-2.0112,-2.0108,-2.008,-2.001,-1.9975,-1.9927,-1.9777,-1.9625,-1.9581,-1.9508,-1.9508,-1.9515,-1.9544,-1.9637,-1.9849,-1.9986,-2.0181,-2.0246,-2.0216,-2.0139,-2.0089,-2.0047,-1.9977,-1.9977,-2.0039,-2.0292,-2.0577,-2.0157,-1.9304,-1.844,-1.7929,-1.6688,-1.3484,-1.0311,-0.6582,-0.211,0.2787,0.7883,1.2133,1.5647,1.8246,2.0605,2.1482,2.1929,2.1905,2.1167,2.0217,1.8643,1.7107,1.5751,1.448,1.3733,1.2992,1.2846,1.2742,1.2751,1.2747,1.2765,1.2806,1.2748,1.2579,1.2372,1.2073,1.1746,1.1335,1.0614,0.9771,0.8969,0.8366,0.7747,0.7123,0.6368,0.5526,0.4746,0.3959,0.3167,0.2547,0.2015,0.148,0.1077,0.0674,0.027,-0.0,-0.0,-0.0,-0.0,-0.0,-0.0,-0.0,-0.0,-0.0,0.0315,-1.9332,-1.9347,-1.9332,-1.9347,-1.9347,-1.9354,-1.9398,-1.9369,-1.9537,-1.9682,-1.9769,-1.9891,-1.9927,-1.9876,-1.9927,-1.9927,-1.997,-1.997,-2.0086,-2.0228,-2.0071,-1.9932,-1.9882,-1.9841,-1.9833,-1.9762,-1.9712,-1.9692,-1.9708,-1.9619,-1.9536,-1.9345,-1.9384,-1.9404,-1.931,-1.9288,-1.9254,-1.9036,-1.9244,-1.9404,-1.9543,-1.9464,-1.9288,-1.9273,-1.9162,-1.9088,-1.9095,-1.9183,-1.9315,-1.9373,-1.9029,-1.8124,-1.7223,-1.6273,-1.4654,-1.2698,-0.9973,-0.708,-0.3506,0.0839,0.4758,0.8654,1.199,1.4884,1.7446,2.0877,2.1928,2.278,2.2093,2.1771,2.049,1.9183,1.7881,1.6646,1.5676,1.4927,1.4449,1.4242,1.4019,1.3989,1.3886,1.3906,1.3736,1.3557,1.3302,1.3007,1.2672,1.2283,1.1667,1.0814,1.0016,0.9257,0.8488,0.7788,0.692,0.6076,0.5181,0.4397,0.3473,0.2681,0.2016,0.1524,0.1076,0.0628,-0.0,-0.0,-0.0,-0.0,-0.0,-0.0,-0.0,-0.0,-0.0,-0.0,0.0225,-1.8943,-1.8936,-1.8943,-1.8943,-1.895,-1.9105,-1.915,-1.9093,-1.9035,-1.9184,-1.9435,-1.9531,-1.9567,-1.9552,-1.956,-1.9596,-1.9691,-1.9691,-1.9852,-1.991,-1.9865,-1.9639,-1.9595,-1.9581,-1.9552,-1.945,-1.9428,-1.9463,-1.9631,-1.9649,-1.9788,-2.0023,-1.9912,-1.968,-1.9341,-1.9313,-1.9077,-1.8649,-1.8604,-1.8758,-1.8895,-1.8743,-1.8525,-1.8394,-1.827,-1.8173,-1.8133,-1.8108,-1.8285,-1.841,-1.7848,-1.7075,-1.6181,-1.5256,-1.4016,-1.2271,-1.0132,-0.7654,-0.4965,-0.1396,0.2279,0.5528,0.8735,1.1454,1.4707,1.8848,2.1476,2.2328,2.2934,2.2693,2.2319,2.1082,1.9941,1.8744,1.7582,1.6835,1.6082,1.5674,1.5351,1.5191,1.5094,1.4936,1.4767,1.4502,1.423,1.3907,1.3523,1.3117,1.2631,1.1905,1.1003,1.0181,0.9217,0.8444,0.7498,0.6456,0.5521,0.4524,0.3559,0.2811,0.2061,0.148,0.0943,0.0539,-0.0,-0.0,-0.0,-0.0,-0.0,-0.0,-0.0,-0.0,-0.0,-0.0,-0.0,-1.869,-1.8637,-1.8659,-1.8683,-1.8711,-1.8881,-1.8919,-1.8795,-1.8686,-1.8838,-1.9078,-1.9235,-1.9265,-1.9258,-1.9258,-1.9302,-1.9391,-1.9384,-1.9524,-1.9619,-1.9524,-1.9317,-1.9273,-1.9273,-1.9176,-1.9116,-1.8948,-1.9031,-1.9482,-1.9411,-1.9496,-2.0045,-2.0041,-1.9837,-1.9429,-1.9338,-1.9159,-1.8669,-1.8399,-1.8378,-1.8431,-1.8118,-1.7794,-1.7598,-1.7455,-1.733,-1.7214,-1.7179,-1.7339,-1.7067,-1.6372,-1.5724,-1.497,-1.4354,-1.3301,-1.1917,-1.0191,-0.844,-0.6216,-0.3424,-0.0054,0.2943,0.5459,0.8197,1.0655,1.4575,1.8099,1.9269,2.1823,2.2032,2.2646,2.1912,2.1294,2.0336,1.9295,1.8401,1.7581,1.6916,1.6629,1.6432,1.6273,1.6088,1.5897,1.564,1.5352,1.4964,1.4558,1.4088,1.3551,1.2932,1.2039,1.1025,1.006,0.8928,0.7841,0.6748,0.5688,0.4689,0.3602,0.2676,0.1836,0.1302,0.0809,0.0494,-0.0,-0.0,-0.0,-0.0,-0.0,-0.0,-0.0,-0.0,-0.0,-0.0,-0.0,-1.84,-1.8439,-1.8432,-1.8432,-1.8446,-1.8623,-1.8616,-1.8439,-1.8401,-1.8486,-1.862,-1.8882,-1.8995,-1.9071,-1.9071,-1.9071,-1.9071,-1.9078,-1.9219,-1.924,-1.9121,-1.8907,-1.8841,-1.8831,-1.8738,-1.8592,-1.8404,-1.8767,-1.9223,-1.9164,-1.9266,-1.9649,-1.9701,-1.9565,-1.9414,-1.9336,-1.9184,-1.8767,-1.8526,-1.8373,-1.8054,-1.7644,-1.7411,-1.7125,-1.6834,-1.6673,-1.6548,-1.6491,-1.6622,-1.6041,-1.532,-1.4763,-1.4307,-1.3821,-1.2865,-1.1659,-1.0446,-0.893,-0.7199,-0.4824,-0.213,0.0327,0.2558,0.49,0.7394,1.0217,1.3723,1.6413,1.8985,2.126,2.1868,2.2361,2.1794,2.1434,2.0427,1.961,1.8761,1.8026,1.7804,1.7574,1.7409,1.7198,1.6946,1.67,1.6397,1.6025,1.5599,1.5101,1.4537,1.3795,1.2986,1.186,1.0768,0.9603,0.8236,0.6952,0.5725,0.4602,0.3514,0.2497,0.1566,0.0942,0.0539,0.0494,-0.0,-0.0,-0.0,-0.0,-0.0,-0.0,-0.0,-0.0,-0.0,-0.0,-0.0,-1.8003,-1.8003,-1.7989,-1.8003,-1.805,-1.8219,-1.8212,-1.8029,-1.8001,-1.8047,-1.8168,-1.8307,-1.8528,-1.886,-1.886,-1.8829,-1.8805,-1.8767,-1.8803,-1.8884,-1.8725,-1.8532,-1.8405,-1.8355,-1.8226,-1.8035,-1.799,-1.8331,-1.8788,-1.892,-1.935,-2.0093,-2.0057,-1.9771,-1.9345,-1.9252,-1.9073,-1.871,-1.8361,-1.8127,-1.7902,-1.762,-1.7552,-1.7318,-1.7075,-1.6985,-1.6793,-1.6588,-1.633,-1.574,-1.4917,-1.4393,-1.3971,-1.3588,-1.2741,-1.1748,-1.055,-0.9283,-0.7566,-0.5794,-0.3511,-0.1816,0.0328,0.2134,0.4403,0.6467,0.9442,1.1712,1.4573,1.8295,1.9543,2.0519,2.0461,2.0634,2.0118,1.9706,1.9088,1.8836,1.8674,1.8517,1.8368,1.8143,1.7927,1.7671,1.7401,1.7033,1.6642,1.6129,1.56,1.4783,1.3975,1.2758,1.153,0.9882,0.8367,0.6932,0.5671,0.4552,0.3334,0.2052,0.1075,0.0494,0.018,0.0045,0.009,-0.0,-0.0,-0.0,-0.0,-0.0,-0.0,-0.0,-0.0,-0.0,-0.0]},{"header":{"parameterUnit":"m.s-1","parameterCategory":1,"la1":31.0,"la2":29.5877,"lo1":-88.7671,"lo2":-86.6584,"dy":0.0162,"dx":0.0185,"nx":115,"ny":88,"refTime":"2023-05-05T06:00:00:Z","depth":0,"parameterNumber":3,"parameterNumberName":"V-component_of_WINDS"},"data":[0.0,0.0,0.0,0.0,0.0,0.0,0.0,0.0,0.0,0.0,0.0,0.0,0.0,0.0,0.0,0.0,0.0,0.0,0.0,0.0,0.0,0.0,0.0,0.0,0.0,0.0,0.0,0.0,0.0,0.0,0.0,0.0,0.0,0.0,0.0,0.0,0.0,0.0,0.0,0.0,0.0,0.0,0.0,0.0,0.0,0.0,0.0,0.0,0.0,0.0,0.0,0.0,0.0,0.0,0.0,0.0,0.0,0.0,0.0,0.0,0.0,0.0,0.0,0.0,0.0,0.0,0.0,0.0,0.0,0.0,0.0,0.0,0.0,0.0,0.0,0.0,0.0,0.0,0.0,0.0,0.0,0.0,0.0,0.0,0.0,0.0,0.0,0.0,0.0,0.0,0.0,0.0,0.0,0.0,0.0,0.0,0.0,0.0,0.0,0.0,0.0,0.0,0.0,0.0,0.0,0.0,0.0,0.0,0.0,0.0,0.0,0.0,0.0,0.0,0.0,0.0,0.0,0.0,0.0,0.0,0.0,0.0,0.0,0.0,0.0,0.0,0.0,0.0,0.0,0.0,0.0,0.0,0.0,0.0,0.0,0.0,0.0,0.0,0.0,0.0,0.0,0.0,0.0,0.0,0.0,0.0,0.0,0.0,0.0,0.0,0.0,0.0,0.0,0.0,0.0,0.0,0.0,0.0,0.0,0.0,0.0,0.0,0.0,0.0,0.0,0.0,0.0,0.0,0.0,0.0,0.0,0.0,0.0,0.0,0.0,0.0,0.0,0.0,0.0,0.0,0.0,0.0,0.0,0.0,0.0,0.0,0.0,0.0,0.0,0.0,0.0,0.0,0.0,0.0,0.0,0.0,0.0,0.0,0.0,0.0,0.0,0.0,0.0,0.0,0.0,0.0,0.0,0.0,0.0,0.0,0.0,0.0,0.0,0.0,0.0,0.0,0.0,0.0,0.0,0.0,0.0,0.0,0.0,0.0,0.0,0.0,0.0,0.0,0.0,0.0,0.0,0.0,0.0,0.0,0.0,0.0,0.0,0.0,0.0,0.0,0.0,0.0,0.0,0.0,0.0,0.0,0.0,0.0,0.0,0.0,0.0,0.0,0.0,0.0,0.0,0.0,0.0,0.0,0.0,0.0,0.0,0.0,0.0,0.0,0.0,0.0,0.0,0.0,0.0,0.0,0.0,0.0,0.0,0.0,0.0,0.0,0.0,0.0,0.0,0.0,0.0,0.0,0.0,0.0,0.0,0.0,0.0,0.0,0.0,0.0,0.0,0.0,0.0,0.0,0.0,0.0,0.0,0.0,0.0,0.0,0.0,0.0,0.0,0.0,0.0,0.0,0.0,0.0,0.0,0.0,0.0,0.0,0.0,0.0,0.0,0.0,0.0,0.0,0.0,0.0,0.0,0.0,0.0,0.0,0.0,0.0,0.0,0.0,0.0,0.0,0.0,0.0,0.0,0.0,0.0,0.0,0.0,0.0,0.0,0.0,0.0,0.0,0.0,0.0,0.0,0.0,0.0,0.0,0.0,0.0,0.0,0.0,0.0,0.0,0.0,0.0,0.0,0.0,0.0,0.0,0.0,0.0,0.0,0.0,0.0,0.0,0.0,0.0,0.0,0.0,0.0,0.0,0.0,0.0,0.0,0.0,0.0,0.0,0.0,0.0,0.0,0.0,0.0,0.0,0.0,0.0,0.0,0.0,0.0,0.0,0.0,0.0,0.0,0.0,0.0,0.0,0.0,0.0,0.0,0.0,0.0,0.0,0.0,0.0,0.0,0.0,0.0,0.0,0.0,0.0,0.0,0.0,0.0,0.0,0.0,0.0,0.0,0.0,0.0,0.0,0.0,0.0,0.0,0.0,0.0,0.0,0.0,0.0,0.0,0.0,0.0,0.0,0.0,0.0,0.0,0.0,0.0,0.0,0.0,0.0,0.0,0.0,0.0,0.0,0.0,0.0,0.0,0.0,0.0,0.0,0.0,0.0,0.0,0.0,0.0,0.0,0.0,0.0,0.0,0.0,0.0,0.0,0.0,0.0,0.0,0.0,0.0,0.0,0.0,0.0,0.0,0.0,0.0,0.0,0.0,0.0,0.0,0.0,0.0,0.0,0.0,0.0,0.0,0.0,0.0,0.0,0.0,0.0,0.0,0.0,0.0,0.0,0.0,0.0,0.0,0.0,0.0,0.0,0.0,0.0,0.0,0.0,0.0,0.0,0.0,0.0,0.0,0.0,0.0,0.0,0.0,0.0,0.0,0.0,0.0,0.0,0.0,0.0,0.0,0.0,0.0,0.0,0.0,0.0,0.0,0.0,0.0,0.0,0.0,0.0,0.0,0.0,0.0,0.0,0.0,0.0,0.0,0.0,0.0,0.0,0.0,0.0,0.0,0.0,0.0,0.0,0.0,0.0,0.0,0.0,0.0,0.0,0.0,0.0,0.0,0.0,0.0,0.0,0.0,0.0,0.0,0.0,0.0,0.0,0.0,0.0,0.0,0.0,0.0,0.0,0.0,0.0,0.0,0.0,0.0,0.0,0.0,0.0,0.0,0.0,0.0,0.0,0.0,0.0,0.0,0.0,0.0,0.0,0.0,0.0,0.0,0.0,0.0,0.0,0.0,0.0,0.0,0.0,0.0,0.0,0.0,0.0,0.0,0.0,0.0,0.0,0.0,0.0,0.0,0.0,0.0,0.0,0.0,0.0,0.0,0.0,0.0,0.0,0.0,0.0,0.0,0.0,0.0,0.0,0.0,0.0,0.0,0.0,0.0,0.0,0.0,0.0,0.0,0.0,0.0,0.0,0.0,0.0,0.0,0.0,0.0,0.0,0.0,0.0,0.0,0.0,0.0,0.0,0.0,0.0,0.0,0.0,0.0,0.0,0.0,0.0,0.0,0.0,0.0,0.0,0.0,0.0,0.0,0.0,0.0,0.0,0.0,0.0,0.0,0.0,0.0,0.0,0.0,0.0,0.0,0.0,0.0,0.0,0.0,0.0,0.0,0.0,0.0,0.0,0.0,0.0,0.0,0.0,0.0,0.0,0.0,0.0,0.0,0.0,0.0,0.0,0.0,0.0,0.0,0.0,0.0,0.0,0.0,0.0,0.0,0.0,0.0,0.0,0.0,0.0,0.0,0.0,0.0,0.0,0.0,0.0,0.0,0.0,0.0,0.0,0.0,0.0,0.0,0.0,0.0,0.0,0.0,0.0,0.0,0.0,0.0,0.0,0.0,0.0,0.0,0.0,0.0,0.0,0.0,0.0,0.0,0.0,0.0,0.0,0.0,0.0,0.0,0.0,0.0,0.0,0.0,0.0,0.0,0.0,0.0,0.0,0.0,0.0,0.0,0.0,0.0,0.0,0.0,0.0,0.0,0.0,0.0,0.0,0.0,0.0,0.0,0.0,0.0,0.0,0.0,0.0,0.0,0.0,0.0,0.0,0.0,0.0,0.0,0.0,0.0,0.0,0.0,0.0,0.0,0.0,0.0,0.0,0.0,0.0,0.0,0.0,0.0,0.0,0.0,0.0,0.0,0.0,0.0,0.0,0.0,0.0,0.0,0.0,0.0,0.0,0.0,0.0,0.0,0.0,0.0,0.0,0.0,0.0,0.0,0.0,0.0,0.0,0.0,0.0,0.0,0.0,0.0,0.0,0.0,0.0,0.0,0.0,0.0,0.0,0.0,0.0,0.0,0.0,0.0,0.0,0.0,0.0,0.0,0.0,0.0,0.0,0.0,0.0,0.0,0.0,0.0,0.0,0.0,0.0,0.0,0.0,0.0,0.0,0.0,0.0,0.0,0.0,0.0,0.0,0.0,0.0,0.0,0.0,0.0,0.0,0.0,0.0,0.0,0.0,0.0,0.0,0.0,0.0,0.0,0.0,0.0,0.0,0.0,0.0,0.0,0.0,0.0,0.0,0.0,0.0,0.0,0.0,0.0,0.0,0.0,0.0,0.0,0.0,0.0,0.0,0.0,0.0,0.0,0.0,0.0,0.0,0.0,0.0,0.0,0.0,0.0,0.0,0.0,0.0,0.0,0.0,0.0,0.0,0.0,0.0,0.0,0.0,0.0,0.0,0.0,0.0,0.0,0.0,0.0,0.0,0.0,0.0,0.0,0.0,0.0,0.0,0.0,0.0,0.0,0.0,0.0,0.0,0.0,0.0,0.0,0.0,0.0,0.0,0.0,0.0,0.0,0.0,0.0,0.0,0.0,0.0,0.0,0.0,0.0,0.0,0.0,0.0,0.0,0.0,0.0,0.0,-2.5402,0.0,0.0,0.0,0.0,0.0,0.0,0.0,0.0,0.0,0.0,0.0,0.0,0.0,0.0,0.0,0.0,0.0,0.0,0.0,0.0,0.0,0.0,0.0,0.0,0.0,0.0,0.0,0.0,0.0,0.0,0.0,0.0,0.0,0.0,0.0,0.0,0.0,0.0,0.0,0.0,0.0,0.0,0.0,0.0,0.0,0.0,0.0,0.0,0.0,0.0,0.0,0.0,0.0,0.0,0.0,0.0,0.0,0.0,0.0,0.0,0.0,0.0,0.0,0.0,0.0,0.0,0.0,0.0,0.0,0.0,0.0,0.0,0.0,0.0,0.0,0.0,0.0,0.0,0.0,0.0,0.0,0.0,0.0,0.0,0.0,0.0,0.0,0.0,0.0,0.0,0.0,0.0,0.0,0.0,0.0,0.0,0.0,0.0,0.0,0.0,0.0,0.0,0.0,0.0,0.0,0.0,0.0,0.0,0.0,0.0,-2.5087,-2.5168,-2.5287,-2.5367,-2.5405,0.0,0.0,0.0,0.0,0.0,0.0,0.0,0.0,0.0,0.0,0.0,0.0,0.0,0.0,0.0,0.0,0.0,0.0,0.0,0.0,0.0,0.0,0.0,0.0,0.0,0.0,0.0,0.0,0.0,0.0,0.0,0.0,0.0,0.0,0.0,0.0,0.0,0.0,0.0,0.0,0.0,0.0,0.0,0.0,0.0,0.0,0.0,0.0,0.0,0.0,0.0,0.0,0.0,0.0,0.0,0.0,0.0,0.0,0.0,0.0,0.0,0.0,0.0,0.0,0.0,0.0,0.0,0.0,0.0,0.0,0.0,0.0,0.0,0.0,0.0,0.0,0.0,0.0,0.0,0.0,0.0,0.0,0.0,0.0,0.0,0.0,0.0,0.0,0.0,0.0,0.0,0.0,0.0,0.0,0.0,0.0,0.0,0.0,0.0,0.0,0.0,0.0,0.0,0.0,0.0,0.0,0.0,0.0,0.0,0.0,0.0,0.0,-2.5022,-2.5157,-2.523,0.0,0.0,0.0,0.0,0.0,0.0,0.0,0.0,0.0,0.0,0.0,0.0,0.0,0.0,0.0,0.0,0.0,0.0,0.0,0.0,0.0,0.0,0.0,0.0,0.0,0.0,0.0,0.0,0.0,0.0,0.0,0.0,0.0,0.0,0.0,0.0,0.0,0.0,0.0,0.0,0.0,0.0,0.0,0.0,0.0,0.0,0.0,0.0,0.0,0.0,0.0,0.0,0.0,0.0,0.0,0.0,0.0,0.0,0.0,0.0,0.0,0.0,0.0,0.0,0.0,0.0,0.0,0.0,0.0,0.0,0.0,0.0,0.0,0.0,0.0,0.0,0.0,0.0,0.0,0.0,0.0,0.0,0.0,0.0,0.0,0.0,0.0,0.0,0.0,0.0,0.0,0.0,0.0,0.0,0.0,0.0,0.0,0.0,0.0,0.0,0.0,0.0,0.0,0.0,0.0,0.0,0.0,0.0,0.0,0.0,-2.4351,-2.4544,-2.4676,0.0,-2.5129,0.0,0.0,0.0,0.0,0.0,0.0,0.0,0.0,0.0,0.0,0.0,0.0,0.0,0.0,0.0,0.0,0.0,0.0,0.0,0.0,0.0,0.0,0.0,0.0,0.0,0.0,0.0,0.0,0.0,0.0,0.0,0.0,0.0,0.0,0.0,0.0,0.0,0.0,0.0,0.0,0.0,0.0,0.0,0.0,0.0,0.0,0.0,0.0,0.0,0.0,0.0,0.0,0.0,0.0,0.0,0.0,0.0,0.0,0.0,0.0,0.0,0.0,0.0,0.0,0.0,0.0,0.0,0.0,0.0,0.0,0.0,0.0,0.0,0.0,0.0,0.0,0.0,0.0,0.0,0.0,0.0,0.0,0.0,0.0,0.0,0.0,0.0,0.0,0.0,0.0,0.0,0.0,0.0,0.0,0.0,0.0,0.0,0.0,0.0,0.0,0.0,0.0,0.0,0.0,0.0,0.0,0.0,0.0,0.0,0.0,-2.3371,-2.4014,-2.4306,-2.4606,0.0,0.0,0.0,0.0,0.0,0.0,0.0,0.0,0.0,0.0,0.0,0.0,0.0,0.0,0.0,0.0,0.0,0.0,0.0,0.0,0.0,0.0,0.0,0.0,0.0,0.0,0.0,0.0,0.0,0.0,0.0,0.0,0.0,0.0,0.0,0.0,0.0,0.0,0.0,0.0,0.0,0.0,0.0,0.0,0.0,0.0,0.0,0.0,0.0,0.0,0.0,0.0,0.0,0.0,0.0,0.0,0.0,0.0,0.0,0.0,0.0,0.0,0.0,0.0,0.0,0.0,0.0,0.0,0.0,0.0,0.0,0.0,0.0,0.0,0.0,0.0,0.0,0.0,0.0,0.0,0.0,0.0,0.0,0.0,0.0,0.0,0.0,0.0,0.0,0.0,0.0,0.0,0.0,0.0,0.0,0.0,0.0,0.0,0.0,0.0,0.0,0.0,0.0,0.0,0.0,0.0,0.0,0.0,0.0,0.0,-2.2218,-2.2371,-2.2962,-2.3546,-2.3956,-2.4205,0.0,0.0,0.0,0.0,0.0,0.0,0.0,0.0,0.0,0.0,0.0,0.0,0.0,0.0,0.0,0.0,0.0,0.0,0.0,0.0,0.0,0.0,0.0,0.0,0.0,0.0,0.0,0.0,0.0,0.0,0.0,0.0,0.0,0.0,0.0,0.0,0.0,0.0,0.0,0.0,0.0,0.0,0.0,0.0,0.0,0.0,0.0,0.0,0.0,0.0,0.0,0.0,0.0,0.0,0.0,0.0,0.0,0.0,0.0,0.0,0.0,0.0,0.0,0.0,0.0,0.0,0.0,0.0,0.0,0.0,0.0,0.0,0.0,0.0,0.0,0.0,0.0,0.0,0.0,0.0,0.0,0.0,0.0,0.0,0.0,0.0,0.0,0.0,0.0,0.0,0.0,0.0,0.0,0.0,0.0,0.0,0.0,0.0,0.0,0.0,0.0,0.0,0.0,0.0,0.0,0.0,0.0,0.0,-2.1309,-2.1446,-2.1432,-2.1268,-2.2157,-2.2773,0.0,0.0,0.0,0.0,0.0,0.0,0.0,0.0,0.0,0.0,0.0,0.0,0.0,0.0,0.0,0.0,0.0,0.0,0.0,0.0,0.0,0.0,0.0,0.0,0.0,0.0,0.0,0.0,0.0,0.0,0.0,0.0,0.0,0.0,0.0,0.0,0.0,0.0,0.0,0.0,0.0,0.0,0.0,0.0,0.0,0.0,0.0,0.0,0.0,0.0,0.0,0.0,0.0,0.0,0.0,0.0,0.0,0.0,0.0,0.0,0.0,0.0,0.0,0.0,0.0,0.0,0.0,0.0,0.0,0.0,0.0,0.0,0.0,0.0,0.0,0.0,0.0,0.0,0.0,0.0,0.0,0.0,0.0,0.0,0.0,0.0,0.0,0.0,0.0,0.0,0.0,0.0,0.0,0.0,0.0,0.0,0.0,0.0,0.0,0.0,0.0,0.0,0.0,0.0,0.0,0.0,0.0,0.0,0.0,-2.0744,-2.0662,-2.0403,-2.0009,-2.0871,-2.1744,0.0,0.0,0.0,0.0,0.0,0.0,0.0,0.0,0.0,0.0,0.0,0.0,0.0,0.0,0.0,0.0,0.0,0.0,0.0,0.0,0.0,0.0,0.0,0.0,0.0,0.0,0.0,0.0,0.0,0.0,0.0,0.0,0.0,0.0,0.0,0.0,0.0,0.0,0.0,0.0,0.0,0.0,0.0,0.0,0.0,0.0,0.0,0.0,0.0,0.0,0.0,0.0,0.0,0.0,0.0,0.0,0.0,0.0,0.0,0.0,0.0,0.0,0.0,0.0,0.0,0.0,0.0,0.0,0.0,0.0,0.0,0.0,0.0,0.0,0.0,0.0,0.0,0.0,0.0,0.0,0.0,0.0,0.0,0.0,0.0,0.0,0.0,0.0,0.0,0.0,0.0,0.0,0.0,0.0,0.0,0.0,0.0,0.0,0.0,0.0,0.0,0.0,0.0,0.0,0.0,0.0,0.0,0.0,0.0,-1.9683,0.0,-1.8964,-1.8739,-1.9639,-2.0521,0.0,0.0,0.0,0.0,0.0,0.0,0.0,0.0,0.0,0.0,0.0,0.0,0.0,0.0,0.0,0.0,0.0,0.0,0.0,0.0,0.0,0.0,0.0,0.0,0.0,0.0,0.0,0.0,0.0,0.0,0.0,0.0,0.0,0.0,0.0,0.0,0.0,0.0,0.0,0.0,0.0,0.0,0.0,0.0,0.0,0.0,0.0,0.0,0.0,0.0,0.0,0.0,0.0,0.0,0.0,0.0,0.0,0.0,0.0,0.0,0.0,0.0,0.0,0.0,0.0,0.0,0.0,0.0,0.0,0.0,0.0,0.0,0.0,0.0,0.0,0.0,0.0,0.0,0.0,0.0,0.0,0.0,0.0,0.0,0.0,0.0,0.0,0.0,0.0,0.0,0.0,0.0,0.0,0.0,0.0,0.0,0.0,0.0,0.0,0.0,0.0,0.0,0.0,0.0,0.0,0.0,0.0,0.0,-1.8765,-1.7998,-1.744,-1.7297,-1.7417,-1.8459,-1.9098,0.0,0.0,0.0,0.0,0.0,0.0,0.0,0.0,0.0,0.0,0.0,0.0,0.0,0.0,0.0,0.0,0.0,0.0,0.0,0.0,0.0,0.0,0.0,0.0,0.0,0.0,0.0,0.0,0.0,0.0,0.0,0.0,0.0,0.0,0.0,0.0,0.0,0.0,0.0,0.0,0.0,0.0,0.0,0.0,0.0,0.0,0.0,0.0,0.0,0.0,0.0,0.0,0.0,0.0,0.0,0.0,0.0,0.0,0.0,0.0,0.0,0.0,0.0,0.0,0.0,0.0,0.0,0.0,0.0,0.0,0.0,0.0,0.0,0.0,0.0,0.0,0.0,0.0,0.0,0.0,0.0,0.0,0.0,0.0,0.0,0.0,0.0,0.0,0.0,0.0,0.0,0.0,0.0,0.0,0.0,0.0,0.0,0.0,0.0,0.0,0.0,0.0,0.0,0.0,0.0,0.0,0.0,0.0,0.0,-1.6835,-1.6807,-1.6909,-1.7052,-1.7567,-1.8197,0.0,0.0,0.0,0.0,0.0,0.0,0.0,0.0,0.0,0.0,0.0,0.0,0.0,0.0,0.0,0.0,0.0,0.0,0.0,0.0,0.0,0.0,0.0,0.0,0.0,0.0,0.0,0.0,0.0,0.0,0.0,0.0,0.0,0.0,0.0,0.0,0.0,0.0,0.0,0.0,0.0,0.0,0.0,0.0,0.0,0.0,0.0,0.0,0.0,0.0,0.0,0.0,0.0,0.0,0.0,0.0,0.0,0.0,0.0,0.0,0.0,0.0,0.0,0.0,0.0,0.0,0.0,0.0,0.0,0.0,0.0,0.0,0.0,0.0,0.0,0.0,0.0,0.0,0.0,0.0,0.0,0.0,0.0,0.0,0.0,0.0,0.0,0.0,0.0,0.0,0.0,0.0,0.0,0.0,0.0,0.0,0.0,0.0,0.0,0.0,0.0,0.0,0.0,0.0,0.0,0.0,0.0,0.0,0.0,-1.5953,-1.634,-1.6581,-1.6755,-1.7002,-1.7461,-1.8225,0.0,0.0,0.0,0.0,0.0,0.0,0.0,0.0,0.0,0.0,0.0,0.0,0.0,0.0,0.0,0.0,0.0,0.0,0.0,0.0,0.0,0.0,0.0,0.0,0.0,0.0,0.0,0.0,0.0,0.0,0.0,0.0,0.0,0.0,0.0,0.0,0.0,0.0,0.0,0.0,0.0,0.0,0.0,0.0,0.0,0.0,0.0,0.0,0.0,0.0,0.0,0.0,0.0,0.0,0.0,0.0,0.0,0.0,0.0,0.0,0.0,0.0,0.0,0.0,0.0,0.0,0.0,0.0,0.0,0.0,0.0,0.0,0.0,0.0,0.0,0.0,0.0,0.0,0.0,0.0,0.0,0.0,0.0,0.0,0.0,0.0,0.0,0.0,0.0,0.0,0.0,0.0,0.0,0.0,0.0,0.0,0.0,0.0,0.0,0.0,0.0,0.0,0.0,0.0,0.0,0.0,0.0,0.0,-1.5352,-1.5898,-1.6254,-1.6474,-1.6686,-1.6926,0.0,0.0,0.0,0.0,0.0,0.0,0.0,0.0,0.0,0.0,0.0,0.0,0.0,0.0,0.0,0.0,0.0,0.0,0.0,0.0,0.0,0.0,0.0,0.0,0.0,0.0,0.0,0.0,0.0,0.0,0.0,0.0,0.0,0.0,0.0,0.0,0.0,0.0,0.0,0.0,0.0,0.0,0.0,0.0,0.0,0.0,0.0,0.0,0.0,0.0,0.0,0.0,0.0,0.0,0.0,0.0,0.0,0.0,0.0,0.0,0.0,0.0,0.0,0.0,0.0,0.0,0.0,0.0,0.0,0.0,0.0,0.0,0.0,0.0,0.0,0.0,0.0,0.0,0.0,0.0,0.0,0.0,0.0,0.0,0.0,0.0,0.0,0.0,0.0,0.0,0.0,0.0,0.0,0.0,0.0,0.0,0.0,0.0,0.0,0.0,0.0,0.0,0.0,0.0,0.0,0.0,0.0,0.0,0.0,-1.5097,-1.5477,-1.587,-1.6262,-1.6517,-1.6746,0.0,0.0,0.0,0.0,0.0,0.0,0.0,0.0,0.0,0.0,0.0,0.0,0.0,0.0,0.0,0.0,0.0,0.0,0.0,0.0,0.0,0.0,0.0,0.0,0.0,0.0,0.0,0.0,0.0,0.0,0.0,0.0,0.0,0.0,0.0,0.0,0.0,0.0,0.0,0.0,0.0,0.0,0.0,0.0,0.0,0.0,0.0,0.0,0.0,0.0,0.0,0.0,0.0,0.0,0.0,0.0,0.0,0.0,0.0,0.0,0.0,0.0,0.0,0.0,0.0,0.0,0.0,0.0,0.0,0.0,0.0,0.0,0.0,0.0,0.0,0.0,0.0,0.0,0.0,0.0,0.0,0.0,0.0,0.0,0.0,0.0,0.0,0.0,0.0,0.0,0.0,0.0,0.0,0.0,0.0,0.0,0.0,0.0,0.0,0.0,0.0,0.0,0.0,0.0,0.0,0.0,0.0,0.0,-1.4465,-1.4873,-1.5224,-1.558,-1.5955,-1.6301,-1.6596,0.0,0.0,0.0,0.0,0.0,0.0,0.0,0.0,0.0,0.0,0.0,0.0,0.0,0.0,0.0,0.0,0.0,0.0,0.0,0.0,0.0,0.0,0.0,0.0,0.0,0.0,0.0,0.0,0.0,0.0,0.0,0.0,0.0,0.0,0.0,0.0,0.0,0.0,0.0,0.0,0.0,0.0,0.0,0.0,0.0,0.0,0.0,0.0,0.0,0.0,0.0,0.0,0.0,0.0,0.0,0.0,0.0,0.0,0.0,0.0,0.0,0.0,0.0,0.0,0.0,0.0,0.0,0.0,0.0,0.0,0.0,0.0,0.0,0.0,0.0,0.0,0.0,0.0,0.0,0.0,0.0,0.0,0.0,0.0,0.0,0.0,0.0,0.0,0.0,0.0,0.0,0.0,0.0,0.0,0.0,0.0,0.0,0.0,0.0,0.0,0.0,0.0,0.0,0.0,0.0,0.0,0.0,0.0,-1.4176,-1.4651,-1.5056,-1.5366,-1.5573,-1.6024,-1.6421,0.0,0.0,0.0,0.0,0.0,0.0,0.0,0.0,0.0,0.0,0.0,0.0,0.0,0.0,0.0,0.0,0.0,0.0,0.0,0.0,0.0,0.0,0.0,0.0,0.0,0.0,0.0,0.0,0.0,0.0,0.0,0.0,0.0,0.0,0.0,0.0,0.0,0.0,0.0,0.0,0.0,0.0,0.0,0.0,0.0,0.0,0.0,0.0,0.0,0.0,0.0,0.0,0.0,0.0,0.0,0.0,0.0,0.0,0.0,0.0,0.0,0.0,0.0,0.0,0.0,0.0,0.0,0.0,0.0,0.0,0.0,0.0,0.0,0.0,0.0,0.0,0.0,0.0,0.0,0.0,0.0,0.0,0.0,0.0,0.0,0.0,0.0,0.0,0.0,0.0,0.0,0.0,0.0,0.0,0.0,0.0,0.0,0.0,0.0,0.0,0.0,0.0,0.0,0.0,0.0,0.0,0.0,0.0,-1.3888,-1.4461,-1.4804,-1.5179,-1.5522,-1.5919,-1.6246,0.0,0.0,0.0,0.0,0.0,0.0,0.0,0.0,0.0,0.0,0.0,0.0,0.0,0.0,0.0,0.0,0.0,0.0,0.0,0.0,0.0,0.0,0.0,0.0,0.0,0.0,0.0,0.0,0.0,0.0,0.0,0.0,0.0,0.0,0.0,0.0,0.0,0.0,0.0,0.0,0.0,0.0,0.0,0.0,0.0,0.0,0.0,0.0,-1.9485,0.0,0.0,0.0,0.0,0.0,0.0,0.0,0.0,0.0,0.0,0.0,0.0,0.0,0.0,0.0,0.0,0.0,0.0,0.0,0.0,0.0,0.0,0.0,0.0,0.0,0.0,0.0,0.0,0.0,0.0,0.0,0.0,0.0,0.0,0.0,0.0,0.0,0.0,0.0,0.0,0.0,0.0,0.0,0.0,0.0,0.0,0.0,0.0,0.0,0.0,0.0,0.0,0.0,0.0,0.0,0.0,0.0,0.0,0.0,-1.3514,-1.4138,-1.4504,-1.4866,-1.5255,-1.5624,-1.6004,0.0,0.0,0.0,0.0,0.0,0.0,0.0,0.0,0.0,0.0,0.0,0.0,0.0,0.0,0.0,0.0,0.0,0.0,0.0,0.0,0.0,0.0,0.0,0.0,0.0,0.0,0.0,0.0,0.0,0.0,0.0,0.0,0.0,0.0,0.0,0.0,0.0,0.0,0.0,0.0,0.0,0.0,0.0,0.0,0.0,0.0,0.0,0.0,0.0,0.0,0.0,0.0,0.0,0.0,0.0,0.0,0.0,0.0,0.0,0.0,0.0,0.0,0.0,0.0,0.0,0.0,0.0,0.0,0.0,0.0,0.0,0.0,0.0,0.0,0.0,0.0,0.0,0.0,0.0,0.0,0.0,0.0,0.0,0.0,0.0,0.0,0.0,0.0,0.0,0.0,0.0,0.0,0.0,0.0,0.0,0.0,0.0,0.0,0.0,0.0,0.0,0.0,0.0,0.0,0.0,0.0,0.0,-1.2644,-1.3145,-1.3808,-1.4196,-1.456,-1.4975,-1.5322,-1.5761,-1.6316,0.0,0.0,0.0,0.0,0.0,0.0,0.0,0.0,0.0,0.0,0.0,0.0,0.0,0.0,0.0,0.0,0.0,0.0,0.0,0.0,0.0,0.0,0.0,0.0,0.0,0.0,0.0,0.0,0.0,0.0,0.0,0.0,0.0,0.0,0.0,0.0,0.0,0.0,-1.9857,-1.9917,0.0,0.0,0.0,0.0,0.0,0.0,0.0,0.0,-1.9831,0.0,0.0,0.0,0.0,0.0,0.0,0.0,0.0,0.0,0.0,0.0,0.0,0.0,0.0,0.0,0.0,0.0,0.0,0.0,0.0,0.0,0.0,0.0,0.0,0.0,0.0,0.0,0.0,0.0,0.0,0.0,0.0,0.0,0.0,0.0,0.0,0.0,0.0,0.0,0.0,0.0,0.0,0.0,0.0,0.0,0.0,0.0,0.0,0.0,0.0,0.0,0.0,0.0,0.0,0.0,0.0,-1.1726,-1.2282,-1.289,-1.3554,-1.4066,-1.4497,-1.4914,-1.5292,-1.5682,-1.609,0.0,0.0,0.0,0.0,0.0,0.0,0.0,0.0,0.0,0.0,0.0,0.0,0.0,0.0,0.0,0.0,0.0,0.0,0.0,0.0,0.0,0.0,0.0,0.0,0.0,0.0,0.0,0.0,0.0,0.0,0.0,0.0,0.0,0.0,0.0,0.0,0.0,0.0,0.0,-2.0189,-2.0245,0.0,0.0,0.0,0.0,0.0,0.0,0.0,0.0,-1.8074,0.0,0.0,0.0,0.0,0.0,0.0,0.0,0.0,0.0,0.0,0.0,0.0,0.0,0.0,0.0,0.0,0.0,0.0,0.0,0.0,0.0,0.0,0.0,0.0,0.0,0.0,0.0,0.0,0.0,0.0,0.0,0.0,0.0,0.0,0.0,0.0,0.0,0.0,0.0,0.0,0.0,0.0,0.0,0.0,0.0,0.0,0.0,0.0,0.0,0.0,0.0,0.0,0.0,0.0,0.0,-1.1271,-1.1878,-1.2555,-1.3276,-1.3749,-1.4202,-1.469,-1.5118,-1.5492,0.0,0.0,0.0,0.0,0.0,0.0,0.0,0.0,0.0,0.0,0.0,0.0,0.0,0.0,0.0,0.0,0.0,0.0,0.0,0.0,0.0,0.0,0.0,0.0,0.0,0.0,0.0,0.0,0.0,0.0,0.0,0.0,0.0,0.0,0.0,0.0,0.0,0.0,0.0,0.0,-1.9939,-1.9669,-1.9661,0.0,0.0,0.0,0.0,0.0,0.0,-1.8113,-1.7809,0.0,0.0,0.0,0.0,0.0,0.0,0.0,0.0,0.0,0.0,0.0,0.0,0.0,0.0,0.0,0.0,0.0,0.0,0.0,0.0,0.0,0.0,0.0,0.0,0.0,0.0,0.0,0.0,0.0,0.0,0.0,0.0,0.0,0.0,0.0,0.0,0.0,0.0,0.0,0.0,0.0,0.0,0.0,0.0,0.0,0.0,0.0,0.0,0.0,0.0,0.0,0.0,0.0,0.0,0.0,-1.0862,-1.1499,-1.2193,-1.2947,-1.3433,-1.3934,-1.4452,-1.4904,-1.5291,0.0,0.0,0.0,0.0,0.0,0.0,0.0,0.0,0.0,0.0,0.0,0.0,0.0,0.0,0.0,0.0,0.0,0.0,0.0,0.0,0.0,0.0,0.0,0.0,0.0,0.0,0.0,0.0,0.0,0.0,0.0,0.0,0.0,0.0,0.0,0.0,0.0,0.0,0.0,0.0,0.0,-1.8817,-1.8825,-1.8269,0.0,0.0,0.0,0.0,-1.7621,-1.7498,0.0,0.0,0.0,0.0,0.0,0.0,0.0,0.0,0.0,0.0,0.0,0.0,0.0,0.0,0.0,0.0,0.0,0.0,0.0,0.0,0.0,0.0,0.0,0.0,0.0,0.0,0.0,0.0,0.0,0.0,0.0,0.0,0.0,0.0,0.0,0.0,0.0,0.0,0.0,0.0,0.0,0.0,0.0,0.0,0.0,0.0,0.0,0.0,0.0,0.0,0.0,0.0,0.0,0.0,0.0,0.0,-1.0457,-1.1169,-1.1884,-1.2567,-1.3229,-1.3848,-1.4326,-1.4773,-1.5172,0.0,0.0,0.0,0.0,0.0,0.0,0.0,0.0,0.0,0.0,0.0,0.0,0.0,0.0,0.0,0.0,0.0,0.0,0.0,0.0,0.0,0.0,0.0,0.0,0.0,0.0,0.0,0.0,0.0,0.0,0.0,0.0,0.0,0.0,0.0,0.0,0.0,0.0,0.0,0.0,0.0,-1.7873,-1.7848,-1.779,-1.7717,0.0,0.0,-1.66,-1.6658,-1.6068,0.0,0.0,0.0,0.0,0.0,0.0,0.0,0.0,0.0,0.0,0.0,0.0,0.0,0.0,0.0,0.0,0.0,0.0,0.0,0.0,0.0,0.0,0.0,0.0,0.0,0.0,0.0,0.0,0.0,0.0,0.0,0.0,0.0,0.0,0.0,0.0,0.0,0.0,0.0,0.0,0.0,0.0,0.0,0.0,0.0,0.0,0.0,0.0,0.0,0.0,0.0,0.0,0.0,0.0,0.0,-0.9487,-1.0166,-1.0954,-1.17,-1.2437,-1.3085,-1.3702,-1.4222,-1.4693,-1.5095,0.0,0.0,0.0,0.0,0.0,0.0,0.0,0.0,0.0,0.0,0.0,0.0,0.0,0.0,0.0,0.0,0.0,0.0,0.0,0.0,0.0,0.0,0.0,0.0,0.0,0.0,0.0,0.0,0.0,0.0,0.0,0.0,0.0,0.0,0.0,0.0,0.0,0.0,0.0,0.0,0.0,0.0,-1.6794,-1.6376,0.0,0.0,0.0,-1.5564,-1.5641,0.0,0.0,0.0,0.0,0.0,0.0,0.0,0.0,0.0,0.0,0.0,0.0,0.0,0.0,0.0,0.0,0.0,0.0,0.0,0.0,0.0,0.0,0.0,0.0,0.0,0.0,0.0,0.0,0.0,0.0,0.0,0.0,0.0,0.0,0.0,0.0,0.0,0.0,0.0,0.0,0.0,0.0,0.0,0.0,0.0,0.0,0.0,0.0,0.0,0.0,0.0,0.0,0.0,0.0,0.0,0.0,0.0,-0.9927,-1.0731,-1.1516,-1.2294,-1.2947,-1.3562,-1.4124,-1.4637,0.0,0.0,0.0,0.0,0.0,0.0,0.0,0.0,0.0,0.0,0.0,0.0,0.0,0.0,0.0,0.0,0.0,0.0,0.0,0.0,0.0,0.0,0.0,0.0,0.0,0.0,0.0,-1.9682,0.0,0.0,0.0,0.0,0.0,0.0,0.0,0.0,0.0,0.0,0.0,0.0,0.0,0.0,-1.5704,-1.5704,-1.516,-1.4729,0.0,0.0,-1.4865,-1.4913,-1.4973,-1.5039,0.0,0.0,0.0,0.0,0.0,0.0,0.0,0.0,0.0,0.0,0.0,0.0,0.0,0.0,0.0,0.0,0.0,0.0,0.0,0.0,0.0,0.0,0.0,0.0,0.0,0.0,0.0,0.0,0.0,0.0,0.0,0.0,0.0,0.0,0.0,0.0,0.0,0.0,0.0,0.0,0.0,0.0,0.0,0.0,0.0,0.0,0.0,0.0,0.0,0.0,0.0,0.0,0.0,0.0,-0.8954,-0.982,-1.0567,-1.1287,-1.2102,-1.2842,-1.3448,-1.3993,-1.4543,-1.4963,0.0,0.0,0.0,0.0,0.0,0.0,0.0,0.0,0.0,0.0,0.0,0.0,0.0,0.0,0.0,0.0,0.0,0.0,0.0,0.0,0.0,0.0,0.0,0.0,0.0,0.0,0.0,0.0,0.0,0.0,0.0,0.0,0.0,0.0,0.0,0.0,0.0,0.0,0.0,0.0,0.0,-1.4596,-1.4596,-1.455,-1.4524,0.0,-1.4583,-1.4635,-1.4689,-1.4776,-1.4839,-1.4904,0.0,0.0,0.0,0.0,0.0,0.0,0.0,0.0,0.0,0.0,0.0,0.0,0.0,0.0,0.0,0.0,0.0,0.0,0.0,0.0,0.0,0.0,0.0,0.0,0.0,0.0,0.0,0.0,0.0,0.0,0.0,0.0,0.0,0.0,0.0,0.0,0.0,0.0,0.0,0.0,0.0,0.0,0.0,0.0,0.0,0.0,0.0,0.0,0.0,0.0,0.0,0.0,0.0,-0.8873,-0.9658,-1.048,-1.1287,-1.2071,-1.2807,-1.3454,-1.3993,-1.4497,-1.4956,0.0,0.0,0.0,0.0,0.0,0.0,0.0,0.0,0.0,0.0,0.0,0.0,0.0,0.0,0.0,0.0,0.0,0.0,0.0,0.0,0.0,0.0,0.0,0.0,0.0,0.0,0.0,0.0,-1.9111,-1.92,-1.9231,0.0,0.0,0.0,0.0,0.0,0.0,0.0,0.0,0.0,0.0,-1.4242,-1.4211,-1.4215,0.0,0.0,-1.4338,-1.4453,-1.4485,-1.4574,-1.464,-1.4757,-1.4866,0.0,0.0,0.0,0.0,0.0,0.0,0.0,0.0,0.0,0.0,0.0,0.0,0.0,0.0,0.0,0.0,0.0,0.0,0.0,0.0,0.0,0.0,0.0,0.0,0.0,0.0,0.0,0.0,0.0,0.0,0.0,0.0,0.0,0.0,0.0,0.0,0.0,0.0,0.0,0.0,0.0,0.0,0.0,0.0,0.0,0.0,0.0,0.0,0.0,0.0,0.0,0.0,-0.8829,-0.9575,-1.0485,-1.1287,-1.2071,-1.2807,-1.3454,-1.4,-1.4543,-1.4956,0.0,0.0,0.0,0.0,0.0,0.0,0.0,0.0,0.0,0.0,0.0,0.0,0.0,0.0,0.0,0.0,0.0,0.0,0.0,0.0,0.0,0.0,0.0,0.0,0.0,0.0,0.0,0.0,-1.8744,-1.8825,-1.8834,0.0,0.0,0.0,0.0,0.0,0.0,0.0,0.0,0.0,0.0,-1.4021,-1.3975,-1.4007,-1.4044,-1.4039,-1.4145,-1.422,-1.4297,-1.4368,-1.4456,-1.4605,0.0,0.0,0.0,0.0,0.0,0.0,0.0,0.0,0.0,0.0,0.0,0.0,0.0,0.0,0.0,0.0,0.0,0.0,0.0,0.0,0.0,0.0,0.0,0.0,0.0,0.0,0.0,-0.1477,0.0,0.0,-0.1205,0.0,0.0,0.0,0.0,0.0,0.0,0.0,0.0,0.0,0.0,0.0,0.0,0.0,0.0,0.0,0.0,0.0,0.0,0.0,0.0,0.0,0.0,-0.8752,-0.9579,-1.0442,-1.1298,-1.2071,-1.2836,-1.3454,-1.3993,-1.4536,-1.4956,-1.5306,0.0,0.0,0.0,0.0,0.0,0.0,0.0,0.0,0.0,0.0,0.0,0.0,0.0,0.0,0.0,0.0,0.0,0.0,0.0,0.0,0.0,0.0,0.0,0.0,0.0,0.0,-1.8208,-1.8388,-1.8485,0.0,0.0,0.0,0.0,0.0,0.0,0.0,0.0,0.0,-1.3903,-1.3912,-1.3903,-1.3912,-1.3912,-1.3903,-1.3903,-1.3959,-1.4035,-1.4082,-1.4163,-1.4252,0.0,0.0,0.0,0.0,0.0,0.0,0.0,0.0,0.0,0.0,0.0,0.0,0.0,0.0,0.0,0.0,0.0,0.0,0.0,0.0,0.0,0.0,0.0,0.0,0.0,0.0,0.0,-0.1924,-0.1558,0.0,0.0,0.0,0.0,0.0,0.0,0.0,0.0,0.0,0.0,0.0,-0.3396,-0.3796,0.0,0.0,0.0,0.0,0.0,0.0,0.0,0.0,0.0,0.0,0.0,0.0,-0.8833,-0.9619,-1.0442,-1.1292,-1.2071,-1.2842,-1.3454,-1.3986,-1.4536,-1.5018,-1.5463,0.0,0.0,0.0,0.0,0.0,0.0,0.0,0.0,0.0,0.0,0.0,0.0,0.0,0.0,0.0,0.0,0.0,0.0,0.0,0.0,0.0,0.0,0.0,0.0,0.0,-1.7673,0.0,0.0,0.0,0.0,0.0,0.0,0.0,0.0,0.0,0.0,0.0,-1.3691,-1.3705,-1.3693,-1.3694,-1.3634,-1.3683,-1.3697,0.0,0.0,0.0,0.0,0.0,0.0,0.0,0.0,0.0,0.0,0.0,0.0,0.0,0.0,-1.5504,-1.5591,-1.5878,-1.6265,-1.681,0.0,0.0,0.0,0.0,0.0,0.0,0.0,0.0,0.0,0.0,0.0,0.0,0.0,0.0,-0.202,-0.1749,-0.1479,0.0,0.0,0.0,0.0,0.0,0.0,0.0,0.0,-0.2688,-0.3089,-0.3486,-0.3932,-0.4238,-0.4493,-0.4808,-0.5072,0.0,0.0,0.0,0.0,0.0,0.0,0.0,0.0,-0.8958,-0.9711,-1.0524,-1.1324,-1.2144,-1.2836,-1.3454,-1.3993,-1.4624,-1.517,-1.5544,-1.5844,-1.6051,0.0,0.0,0.0,0.0,0.0,0.0,0.0,0.0,0.0,0.0,0.0,0.0,0.0,0.0,0.0,0.0,0.0,0.0,0.0,0.0,0.0,0.0,0.0,-1.7408,0.0,0.0,0.0,0.0,0.0,0.0,0.0,0.0,0.0,-1.477,-1.4031,-1.3567,-1.3562,-1.3563,-1.3547,-1.3496,0.0,0.0,0.0,0.0,0.0,0.0,0.0,-1.4009,-1.4159,-1.4248,-1.4392,-1.455,-1.4697,-1.4832,-1.4832,0.0,0.0,-1.5014,-1.5056,-1.5241,-1.5772,-1.5868,-1.605,-1.662,-1.672,-1.6715,0.0,0.0,0.0,0.0,-0.1658,0.0,0.0,0.0,-0.2242,-0.211,0.0,-0.1614,0.0,0.0,0.0,0.0,-0.1299,-0.1524,0.0,0.0,-0.2734,-0.3135,-0.3624,-0.3934,-0.4328,-0.4803,-0.4939,-0.5249,-0.568,-0.572,0.0,0.0,0.0,0.0,0.0,0.0,-0.9123,-0.9976,-1.0649,-1.1388,-1.2168,-1.2871,-1.3482,-1.4019,-1.4842,-1.5351,-1.5514,-1.5827,-1.6013,-1.6095,-1.6226,0.0,0.0,0.0,0.0,0.0,0.0,0.0,0.0,0.0,0.0,0.0,0.0,0.0,0.0,0.0,0.0,0.0,0.0,0.0,0.0,-1.7125,0.0,0.0,0.0,0.0,0.0,0.0,0.0,0.0,0.0,0.0,-1.4835,-1.4008,-1.3513,-1.3487,0.0,0.0,0.0,0.0,-1.3512,-1.3587,-1.3592,-1.3653,-1.3778,-1.3856,-1.3947,-1.4086,0.0,0.0,-1.4446,-1.4602,-1.4694,-1.4697,-1.4689,-1.4738,-1.4867,-1.488,-1.4914,-1.4933,-1.4943,-1.4916,-1.4911,-1.5081,-1.5025,-0.1076,0.0,0.0,0.0,0.0,-0.2327,-0.2462,-0.2594,-0.2462,-0.224,-0.1975,-0.1794,0.0,0.0,0.0,0.0,0.0,0.0,-0.2064,-0.229,-0.2775,-0.3214,-0.3614,-0.4054,-0.4451,-0.4799,-0.5193,-0.5494,-0.5752,-0.6067,-0.6279,-0.6395,0.0,0.0,0.0,0.0,-0.9257,-1.0015,-1.0769,-1.1542,-1.2324,-1.2935,-1.3683,-1.4529,-1.5018,-1.5358,-1.5492,-1.5835,-1.6013,-1.6032,-1.6219,0.0,0.0,0.0,0.0,0.0,0.0,0.0,0.0,0.0,0.0,0.0,0.0,0.0,0.0,0.0,0.0,0.0,0.0,0.0,-1.6837,-1.7024,-1.7133,0.0,0.0,0.0,0.0,0.0,0.0,0.0,0.0,0.0,-1.5431,-1.4676,-1.4023,0.0,0.0,-1.343,-1.343,-1.343,-1.3455,-1.3512,-1.3528,0.0,-1.3698,-1.3793,-1.3859,-1.4018,-1.4202,-1.4384,-1.4481,-1.4567,-1.4622,-1.4632,-1.4624,-1.4635,-1.4667,-1.4728,-1.4748,-1.4748,-1.4757,-1.4757,-1.4748,-1.4757,-1.4766,-0.1254,-0.1479,-0.1749,-0.2061,-0.2369,-0.2503,-0.2639,-0.2684,-0.2549,-0.2329,-0.202,-0.184,-0.1614,-0.1299,-0.1299,0.0,0.0,0.0,-0.2152,-0.2375,-0.2815,-0.321,-0.3609,-0.4096,-0.4495,-0.4893,-0.5239,-0.5583,-0.5879,-0.6236,-0.6492,-0.6735,0.0,-0.7628,-0.8085,-0.8769,-0.9452,-1.0166,-1.0954,-1.17,-1.2437,-1.3257,-1.4065,-1.4801,-1.5163,-1.5381,-1.5507,-1.5799,-1.597,-1.6004,-1.6143,-1.6238,0.0,0.0,0.0,0.0,0.0,0.0,0.0,0.0,0.0,0.0,0.0,-1.6633,-1.6525,0.0,0.0,0.0,-1.6455,-1.657,-1.6699,-1.6897,0.0,0.0,0.0,0.0,0.0,0.0,0.0,-1.7627,-1.733,-1.6737,-1.5739,-1.5215,-1.4546,-1.354,-1.3396,-1.3396,-1.3396,0.0,-1.3421,-1.3487,-1.3512,-1.3593,-1.3674,-1.3737,-1.383,-1.4009,-1.4211,-1.4362,-1.4434,-1.4513,-1.4576,-1.4547,-1.4558,-1.4567,-1.4556,-1.4583,-1.4636,-1.4657,-1.4667,-1.4667,-1.4667,-1.4648,-1.4658,-0.1254,-0.1569,-0.1885,-0.2196,-0.2505,-0.2639,-0.2684,-0.2683,-0.2551,-0.2285,-0.1975,-0.184,-0.1569,-0.1299,-0.1299,0.0,-0.1614,-0.1885,-0.2198,-0.2503,-0.2857,-0.321,-0.3607,-0.4052,-0.4541,-0.4983,-0.52,-0.5547,-0.5976,-0.6279,-0.6614,-0.6982,-0.7325,-0.7746,-0.841,-0.9003,-0.9677,-1.0423,-1.1142,-1.1889,-1.2603,-1.3709,-1.4479,-1.4902,-1.5209,-1.5433,-1.5522,-1.577,-1.5942,-1.5983,-1.6067,-1.6143,-1.6274,0.0,0.0,0.0,0.0,0.0,0.0,0.0,0.0,0.0,0.0,0.0,0.0,0.0,0.0,0.0,-1.6455,0.0,-1.6588,-1.6785,0.0,0.0,0.0,-1.7338,-1.7393,-1.7511,-1.7635,-1.7695,0.0,0.0,-1.5781,-1.5595,-1.5064,-1.3591,-1.3396,-1.3396,-1.3396,-1.3404,-1.3429,-1.3504,-1.3545,-1.3634,-1.3715,-1.3752,-1.3842,-1.4068,-1.4216,-1.4331,-1.4405,-1.4458,-1.4501,-1.4508,-1.4492,-1.4494,-1.4499,-1.4529,-1.454,-1.4589,-1.46,-1.4589,-1.46,-1.4602,-1.4614,-0.103,-0.1389,-0.1704,-0.2105,-0.2504,-0.2549,-0.2549,-0.2551,-0.233,-0.2107,-0.1839,-0.1614,-0.1434,-0.1299,-0.1299,-0.1479,-0.1749,-0.1929,-0.2195,-0.2504,-0.2857,-0.321,-0.3609,-0.3968,-0.4368,-0.4847,-0.5154,-0.5501,-0.5836,-0.6267,-0.6653,-0.7024,-0.7538,-0.8036,-0.8484,-0.9191,-0.9864,-1.0539,-1.133,-1.227,-1.3399,-1.4046,-1.4556,-1.4894,-1.5209,-1.5448,-1.5522,-1.5762,-1.5906,-1.594,-1.6032,-1.6116,-1.6133,-1.6207,0.0,0.0,0.0,0.0,0.0,0.0,0.0,0.0,0.0,-1.6289,-1.6328,0.0,-1.6179,0.0,-1.6336,-1.6463,-1.652,-1.6751,0.0,0.0,-1.7191,-1.7305,-1.7393,-1.7511,-1.7627,-1.7704,-1.7758,-1.7253,-1.579,-1.5651,-1.511,-1.3633,-1.3396,-1.3396,-1.3388,-1.3396,-1.3445,-1.355,-1.3591,-1.3662,-1.3817,-1.3941,-1.4018,-1.41,-1.4269,-1.4383,-1.4396,-1.4464,-1.4499,-1.4497,-1.4492,-1.4504,-1.4504,-1.4535,-1.4567,-1.4589,-1.4549,-1.4517,-1.4526,-1.4578,-1.4622,-0.0537,-0.0985,-0.121,-0.1522,-0.1879,-0.2194,-0.2285,-0.215,-0.2062,-0.184,-0.1569,-0.1344,-0.1254,-0.121,-0.1299,-0.1479,-0.1704,-0.1885,-0.2198,-0.251,-0.2817,-0.3167,-0.3524,-0.3926,-0.4324,-0.4707,-0.5062,-0.545,-0.579,-0.6227,-0.6611,-0.7021,-0.7614,-0.813,-0.8586,-0.9319,-1.0006,-1.0629,-1.1721,-1.2766,-1.3762,-1.4202,-1.4624,-1.4935,-1.5269,-1.5448,-1.5514,-1.5748,-1.5863,-1.5906,-1.6011,-1.606,-1.6093,-1.6159,-1.6194,0.0,0.0,0.0,0.0,0.0,0.0,0.0,0.0,0.0,0.0,0.0,-1.6095,-1.6159,-1.6316,-1.6444,-1.6501,-1.6759,-1.6938,-1.7082,-1.7207,-1.7354,-1.7472,-1.7581,-1.7681,-1.7749,-1.7803,-1.7296,-1.5863,-1.569,-1.5149,-1.365,-1.3488,-1.3488,-1.3471,-1.3469,-1.3509,-1.3589,-1.366,-1.3746,-1.3915,-1.403,-1.4109,-1.4136,-1.429,-1.4414,-1.4447,-1.4485,-1.449,-1.4501,-1.4524,-1.4547,-1.4547,-1.4569,-1.4591,-1.4591,-1.4589,-1.4569,-1.4558,-1.4591,-1.4651,0.0045,-0.0403,-0.0537,-0.0761,-0.103,-0.1659,-0.1794,-0.1704,-0.1704,-0.1524,-0.121,-0.1075,-0.1075,-0.1075,-0.121,-0.1389,-0.1614,-0.184,-0.2156,-0.2471,-0.2818,-0.3126,-0.3396,-0.3842,-0.4192,-0.4574,-0.4968,-0.5318,-0.5747,-0.615,-0.6575,-0.6982,-0.7572,-0.8138,-0.8704,-0.9412,-1.0152,-1.0869,-1.2162,-1.3167,-1.3894,-1.4292,-1.4672,-1.5006,-1.5322,-1.5492,-1.5514,-1.5668,-1.5835,-1.59,-1.5955,-1.6032,-1.6088,-1.6159,-1.6194,0.0,-1.6131,0.0,0.0,0.0,0.0,0.0,0.0,0.0,0.0,-1.6004,-1.6032,-1.6095,-1.6289,-1.6429,-1.6509,-1.6751,-1.699,-1.7174,-1.7257,-1.7385,-1.7557,-1.765,-1.771,-1.7811,-1.7793,-1.7212,-1.5903,-1.5637,-1.5034,-1.3794,-1.3577,-1.3593,-1.3552,-1.3575,-1.3613,-1.3638,-1.3746,-1.3874,-1.3984,-1.4077,-1.4159,-1.4215,-1.4319,-1.4447,-1.4489,-1.4499,-1.4494,-1.4508,-1.4569,-1.4611,-1.4611,-1.4631,-1.4612,-1.4631,-1.4673,-1.4692,-1.464,-1.4663,-1.4722,0.0538,0.0224,-0.0045,-0.0224,-0.0404,-0.0672,-0.0895,-0.1075,-0.1075,-0.0897,-0.0674,-0.0718,-0.0808,-0.0809,-0.1031,-0.1254,-0.1479,-0.1704,-0.202,-0.2337,-0.2642,-0.2997,-0.3396,-0.3624,-0.3926,-0.4362,-0.4576,-0.4971,-0.5415,-0.5849,-0.6358,-0.6914,-0.7461,-0.8047,-0.8716,0.0,0.0,0.0,-1.2532,-1.3229,-1.396,-1.4266,-1.4624,-1.4982,-1.5262,0.0,-1.5514,-1.5697,-1.5799,-1.5827,-1.5926,0.0,0.0,0.0,0.0,0.0,0.0,0.0,0.0,0.0,0.0,0.0,-1.582,-1.5877,-1.5983,-1.606,-1.6095,-1.6095,-1.6289,-1.6444,-1.6485,-1.6777,-1.7056,-1.7174,-1.7305,-1.7448,-1.7581,-1.765,-1.7724,-1.7852,-1.7373,-1.6688,-1.5816,-1.5231,-1.4573,-1.3763,-1.3645,-1.37,-1.3724,-1.3709,-1.3726,-1.3817,-1.395,-1.4049,-1.4063,-1.4186,-1.4255,-1.4297,-1.4399,-1.4477,-1.4494,-1.4511,-1.4528,-1.4572,-1.4642,-1.4673,-1.4686,-1.4716,-1.4754,-1.4773,-1.4774,-1.4764,-1.4693,-1.4743,-1.4794,0.1248,0.097,0.0677,0.0448,0.0,0.009,-0.009,-0.0224,-0.0583,-0.0628,-0.045,-0.0539,-0.0539,-0.0629,-0.0808,-0.1076,-0.1389,-0.1614,-0.1885,-0.2245,-0.2553,-0.2865,-0.3179,-0.3491,-0.3796,-0.4098,-0.4445,-0.4838,-0.5328,-0.5761,-0.6273,-0.6781,-0.7321,-0.7912,-0.8545,-0.9644,-1.0793,-1.1993,-1.2579,-1.3167,-1.3842,-1.4215,-1.4574,-1.4942,-1.5216,0.0,0.0,0.0,0.0,0.0,0.0,0.0,0.0,-1.6131,0.0,-1.6194,-1.6095,-1.6032,-1.5996,-1.5906,-1.5827,-1.5806,-1.5814,-1.5827,-1.5898,-1.5991,-1.6032,-1.606,-1.6246,-1.6436,-1.6535,-1.6811,-1.7082,-1.7215,-1.7353,-1.7479,-1.7581,-1.7726,-1.7672,-1.7382,-1.7096,-1.649,-1.5352,-1.4994,-1.451,-1.3847,-1.3754,-1.3809,-1.3845,-1.3824,-1.385,-1.3959,-1.4035,-1.4118,-1.4177,-1.4242,-1.4337,-1.4387,-1.4438,-1.4485,-1.449,-1.4547,-1.462,-1.4643,-1.4704,-1.4754,-1.4755,-1.4775,-1.4804,-1.4804,-1.4813,-1.4832,-1.4804,-1.4823,-1.4851,0.1965,0.171,0.1379,0.1172,0.0985,0.0718,0.0584,0.0494,-0.009,0.0,0.0,-0.0315,-0.036,-0.045,-0.0629,-0.0853,-0.121,-0.1434,-0.1749,-0.2155,-0.2464,-0.2729,-0.2911,-0.3311,-0.3619,-0.3884,-0.4318,-0.4753,-0.5195,-0.5674,-0.6142,-0.6598,-0.7147,-0.7769,-0.8574,-0.987,-1.0939,-1.1757,-1.2431,-1.3063,-1.3675,-1.4111,-1.4543,-1.4887,-1.5154,-1.5351,-1.5514,-1.558,-1.5683,-1.588,-1.597,-1.6019,-1.6085,-1.6146,-1.6194,-1.6194,-1.6067,-1.6004,-1.6004,-1.587,-1.5814,-1.5814,-1.5814,-1.5814,-1.5814,-1.5926,-1.6004,-1.6004,-1.6254,-1.6444,-1.6596,-1.6829,-1.7083,-1.7281,-1.7425,-1.7549,-1.7627,-1.7794,-1.7633,-1.6981,-1.6801,-1.6295,-1.4969,-1.4708,-1.452,-1.399,-1.3886,-1.3924,-1.3932,-1.3927,-1.3982,-1.4049,-1.4109,-1.4177,-1.4259,-1.4328,-1.4396,-1.4489,-1.4494,-1.4501,-1.4547,-1.4631,-1.4701,-1.4724,-1.4765,-1.4804,-1.4823,-1.4823,-1.4822,-1.485,-1.4877,-1.4923,-1.4931,-1.4931,-1.494,0.2597,0.228,0.1988,0.1713,0.1479,0.1164,0.0897,0.0674,0.036,0.0225,0.009,0.0,-0.0135,-0.027,-0.0539,-0.0719,-0.0809,-0.1256,-0.1569,-0.1883,-0.2191,-0.2549,-0.2911,-0.3129,-0.3396,-0.3624,-0.402,-0.4366,-0.4707,-0.5149,-0.5715,-0.6264,-0.6816,-0.7769,-0.9052,-0.9917,-1.0649,-1.1287,-1.2168,-1.2982,-1.3669,-1.4026,-1.4454,-1.4878,-1.5086,-1.5298,-1.5492,-1.5544,-1.5683,-1.588,-1.597,-1.6026,-1.6085,-1.6162,-1.6194,-1.6194,-1.6067,-1.6004,-1.6004,-1.5877,-1.5814,-1.5814,-1.5814,-1.5814,-1.5799,-1.5919,-1.6004,-1.6004,-1.6254,-1.6444,-1.6596,-1.6841,-1.7076,-1.7281,-1.748,-1.7635,-1.7758,-1.7805,-1.7616,-1.6993,-1.6405,-1.5798,-1.4941,-1.4403,-1.4079,-1.3938,-1.3947,-1.4016,-1.4045,-1.4077,-1.4077,-1.4105,-1.419,-1.4268,-1.4319,-1.4399,-1.4468,-1.4485,-1.4501,-1.4556,-1.4649,-1.4692,-1.4715,-1.4775,-1.4813,-1.4822,-1.4858,-1.4884,-1.4893,-1.4947,-1.4981,-1.4978,-1.4968,-1.5028,-1.5053,0.3435,0.3167,0.2757,0.2448,0.2172,0.1674,0.1299,0.1032,0.0942,0.0673,0.036,0.027,0.009,-0.009,-0.027,-0.045,-0.0719,-0.1076,-0.1344,-0.1614,-0.2017,-0.2329,-0.255,-0.2862,-0.3174,-0.3396,-0.3704,-0.41,-0.4535,-0.4927,-0.5404,-0.6004,-0.6901,-0.7904,-0.8922,-0.9637,-1.0336,-1.0943,-1.1903,-1.2673,-1.3263,-1.3735,-1.4164,-1.4574,-1.4801,-1.5048,-1.5328,-1.5411,-1.5573,-1.5836,-1.5856,-1.5955,-1.6095,-1.6123,-1.6131,-1.6159,-1.6067,-1.5975,-1.5942,-1.5856,-1.5814,-1.5814,-1.5814,-1.5835,-1.5871,-1.5955,-1.6032,-1.6123,-1.6289,-1.6463,-1.6633,-1.6858,-1.7068,-1.7289,-1.7511,-1.7689,-1.7729,-1.7535,-1.7144,-1.6484,-1.5816,-1.514,-1.4453,-1.4126,-1.397,-1.4009,-1.4059,-1.4114,-1.415,-1.4181,-1.4203,-1.4225,-1.4246,-1.4319,-1.4399,-1.4438,-1.4485,-1.4501,-1.4567,-1.4629,-1.4702,-1.4715,-1.4756,-1.4794,-1.4859,-1.4913,-1.4964,-1.4952,-1.4968,-1.4994,-1.5046,-1.5051,-1.5057,-1.5109,-1.5107,0.4268,0.4061,0.3542,0.3136,0.2751,0.219,0.1792,0.1522,0.1433,0.1166,0.0809,0.0584,0.0315,0.0135,0.0045,-0.018,-0.0539,-0.0853,-0.112,-0.1344,-0.1839,-0.2106,-0.2236,-0.2597,-0.2954,-0.3173,-0.348,-0.388,-0.4322,-0.4707,-0.5224,-0.5916,-0.6989,-0.7867,-0.8549,-0.9266,-0.9933,-1.0572,-1.142,-1.2204,-1.2797,-1.3385,-1.3848,-1.4189,-1.4479,-1.4763,-1.5117,-1.5215,-1.5425,-1.5704,-1.5762,-1.5862,-1.606,-1.608,-1.6067,-1.6095,-1.6004,-1.5934,-1.5892,-1.5827,-1.5814,-1.5806,-1.5799,-1.5863,-1.5913,-1.5991,-1.6095,-1.6187,-1.6336,-1.6509,-1.6704,-1.6901,-1.715,-1.7345,-1.7597,-1.7648,-1.7589,-1.7243,-1.665,-1.5842,-1.5304,-1.4763,-1.415,-1.3989,-1.4041,-1.4132,-1.419,-1.4229,-1.4255,-1.4293,-1.4331,-1.4344,-1.4344,-1.4368,-1.448,-1.4494,-1.4511,-1.4526,-1.4611,-1.4683,-1.4724,-1.4775,-1.4832,-1.485,-1.4931,-1.5,-1.5014,-1.5027,-1.5023,-1.503,-1.5069,-1.5099,-1.512,-1.5172,-1.5183,0.4954,0.4619,0.4303,0.3734,0.3032,0.2648,0.2376,0.2147,0.1881,0.1749,0.1614,0.0943,0.0584,0.045,0.0135,0.0,-0.009,-0.0539,-0.0853,-0.112,-0.1479,-0.1838,-0.2153,-0.242,-0.2683,-0.2909,-0.3263,-0.3527,-0.3832,-0.4322,-0.5017,-0.5953,-0.6722,-0.7398,-0.8062,-0.874,-0.939,-1.0049,-1.0692,-1.1505,-1.2508,-1.301,-1.3454,-1.3927,-1.4248,-1.4567,-1.489,-1.5117,-1.5291,-1.5507,-1.5697,-1.5842,-1.5922,-1.597,-1.6004,-1.6004,-1.5926,-1.59,-1.5835,-1.5799,-1.5806,-1.5806,-1.5863,-1.5913,-1.5968,-1.6095,-1.6194,-1.6242,-1.639,-1.6588,-1.6781,-1.7018,-1.7264,-1.7519,-1.7681,-1.7615,-1.7187,-1.709,-1.6571,-1.5233,-1.5076,-1.4825,-1.42,-1.4091,-1.4154,-1.4256,-1.4277,-1.4315,-1.434,-1.4377,-1.4408,-1.4453,-1.4492,-1.4483,-1.4508,-1.4501,-1.4537,-1.4581,-1.4643,-1.4715,-1.4765,-1.4804,-1.4841,-1.4921,-1.4981,-1.5022,-1.5078,-1.5097,-1.5092,-1.508,-1.5098,-1.5133,-1.5177,-1.5214,-1.5211,0.5731,0.5333,0.5171,0.4518,0.37,0.328,0.2908,0.2634,0.2326,0.2194,0.2059,0.157,0.1167,0.0852,0.0539,0.036,0.0225,-0.0225,-0.0539,-0.0763,-0.1121,-0.1479,-0.1748,-0.1972,-0.2238,-0.2551,-0.2864,-0.3174,-0.3614,-0.4278,-0.4968,-0.5607,-0.6337,-0.7027,-0.7655,-0.8292,-0.8905,-0.9532,-1.0088,-1.0687,-1.1399,-1.2264,-1.2924,-1.3297,-1.3702,-1.4065,-1.4406,-1.4718,-1.5048,-1.5306,-1.5448,-1.5603,-1.5821,-1.5863,-1.5906,-1.5942,-1.5921,-1.59,-1.5871,-1.5877,-1.5926,-1.5919,-1.5926,-1.5983,-1.6032,-1.6159,-1.6234,-1.639,-1.6474,-1.6649,-1.6889,-1.7076,-1.7304,-1.7566,-1.7789,-1.7676,-1.7113,-1.6765,-1.6151,-1.5206,-1.4727,-1.446,-1.4231,-1.4225,-1.429,-1.4344,-1.4359,-1.4381,-1.4405,-1.4432,-1.4476,-1.4494,-1.4526,-1.4547,-1.4576,-1.4589,-1.4631,-1.4663,-1.4716,-1.4775,-1.4794,-1.4877,-1.4938,-1.4989,-1.503,-1.5061,-1.5097,-1.5109,-1.5104,-1.5104,-1.514,-1.5174,-1.5197,-1.5244,-1.526,0.6433,0.607,0.5781,0.5185,0.4482,0.3993,0.3597,0.3211,0.2872,0.2639,0.2502,0.2149,0.1837,0.1477,0.1032,0.0719,0.0494,0.0135,-0.018,-0.045,-0.0763,-0.1032,-0.13,-0.1524,-0.1791,-0.2149,-0.2416,-0.2817,-0.3396,-0.4144,-0.4707,-0.5135,-0.583,-0.652,-0.7066,-0.7713,-0.8333,-0.8958,-0.9448,-0.9961,-1.05,-1.1399,-1.2138,-1.265,-1.3173,-1.3568,-1.3967,-1.4324,-1.4686,-1.5036,-1.5208,-1.5388,-1.5668,-1.5718,-1.5799,-1.59,-1.5892,-1.5913,-1.5921,-1.5983,-1.6004,-1.6004,-1.6024,-1.6067,-1.6151,-1.6234,-1.6363,-1.6517,-1.6649,-1.6829,-1.7016,-1.7199,-1.7408,-1.7673,-1.7777,-1.7503,-1.6902,-1.6308,-1.5644,-1.4911,-1.4453,-1.4177,-1.4237,-1.4322,-1.4393,-1.4413,-1.4416,-1.4437,-1.446,-1.4492,-1.4526,-1.4541,-1.4585,-1.4634,-1.4631,-1.4654,-1.4693,-1.4743,-1.4775,-1.4785,-1.4822,-1.493,-1.5014,-1.5038,-1.5085,-1.5105,-1.5109,-1.5104,-1.513,-1.5133,-1.5161,-1.5212,-1.524,-1.528,-1.5293,0.7136,0.6615,0.6046,0.5688,0.5482,0.4775,0.4349,0.4075,0.3491,0.317,0.3083,0.2683,0.246,0.2326,0.1522,0.103,0.0851,0.0539,0.018,-0.018,-0.0359,-0.0674,-0.1079,-0.1121,-0.1389,-0.1792,-0.2014,-0.2457,-0.3171,-0.3702,-0.41,-0.4495,-0.5188,-0.5827,-0.6377,-0.6965,-0.7588,-0.8289,-0.882,-0.9355,-0.9966,-1.0467,-1.118,-1.2029,-1.2656,-1.3132,-1.3568,-1.3934,-1.431,-1.4735,-1.5011,-1.5246,-1.5404,-1.5558,-1.5704,-1.5892,-1.5892,-1.5942,-1.5975,-1.6004,-1.6032,-1.6032,-1.6123,-1.6187,-1.6234,-1.6417,-1.6535,-1.6588,-1.6873,-1.7083,-1.7208,-1.7384,-1.7625,-1.7773,-1.7439,-1.6935,-1.63,-1.5723,-1.4979,-1.4405,-1.4283,-1.4322,-1.4371,-1.4395,-1.4439,-1.4467,-1.4489,-1.4519,-1.4571,-1.4592,-1.4614,-1.4655,-1.4686,-1.4696,-1.4694,-1.4705,-1.4726,-1.4775,-1.4813,-1.4813,-1.4894,-1.4973,-1.503,-1.5078,-1.5097,-1.5109,-1.511,-1.5127,-1.5168,-1.5188,-1.5199,-1.5235,-1.5265,-1.5284,-1.5301,0.7676,0.719,0.6729,0.6353,0.6064,0.5617,0.5164,0.4669,0.4264,0.3878,0.357,0.317,0.2948,0.2903,0.228,0.1791,0.1344,0.1031,0.0628,0.027,0.0135,-0.018,-0.0629,-0.0674,-0.0897,-0.1298,-0.1567,-0.2057,-0.2725,-0.3216,-0.3612,-0.4008,-0.4574,-0.5267,-0.5862,-0.6377,-0.6972,-0.7686,-0.814,-0.8663,-0.9231,-0.9702,-1.0283,-1.1019,-1.1909,-1.2644,-1.3132,-1.3562,-1.4006,-1.4433,-1.4732,-1.5011,-1.5247,-1.5573,-1.5762,-1.59,-1.6042,-1.6111,-1.6131,-1.6214,-1.6246,-1.6254,-1.6289,-1.6336,-1.6402,-1.6509,-1.6633,-1.6807,-1.7018,-1.7216,-1.7416,-1.7534,-1.751,-1.7241,-1.713,-1.6646,-1.5789,-1.534,-1.4995,-1.4441,-1.4347,-1.4434,-1.4474,-1.4508,-1.4541,-1.4543,-1.4603,-1.4634,-1.4656,-1.4658,-1.4688,-1.4736,-1.4794,-1.4823,-1.4841,-1.4785,-1.4785,-1.4832,-1.4886,-1.4921,-1.4982,-1.503,-1.5085,-1.5097,-1.5099,-1.5136,-1.5137,-1.5158,-1.5197,-1.5199,-1.5215,-1.5255,-1.5284,-1.5301,-1.5325,0.8055,0.7681,0.7306,0.7001,0.672,0.6379,0.5951,0.5421,0.4956,0.4576,0.4209,0.3723,0.3478,0.3349,0.295,0.2503,0.2012,0.1567,0.1121,0.0763,0.0673,0.0359,-0.009,-0.0135,-0.0404,-0.0897,-0.121,-0.1701,-0.2281,-0.2682,-0.308,-0.3481,-0.4005,-0.4615,-0.5265,-0.5733,-0.6337,-0.6979,-0.7485,-0.7927,-0.8541,-0.9062,-0.9579,-1.0171,-1.1089,-1.1957,-1.2638,-1.3132,-1.3628,-1.4112,-1.4429,-1.4794,-1.5239,-1.5602,-1.5856,-1.5985,-1.6103,-1.6222,-1.6269,-1.6363,-1.6429,-1.6436,-1.6482,-1.6535,-1.6581,-1.6693,-1.6815,-1.701,-1.7167,-1.7358,-1.728,-1.7356,-1.7262,-1.6913,-1.6638,-1.6142,-1.5294,-1.5065,-1.4797,-1.4492,-1.4455,-1.4526,-1.4561,-1.4606,-1.4636,-1.4657,-1.4696,-1.4726,-1.4727,-1.4766,-1.4785,-1.4832,-1.4878,-1.4895,-1.4922,-1.4894,-1.4876,-1.493,-1.4938,-1.4989,-1.5047,-1.5085,-1.5112,-1.5106,-1.5127,-1.5153,-1.5177,-1.5197,-1.5204,-1.52,-1.5236,-1.5274,-1.5301,-1.5319,-1.5346,0.8318,0.8165,0.7839,0.761,0.7436,0.7012,0.6672,0.6298,0.5718,0.5272,0.4912,0.44,0.407,0.3834,0.3437,0.3126,0.2857,0.2237,0.1702,0.1343,0.1164,0.0852,0.0449,0.0404,0.0135,-0.0404,-0.0986,-0.1434,-0.1792,-0.2102,-0.2504,-0.2908,-0.3434,-0.3963,-0.4408,-0.5007,-0.5602,-0.6246,-0.6761,-0.7311,-0.7976,-0.8496,-0.9017,-0.9579,-1.0259,-1.1099,-1.2096,-1.2644,-1.3226,-1.3814,-1.421,-1.47,-1.5306,-1.5646,-1.5877,-1.6039,-1.6159,-1.6262,-1.639,-1.6482,-1.6528,-1.6535,-1.6617,-1.6746,-1.6805,-1.6957,-1.7117,-1.7216,-1.7269,-1.7246,-1.6813,-1.6763,-1.6855,-1.6938,-1.5976,-1.5346,-1.511,-1.4702,-1.4374,-1.4476,-1.456,-1.4643,-1.4684,-1.4706,-1.4727,-1.4785,-1.4794,-1.4804,-1.4813,-1.4859,-1.4896,-1.4913,-1.492,-1.4936,-1.4979,-1.5013,-1.5013,-1.5003,-1.5002,-1.5017,-1.5057,-1.5109,-1.5129,-1.5124,-1.5153,-1.5187,-1.518,-1.5199,-1.5215,-1.5231,-1.5265,-1.5292,-1.5307,-1.5329,-1.5375,0.8646,0.859,0.8318,0.8103,0.7952,0.7676,0.7317,0.6948,0.6516,0.6052,0.5509,0.5127,0.4749,0.4376,0.4094,0.3834,0.3566,0.3083,0.2549,0.1922,0.1657,0.1389,0.1031,0.0897,0.0583,0.0045,-0.0448,-0.0852,-0.1164,-0.1522,-0.1923,-0.2369,-0.2772,-0.3349,-0.3877,-0.4399,-0.4961,-0.5561,-0.6079,-0.6583,-0.7168,-0.7754,-0.8289,-0.8829,-0.954,-1.0321,-1.1062,-1.2029,-1.2797,-1.3382,-1.3841,-1.4422,-1.514,-1.5595,-1.5877,-1.6075,-1.6262,-1.6398,-1.6525,-1.6631,-1.6709,-1.6777,-1.6855,-1.6948,-1.7016,-1.71,-1.7256,-1.7334,-1.7121,-1.6821,-1.6692,-1.599,-1.5679,-1.5575,-1.5324,-1.4967,-1.467,-1.451,-1.452,-1.4618,-1.4665,-1.4707,-1.4765,-1.4794,-1.4841,-1.4859,-1.4867,-1.4885,-1.492,-1.4947,-1.4963,-1.4962,-1.4959,-1.4983,-1.5032,-1.5054,-1.5062,-1.5062,-1.5062,-1.5062,-1.5099,-1.512,-1.5137,-1.5149,-1.5187,-1.5195,-1.5197,-1.521,-1.5226,-1.5251,-1.5274,-1.5299,-1.5312,-1.5352,-1.5399,0.9008,0.8903,0.8643,0.8484,0.8381,0.8218,0.7908,0.7567,0.7203,0.6754,0.6291,0.591,0.5516,0.5072,0.4774,0.4511,0.4148,0.3838,0.3391,0.2721,0.2238,0.1925,0.1566,0.1299,0.094,0.0492,0.009,-0.0314,-0.0627,-0.094,-0.1297,-0.1788,-0.2192,-0.2637,-0.3255,-0.3699,-0.4224,-0.4829,-0.531,-0.5825,-0.6416,-0.7007,-0.7599,-0.8218,-0.8905,-0.9584,-1.0254,-1.1234,-1.2186,-1.2984,-1.3688,-1.4388,-1.5027,-1.5463,-1.5784,-1.6032,-1.6246,-1.6436,-1.6604,-1.6733,-1.6879,-1.6964,-1.7032,-1.7125,-1.7216,-1.7272,-1.74,-1.7526,-1.7117,-1.6695,-1.6478,-1.5688,-1.4961,-1.4608,-1.4734,-1.4679,-1.4373,-1.4439,-1.4563,-1.4665,-1.4737,-1.4794,-1.4841,-1.4886,-1.494,-1.4938,-1.4945,-1.497,-1.5013,-1.5038,-1.5034,-1.5032,-1.5038,-1.5059,-1.5087,-1.5101,-1.5104,-1.5107,-1.5117,-1.5127,-1.5149,-1.5153,-1.5156,-1.5168,-1.5195,-1.5197,-1.5204,-1.5231,-1.5251,-1.5269,-1.5291,-1.5315,-1.5339,-1.5379,-1.5414,0.9309,0.9211,0.8959,0.8808,0.8808,0.853,0.8362,0.8203,0.7824,0.7498,0.7131,0.6769,0.6266,0.5803,0.5582,0.5202,0.4714,0.4485,0.4206,0.3706,0.3083,0.2503,0.21,0.1611,0.1254,0.094,0.0628,0.0269,-0.0089,-0.0358,-0.0716,-0.1209,-0.1567,-0.1971,-0.2458,-0.2904,-0.3432,-0.3999,-0.4489,-0.5053,-0.5696,-0.6298,-0.693,-0.7554,-0.8215,-0.8865,-0.954,-1.0399,-1.1479,-1.2709,-1.3749,-1.441,-1.4838,-1.5269,-1.5624,-1.5975,-1.6183,-1.639,-1.6586,-1.6775,-1.6937,-1.7066,-1.7141,-1.7248,-1.7377,-1.7447,-1.7618,-1.7818,-1.7235,-1.6671,-1.6168,-1.5427,-1.4805,-1.428,-1.4323,-1.4371,-1.4476,-1.455,-1.4636,-1.4726,-1.4823,-1.4896,-1.4913,-1.4954,-1.4995,-1.5009,-1.5008,-1.5042,-1.5073,-1.5088,-1.5102,-1.5099,-1.5087,-1.511,-1.514,-1.5137,-1.5133,-1.5152,-1.5162,-1.5171,-1.5171,-1.5177,-1.5174,-1.5186,-1.5203,-1.5204,-1.522,-1.5255,-1.5265,-1.5287,-1.5307,-1.5342,-1.5371,-1.5399,-1.5411,0.9514,0.9462,0.9211,0.911,0.9057,0.8903,0.8794,0.8745,0.8468,0.8102,0.7822,0.7569,0.7092,0.6535,0.6471,0.6057,0.5517,0.5245,0.4873,0.4414,0.4051,0.3301,0.2591,0.21,0.1789,0.1523,0.121,0.0895,0.0582,0.0224,-0.0179,-0.0627,-0.0895,-0.1297,-0.179,-0.2146,-0.2634,-0.3207,-0.3697,-0.4174,-0.4781,-0.5346,-0.599,-0.6625,-0.7335,-0.8039,-0.8829,-1.0113,-1.1452,-1.2703,-1.3474,-1.411,-1.4557,-1.4968,-1.5411,-1.5841,-1.6095,-1.6336,-1.657,-1.6785,-1.6972,-1.7091,-1.7208,-1.7337,-1.7447,-1.7618,-1.7825,-1.7787,-1.7012,-1.6289,-1.6001,-1.5127,-1.4459,-1.4371,-1.435,-1.4409,-1.4541,-1.4647,-1.4718,-1.4832,-1.4922,-1.4955,-1.4986,-1.5017,-1.5083,-1.5085,-1.5083,-1.509,-1.5117,-1.5114,-1.5121,-1.5111,-1.5101,-1.5143,-1.5159,-1.5165,-1.5168,-1.5188,-1.5188,-1.5182,-1.5191,-1.5191,-1.5193,-1.5199,-1.521,-1.5216,-1.5251,-1.5279,-1.5292,-1.5294,-1.5312,-1.5342,-1.5377,-1.5412,-1.5413,0.9777,0.9729,0.9524,0.9417,0.9361,0.9218,0.9113,0.9061,0.884,0.8652,0.841,0.8278,0.787,0.733,0.7312,0.6926,0.6329,0.6117,0.5754,0.5242,0.4708,0.3968,0.3168,0.2676,0.2367,0.215,0.179,0.1477,0.1209,0.0806,0.0448,0.0089,-0.0179,-0.0582,-0.1074,-0.1475,-0.1832,-0.2323,-0.2811,-0.3337,-0.3902,-0.443,-0.5079,-0.5768,-0.6446,-0.7248,-0.837,-0.9681,-1.0992,-1.2198,-1.3045,-1.3649,-1.4214,-1.4652,-1.5142,-1.5639,-1.5898,-1.6179,-1.6498,-1.6691,-1.6914,-1.71,-1.7248,-1.7408,-1.7564,-1.7772,-1.7974,-1.8025,-1.7169,-1.6642,-1.6116,-1.5051,-1.4416,-1.4442,-1.4499,-1.4563,-1.4628,-1.4727,-1.4823,-1.4922,-1.4989,-1.5034,-1.5054,-1.5099,-1.512,-1.514,-1.5146,-1.5156,-1.5164,-1.5155,-1.5145,-1.5135,-1.5135,-1.5166,-1.5176,-1.5182,-1.5188,-1.521,-1.522,-1.521,-1.521,-1.521,-1.521,-1.5211,-1.5221,-1.5236,-1.5274,-1.5292,-1.5294,-1.5299,-1.5316,-1.5342,-1.5387,-1.5416,-1.5415,1.0054,1.0051,0.9899,0.9788,0.9625,0.9483,0.9431,0.9267,0.9166,0.9106,0.9033,0.8949,0.8569,0.8104,0.8088,0.7791,0.7185,0.6992,0.6577,0.6032,0.5351,0.4578,0.3963,0.3344,0.299,0.2771,0.2367,0.2058,0.1746,0.1477,0.1164,0.0806,0.0492,0.0134,-0.0268,-0.0715,-0.112,-0.1521,-0.1923,-0.2498,-0.3023,-0.3551,-0.4164,-0.4906,-0.5771,-0.6739,-0.7904,-0.9026,-1.0133,-1.1568,-1.2413,-1.3117,-1.3742,-1.4232,-1.4783,-1.5285,-1.566,-1.5983,-1.6336,-1.6581,-1.6831,-1.7092,-1.7256,-1.7437,-1.7664,-1.7892,-1.8104,-1.8299,-1.782,-1.7177,-1.6522,-1.5341,-1.482,-1.4825,-1.4816,-1.4708,-1.4756,-1.4851,-1.4941,-1.4997,-1.5068,-1.5102,-1.5127,-1.5153,-1.5193,-1.5164,-1.518,-1.5182,-1.5184,-1.5174,-1.518,-1.5185,-1.519,-1.5196,-1.5196,-1.5201,-1.5216,-1.5226,-1.5241,-1.5241,-1.5241,-1.5236,-1.5231,-1.5236,-1.5251,-1.5269,-1.5283,-1.529,-1.5289,-1.532,-1.5351,-1.538,-1.5413,-1.5415,-1.541,1.0462,1.036,1.0269,1.0106,0.9947,0.9895,0.9847,0.9788,0.9692,0.964,0.9587,0.9469,0.9214,0.8947,0.8865,0.8585,0.8022,0.7775,0.7355,0.6606,0.611,0.5624,0.5025,0.424,0.3615,0.3347,0.299,0.2681,0.246,0.2101,0.1744,0.1433,0.1208,0.094,0.0492,0.0179,-0.0179,-0.0626,-0.1119,-0.1654,-0.2185,-0.2716,-0.329,-0.4083,-0.5163,-0.6228,-0.7196,-0.8088,-0.9062,-1.0138,-1.1334,-1.236,-1.311,-1.3709,-1.4303,-1.4907,-1.5381,-1.5776,-1.6179,-1.6463,-1.6753,-1.7009,-1.7264,-1.7511,-1.7749,-1.7996,-1.8239,-1.8314,-1.7914,-1.7452,-1.6921,-1.6119,-1.5644,-1.5518,-1.5198,-1.4924,-1.4931,-1.4956,-1.5014,-1.5064,-1.5094,-1.513,-1.5166,-1.5178,-1.5199,-1.5195,-1.5205,-1.5196,-1.5201,-1.5206,-1.5221,-1.5226,-1.5217,-1.5222,-1.5222,-1.5226,-1.5241,-1.5245,-1.526,-1.5264,-1.5269,-1.5289,-1.5284,-1.5279,-1.5284,-1.5287,-1.5303,-1.5299,-1.5307,-1.5351,-1.5387,-1.5399,-1.5416,-1.541,-1.5408,1.0871,1.0769,1.0616,1.0466,1.0364,1.0324,1.0316,1.0257,1.0162,1.0106,1.011,1.0043,0.9832,0.9577,0.9573,0.9306,0.8854,0.8504,0.8009,0.7401,0.691,0.6509,0.5999,0.5287,0.4634,0.4026,0.361,0.3347,0.308,0.2724,0.2412,0.2189,0.1923,0.1608,0.1295,0.0983,0.0582,0.0224,-0.0268,-0.076,-0.1295,-0.1786,-0.254,-0.3424,-0.4511,-0.55,-0.6316,-0.7217,-0.8091,-0.9009,-1.0133,-1.1339,-1.2407,-1.3129,-1.3802,-1.4431,-1.4975,-1.5433,-1.5868,-1.6293,-1.6641,-1.6942,-1.7224,-1.7534,-1.7794,-1.8053,-1.8325,-1.8484,-1.8387,-1.8084,-1.7596,-1.6962,-1.656,-1.6081,-1.5781,-1.5442,-1.5154,-1.5059,-1.5083,-1.5133,-1.5158,-1.5189,-1.5216,-1.5231,-1.5241,-1.526,-1.525,-1.5245,-1.525,-1.5255,-1.5265,-1.5265,-1.5255,-1.5255,-1.5255,-1.5264,-1.5268,-1.5276,-1.5284,-1.5284,-1.5284,-1.5313,-1.5338,-1.5328,-1.5309,-1.5321,-1.5335,-1.5329,-1.5342,-1.5372,-1.5404,-1.5405,-1.5412,-1.5415,-1.5414,1.1226,1.1167,1.1023,1.0926,1.0824,1.0794,1.0738,1.062,1.062,1.0569,1.0573,1.0577,1.036,1.0154,1.0098,0.9932,0.9596,0.9238,0.8681,0.8204,0.7785,0.7298,0.682,0.633,0.573,0.4772,0.4284,0.401,0.3697,0.3386,0.3165,0.2943,0.2589,0.232,0.2097,0.1744,0.1387,0.1028,0.0581,0.0134,-0.0358,-0.085,-0.1695,-0.2802,-0.3639,-0.4467,-0.5333,-0.624,-0.7091,-0.7927,-0.8784,-1.0021,-1.1302,-1.2443,-1.3151,-1.3868,-1.4456,-1.5015,-1.5587,-1.605,-1.6509,-1.685,-1.7207,-1.7557,-1.7861,-1.8125,-1.841,-1.8698,-1.8785,-1.8886,-1.8529,-1.7945,-1.7309,-1.6857,-1.6641,-1.612,-1.5536,-1.5319,-1.5421,-1.5197,-1.5216,-1.525,-1.5283,-1.5295,-1.5309,-1.5313,-1.5305,-1.5289,-1.5298,-1.5299,-1.5295,-1.5295,-1.5272,-1.5305,-1.5309,-1.5319,-1.533,-1.5326,-1.5313,-1.5313,-1.5316,-1.5346,-1.5371,-1.5351,-1.5345,-1.5355,-1.5365,-1.5379,-1.5387,-1.5414,-1.5411,-1.541,-1.5416,-1.541,-1.5408,1.1728,1.1573,1.1477,1.1326,1.123,1.1179,1.1175,1.1116,1.1074,1.1023,1.0972,1.0875,1.0769,1.0616,1.0573,1.0364,1.002,0.9775,0.9449,0.9019,0.8662,0.8259,0.7697,0.7359,0.6801,0.6132,0.5402,0.4796,0.4364,0.414,0.3871,0.3609,0.3431,0.3208,0.2854,0.2546,0.2234,0.1875,0.143,0.0984,0.0537,-0.0045,-0.0804,-0.196,-0.2669,-0.3419,-0.4301,-0.5171,-0.6024,-0.6904,-0.7649,-0.8626,-0.9798,-1.1164,-1.2242,-1.3132,-1.3874,-1.4547,-1.5211,-1.5803,-1.632,-1.6763,-1.7159,-1.7581,-1.7919,-1.8281,-1.8586,-1.8921,-1.9265,-1.948,-1.9531,-1.8911,-1.8593,-1.8263,-1.7759,-1.7141,-1.651,-1.6188,-1.599,-1.5578,-1.5433,-1.5299,-1.5323,-1.5345,-1.5358,-1.5355,-1.5326,-1.5323,-1.5323,-1.5316,-1.5312,-1.5303,-1.5289,-1.5335,-1.5368,-1.5378,-1.5381,-1.5381,-1.5377,-1.5372,-1.5382,-1.5394,-1.5399,-1.5381,-1.5381,-1.5386,-1.5407,-1.5416,-1.5411,-1.5415,-1.541,-1.5415,-1.541,-1.5415,-1.541,1.2071,1.1981,1.1877,1.1773,1.1723,1.1719,1.1678,1.1619,1.1556,1.146,1.1418,1.1322,1.1226,1.112,1.1124,1.0871,1.0561,1.0407,1.0098,0.9677,0.9486,0.9107,0.8567,0.8247,0.7801,0.7314,0.6668,0.5913,0.5128,0.4879,0.4661,0.4397,0.4222,0.3957,0.3693,0.3431,0.3118,0.2716,0.2365,0.1922,0.1386,0.0759,-0.0134,-0.0937,-0.165,-0.2402,-0.3334,-0.4079,-0.4904,-0.5765,-0.6479,-0.7307,-0.8318,-0.9462,-1.0887,-1.2183,-1.3147,-1.4005,-1.4779,-1.5433,-1.6085,-1.6667,-1.7109,-1.7587,-1.8001,-1.8384,-1.8789,-1.9206,-1.9509,-1.9814,-1.9902,-1.965,-1.9382,-1.898,-1.8619,-1.8086,-1.7414,-1.6931,-1.6502,-1.6042,-1.5675,-1.5494,-1.536,-1.5383,-1.5403,-1.5389,-1.5355,-1.5358,-1.5363,-1.5354,-1.5342,-1.5339,-1.5339,-1.5361,-1.5393,-1.54,-1.541,-1.5416,-1.5416,-1.5411,-1.5411,-1.5411,-1.5409,-1.5404,-1.5404,-1.5416,-1.5411,-1.5415,-1.541,-1.5413,-1.5416,-1.541,-1.5415,-1.5409,-1.541,1.2421,1.2431,1.2328,1.2274,1.2274,1.2278,1.218,1.2067,1.1999,1.1954,1.1828,1.1778,1.1723,1.1623,1.1523,1.1372,1.1023,1.0871,1.0612,1.0308,1.0186,0.9835,0.942,0.9127,0.8831,0.8403,0.815,0.7362,0.616,0.5807,0.5535,0.5231,0.5005,0.4746,0.4532,0.4308,0.3995,0.3644,0.3339,0.2897,0.2186,0.143,0.0671,-0.0045,-0.058,-0.1336,-0.2226,-0.2889,-0.3634,-0.4463,-0.5196,-0.5959,-0.68,-0.7669,-0.9099,-1.0946,-1.2183,-1.3249,-1.4166,-1.5039,-1.573,-1.6424,-1.7076,-1.7616,-1.8156,-1.8644,-1.912,-1.9559,-1.9818,-1.9992,-2.0115,-2.0172,-1.9925,-1.9598,-1.9367,-1.9068,-1.8318,-1.7764,-1.7382,-1.6816,-1.6111,-1.5701,-1.5575,-1.5397,-1.5407,-1.5415,-1.5383,-1.5388,-1.5384,-1.5393,-1.5389,-1.5394,-1.5394,-1.5392,-1.5402,-1.5402,-1.5412,-1.5409,-1.5416,-1.5412,-1.5412,-1.5412,-1.541,-1.5409,-1.5409,-1.541,-1.5412,-1.5412,-1.5416,-1.5408,-1.541,-1.5415,-1.541,-1.541,-1.5408,1.2915,1.2915,1.2827,1.2827,1.2779,1.2779,1.2725,1.2573,1.2471,1.2318,1.2229,1.2126,1.2071,1.2026,1.1877,1.1678,1.1477,1.1377,1.1226,1.0934,1.0824,1.058,1.023,1.01,0.9807,0.9456,0.9369,0.8373,0.7328,0.6939,0.6525,0.616,0.5924,0.5693,0.5359,0.5178,0.4872,0.4484,0.4226,0.3697,0.2898,0.223,0.1697,0.1117,0.0537,-0.0134,-0.0937,-0.1603,-0.2266,-0.3056,-0.3767,-0.4591,-0.5449,-0.6295,-0.7328,-0.8918,-1.062,-1.2389,-1.3392,-1.4429,-1.5389,-1.62,-1.7003,-1.7665,-1.8375,-1.9022,-1.9544,-1.9807,-2.0003,-2.0138,-2.026,-2.0337,-2.0322,-2.0274,-2.0102,-1.976,-1.916,-1.8496,-1.8129,-1.7638,-1.6944,-1.6218,-1.5794,-1.5588,-1.5408,-1.5409,-1.541,-1.541,-1.5409,-1.5415,-1.5409,-1.5416,-1.5413,-1.5413,-1.5412,-1.541,-1.541,-1.541,-1.5425,-1.5419,-1.5409,-1.5409,-1.541,-1.5409,-1.5419,-1.5416,-1.5415,-1.5416,-1.541,-1.5413,-1.5414,-1.5409,-1.5409,-1.5417,-1.5415,1.3621,1.3344,1.3291,1.3296,1.3296,1.3291,1.32,1.2997,1.2895,1.2803,1.2627,1.2485,1.2382,1.2328,1.2175,1.2071,1.1923,1.1877,1.1682,1.1486,1.1377,1.1191,1.091,1.0783,1.0576,1.0456,1.033,0.9986,0.8939,0.807,0.7504,0.7177,0.6842,0.6507,0.6224,0.6044,0.5739,0.5394,0.4918,0.4353,0.3737,0.3207,0.2674,0.2142,0.1607,0.0982,0.0312,-0.0312,-0.0936,-0.1688,-0.2309,-0.2971,-0.384,-0.4615,-0.5546,-0.6626,-0.8271,-1.0271,-1.2347,-1.3683,-1.4887,-1.6041,-1.7003,-1.7952,-1.8783,-1.9419,-1.9843,-2.0047,-2.019,-2.0298,-2.037,-2.0434,-2.0458,-2.0484,-2.0497,-2.03,-1.9823,-1.9324,-1.878,-1.8285,-1.7779,-1.7089,-1.6374,-1.5896,-1.5671,-1.5498,-1.5448,-1.5397,-1.5404,-1.5409,-1.541,-1.5409,-1.5408,-1.5416,-1.5415,-1.5414,-1.5413,-1.5422,-1.5471,-1.5454,-1.5424,-1.5415,-1.566,-1.559,-1.5481,-1.5469,-1.5478,-1.541,-1.5414,-1.5415,-1.5416,-1.541,-1.5408,-1.5408,-1.5415,1.4326,1.3988,1.3852,1.3805,1.38,1.3763,1.361,1.3415,1.3367,1.3238,1.3055,1.2915,1.2764,1.2618,1.252,1.2466,1.2382,1.2283,1.213,1.1977,1.1873,1.1751,1.1584,1.1451,1.1368,1.1372,1.1212,1.1,1.0519,0.9729,0.888,0.8209,0.786,0.7444,0.7086,0.6865,0.6605,0.617,0.565,0.5135,0.4703,0.422,0.3734,0.3204,0.2716,0.2139,0.1468,0.098,0.0401,-0.0222,-0.0801,-0.142,-0.2125,-0.2818,-0.3541,-0.4552,-0.5849,-0.7888,-1.0441,-1.2506,-1.4346,-1.5883,-1.733,-1.8565,-1.9357,-1.982,-2.0038,-2.0224,-2.0327,-2.0424,-2.0483,-2.0484,-2.0493,-2.0487,-2.048,-2.0422,-2.0291,-1.9757,-1.9383,-1.9073,-1.8567,-1.8022,-1.7274,-1.6452,-1.599,-1.5676,-1.5521,-1.5449,-1.5489,-1.5574,-1.5528,-1.5553,-1.5506,-1.5497,-1.5478,-1.5459,-1.5449,-1.5605,-1.5663,-1.576,-1.5887,-1.6161,-1.6493,-1.6247,-1.5913,-1.6224,-1.6661,-1.6019,-1.5415,-1.5408,-1.541,-1.541,-1.5409,-1.5466,-1.5493,1.5017,1.4966,1.4512,1.4326,1.4321,1.4222,1.4087,1.391,1.381,1.3668,1.353,1.3372,1.319,1.2997,1.2905,1.2813,1.2676,1.2681,1.2529,1.2431,1.2328,1.226,1.2143,1.2098,1.2017,1.2017,1.2013,1.199,1.1876,1.1323,1.0213,0.9199,0.9024,0.8524,0.804,0.7666,0.7332,0.6898,0.6419,0.6081,0.5655,0.5265,0.4831,0.4437,0.3995,0.3463,0.2886,0.241,0.1927,0.13,0.0813,0.0317,-0.0228,-0.0786,-0.1441,-0.2131,-0.3039,-0.499,-0.7379,-1.1191,-1.4032,-1.5923,-1.7723,-1.9193,-1.9728,-2.0028,-2.0226,-2.0315,-2.0387,-2.0458,-2.0486,-2.0508,-2.0487,-2.0472,-2.0422,-2.0337,-2.026,-2.014,-1.9816,-1.9726,-1.9295,-1.8653,-1.8177,-1.734,-1.667,-1.6349,-1.6106,-1.6024,-1.593,-1.5961,-1.5809,-1.5744,-1.5672,-1.563,-1.5579,-1.5708,-1.6111,-1.6337,-1.6425,-1.6533,-1.666,-1.6963,-1.7207,-1.7304,-1.7118,-1.7476,-1.7572,-1.6824,-1.6151,-1.5625,-1.5527,-1.5986,-1.6091,-1.6128,-1.5997,1.5328,1.5328,1.5147,1.492,1.4686,1.4634,1.4553,1.4389,1.4291,1.4098,1.3868,1.3716,1.352,1.3377,1.3276,1.3185,1.3089,1.304,1.2963,1.2832,1.2774,1.2735,1.2667,1.2672,1.2638,1.2691,1.2696,1.2793,1.274,1.2464,1.2099,1.1298,1.0485,0.964,0.9065,0.8523,0.8036,0.7639,0.7241,0.6937,0.6634,0.6204,0.5856,0.5553,0.5125,0.468,0.421,0.3907,0.3481,0.3099,0.2679,0.2267,0.1893,0.1445,0.1159,0.0815,0.0048,-0.1236,-0.4185,-0.898,-1.4269,-1.7702,-1.9084,-1.9583,-1.9861,-2.0034,-2.0166,-2.0269,-2.0323,-2.0354,-2.0432,-2.0435,-2.0423,-2.0424,-2.0357,-2.0241,-2.0119,-2.0012,-1.9834,-1.9564,-1.9426,-1.9098,-1.8681,-1.8228,-1.7592,-1.7036,-1.681,-1.6593,-1.6509,-1.6508,-1.6432,-1.6444,-1.6425,-1.6549,-1.6553,-1.673,-1.6923,-1.7034,-1.7163,-1.7371,-1.7509,-1.7539,-1.7773,-1.7988,-1.8154,-1.8184,-1.7978,-1.7451,-1.7021,-1.6709,-1.6797,-1.7119,-1.7068,-1.6829,-1.6706,1.5691,1.5697,1.5691,1.5463,1.5091,1.5051,1.4932,1.4805,1.4702,1.4523,1.4208,1.4062,1.3952,1.3805,1.3705,1.3557,1.352,1.344,1.3321,1.323,1.3162,1.3155,1.313,1.3135,1.3165,1.3266,1.3314,1.3367,1.3404,1.3452,1.3175,1.269,1.2086,1.1261,1.0228,0.9573,0.904,0.877,0.8461,0.8191,0.8011,0.7643,0.7332,0.7116,0.6774,0.6413,0.604,0.5774,0.5411,0.5079,0.4712,0.4394,0.4175,0.3995,0.3901,0.3877,0.3684,0.3076,0.0088,-0.6865,-1.4265,-1.8715,-1.9612,-1.9735,-1.974,-1.9851,-1.9989,-1.9851,-1.9978,-2.0123,-2.0195,-2.0218,-2.0247,-2.0229,-2.0171,-2.0058,-1.9894,-1.9748,-1.9556,-1.9336,-1.9225,-1.9106,-1.8928,-1.8483,-1.7927,-1.7377,-1.7046,-1.6975,-1.7103,-1.714,-1.7285,-1.7323,-1.7413,-1.7589,-1.778,-1.7634,-1.7511,-1.7636,-1.7836,-1.8245,-1.8395,-1.8436,-1.8691,-1.9141,-1.918,-1.8857,-1.8779,-1.8799,-1.8418,-1.7939,-1.7959,-1.7881,-1.7683,-1.7464,-1.7613,1.6156,1.615,1.6044,1.5768,1.5513,1.5351,1.5267,1.5216,1.5017,1.4789,1.4627,1.4569,1.4425,1.4222,1.4124,1.4041,1.3863,1.3789,1.3725,1.3635,1.3646,1.3589,1.3616,1.3616,1.37,1.3768,1.3858,1.3931,1.3972,1.4019,1.3955,1.395,1.3531,1.2878,1.1713,1.1171,1.0776,1.0516,1.0114,0.9843,0.9603,0.9297,0.9048,0.8844,0.8603,0.82,0.7944,0.7626,0.7345,0.7083,0.6764,0.652,0.6471,0.6441,0.6662,0.7211,0.7686,0.7521,0.63,-0.4756,-1.1864,-1.7404,-1.7802,-1.8709,-1.9101,-1.9399,-1.9438,-1.9082,-1.9364,-1.9605,-1.9763,-1.9879,-1.9907,-1.9955,-1.9885,-1.979,-1.962,-1.9421,-1.9201,-1.901,-1.8946,-1.8877,-1.8842,-1.8644,-1.8133,-1.7679,-1.731,-1.7342,-1.7652,-1.7937,-1.816,-1.8298,-1.8402,-1.8479,-1.8552,-1.8225,-1.8113,-1.8241,-1.8554,-1.9035,-1.9415,-1.9587,-1.9902,-2.0283,-2.0117,-1.9707,-2.0049,-2.043,-1.9707,-1.8965,-1.8525,-1.8359,-1.8184,-1.8253,-1.855,1.6194,1.6194,1.6144,1.6063,1.5925,1.5671,1.5531,1.539,1.5249,1.5119,1.5034,1.4891,1.4789,1.4634,1.4507,1.443,1.4337,1.4203,1.4141,1.4147,1.413,1.4154,1.4122,1.419,1.4285,1.4332,1.4414,1.4496,1.4628,1.4628,1.4726,1.4726,1.4544,1.3815,1.2751,1.1973,1.1504,1.1317,1.1076,1.0879,1.0763,1.0512,1.0377,1.0323,1.0096,0.9914,0.9756,0.9479,0.9236,0.9119,0.8805,0.8817,0.8916,0.9001,0.9604,1.0525,1.1153,1.0355,0.8097,0.1511,-0.3734,-0.9764,-1.4718,-1.5847,-1.6612,-1.7657,-1.7923,-1.818,-1.8409,-1.8661,-1.9005,-1.9193,-1.9303,-1.9485,-1.9473,-1.9411,-1.9252,-1.9033,-1.8833,-1.8635,-1.852,-1.8415,-1.8356,-1.8423,-1.8057,-1.8131,-1.7885,-1.8231,-1.8593,-1.8927,-1.9201,-1.9305,-1.9401,-1.9415,-1.9335,-1.9029,-1.9061,-1.9315,-1.9601,-1.9975,-2.0313,-2.0392,-2.043,-2.0449,-2.0527,-2.0596,-2.0596,-2.0566,-2.04,-1.9932,-1.9463,-1.9326,-1.9404,-1.9566,-1.9859,1.6275,1.6318,1.6275,1.6275,1.6244,1.5981,1.5786,1.5647,1.5519,1.548,1.5396,1.5193,1.5102,1.5017,1.4937,1.4805,1.4754,1.4702,1.4666,1.4628,1.4667,1.4635,1.4664,1.4703,1.4789,1.4846,1.4977,1.5051,1.5091,1.5238,1.5289,1.5289,1.5232,1.4722,1.3899,1.3297,1.281,1.2645,1.2485,1.2273,1.2175,1.2,1.188,1.1839,1.1738,1.1577,1.144,1.1289,1.1129,1.1054,1.1011,1.1039,1.1262,1.167,1.234,1.3421,1.5245,1.4707,1.2899,1.0694,0.5473,-0.0442,-0.7206,-1.1685,-1.3307,-1.4486,-1.5481,-1.6097,-1.686,-1.7464,-1.7774,-1.8043,-1.8422,-1.8588,-1.8815,-1.8741,-1.8699,-1.847,-1.8323,-1.8156,-1.801,-1.7932,-1.7876,-1.798,-1.7926,-1.8224,-1.849,-1.8875,-1.9185,-1.9387,-1.9557,-1.9638,-1.9769,-1.9706,-1.9761,-1.986,-1.9986,-2.0351,-2.0448,-2.0487,-2.0514,-2.0482,-2.055,-2.0596,-2.0596,-2.0596,-2.0596,-2.0537,-2.0449,-2.0449,-2.0342,-2.0352,-2.0596,-2.0594,-2.0575,1.6515,1.6472,1.6448,1.6448,1.6399,1.6293,1.6156,1.5988,1.5875,1.5798,1.5709,1.5558,1.5468,1.5351,1.5306,1.5255,1.5159,1.5102,1.5063,1.5091,1.5057,1.5073,1.51,1.5096,1.5198,1.5261,1.5345,1.5424,1.5507,1.5653,1.5748,1.5792,1.5736,1.5463,1.5138,1.4739,1.4257,1.3974,1.3793,1.3646,1.3521,1.3672,1.3563,1.3547,1.3449,1.3413,1.3305,1.3131,1.3082,1.3035,1.2982,1.3142,1.3376,1.3834,1.4783,1.6632,1.964,1.9865,1.9364,1.7145,1.4617,0.8382,0.0538,-0.5071,-0.8864,-1.0427,-1.1835,-1.3107,-1.4071,-1.5244,-1.6136,-1.6658,-1.7196,-1.7505,-1.791,-1.795,-1.7981,-1.7864,-1.7737,-1.7605,-1.7476,-1.739,-1.7375,-1.7454,-1.7562,-1.7766,-1.8013,-1.8283,-1.8618,-1.8992,-1.9191,-1.9382,-1.9525,-1.9759,-1.9899,-2.0031,-2.0179,-2.0308,-2.0419,-2.0466,-2.0503,-2.0538,-2.057,-2.0589,-2.0594,-2.0596,-2.0596,-2.0596,-2.0576,-2.0596,-2.0596,-2.0596,-2.0596,-2.0596,-2.0589,1.6797,1.6791,1.6742,1.6754,1.6754,1.6696,1.6523,1.6156,1.6082,1.6082,1.6075,1.5907,1.5824,1.578,1.5703,1.5614,1.557,1.5531,1.5441,1.5435,1.5424,1.5481,1.5514,1.5511,1.5558,1.5659,1.5742,1.583,1.5913,1.6057,1.6188,1.6225,1.6219,1.6201,1.6058,1.5876,1.5478,1.5101,1.4942,1.4795,1.4795,1.4801,1.4841,1.4829,1.4863,1.4863,1.4812,1.467,1.4603,1.47,1.4667,1.4812,1.5164,1.5807,1.6857,1.9344,2.1404,2.2464,2.2445,2.1272,1.9046,1.6049,0.9799,0.3731,-0.1211,-0.5237,-0.7351,-0.908,-1.0893,-1.2142,-1.3499,-1.436,-1.5214,-1.592,-1.6365,-1.6727,-1.6792,-1.693,-1.6805,-1.6846,-1.6717,-1.6725,-1.6716,-1.6834,-1.6969,-1.7191,-1.7431,-1.771,-1.8068,-1.8469,-1.8815,-1.9019,-1.925,-1.9472,-1.9744,-1.9899,-2.0069,-2.0206,-2.0331,-2.0444,-2.0492,-2.0532,-2.056,-2.0575,-2.0594,-2.0596,-2.0596,-2.0596,-2.0596,-2.0596,-2.0596,-2.0596,-2.0596,-2.0596,-2.0601,1.6888,1.6888,1.6888,1.6888,1.6895,1.6897,1.6713,1.6491,1.6343,1.63,1.6275,1.6138,1.6094,1.6044,1.5969,1.5937,1.5893,1.5887,1.586,1.5808,1.5754,1.5838,1.587,1.5926,1.5994,1.6044,1.6132,1.6175,1.6281,1.6448,1.6614,1.665,1.6735,1.6735,1.6667,1.6618,1.6478,1.6145,1.5897,1.5696,1.5676,1.5794,1.5876,1.5908,1.5946,1.6033,1.6033,1.594,1.5997,1.6077,1.6105,1.6342,1.6823,1.7619,1.8863,2.1064,2.2367,2.3338,2.3529,2.3114,2.1511,1.9606,1.7001,1.2365,0.6645,0.1974,-0.1533,-0.4506,-0.6877,-0.8949,-1.044,-1.1867,-1.3042,-1.4106,-1.4727,-1.5347,-1.5583,-1.5806,-1.5887,-1.5953,-1.5976,-1.5956,-1.6027,-1.6172,-1.6343,-1.6541,-1.6775,-1.7044,-1.7491,-1.7997,-1.8388,-1.8681,-1.8936,-1.9179,-1.9453,-1.9759,-1.9961,-2.0132,-2.0282,-2.0378,-2.0458,-2.0523,-2.0548,-2.0575,-2.0594,-2.0596,-2.0596,-2.0596,-2.0596,-2.0596,-2.0596,-2.0596,-2.0596,-2.0596,-2.0603,1.6954,1.6967,1.6954,1.6967,1.6967,1.6973,1.6937,1.6911,1.6686,1.6515,1.6442,1.6324,1.6281,1.6312,1.6281,1.6281,1.6244,1.6244,1.6193,1.6235,1.6181,1.6213,1.6244,1.6355,1.6349,1.6436,1.654,1.667,1.6758,1.7055,1.7284,1.719,1.7454,1.7548,1.7463,1.7443,1.7336,1.714,1.6802,1.6572,1.6544,1.6697,1.6915,1.6902,1.7028,1.7111,1.7118,1.7122,1.7164,1.7291,1.7437,1.7656,1.8389,1.9222,2.0639,2.1773,2.2935,2.3712,2.4181,2.4019,2.3388,2.197,2.0456,1.766,1.2968,0.7599,0.3571,0.0398,-0.1933,-0.4479,-0.6264,-0.8242,-0.9759,-1.1175,-1.2247,-1.309,-1.3772,-1.418,-1.4645,-1.4741,-1.4891,-1.4913,-1.5122,-1.5257,-1.5506,-1.5779,-1.6074,-1.6374,-1.6818,-1.739,-1.7884,-1.8267,-1.8626,-1.8919,-1.9274,-1.9567,-1.9853,-2.0041,-2.0212,-2.0361,-2.0467,-2.051,-2.0538,-2.0567,-2.0596,-2.0596,-2.0596,-2.0596,-2.0596,-2.0596,-2.0596,-2.0596,-2.0596,-2.0596,-2.0604,1.7358,1.7352,1.7358,1.7358,1.7365,1.7354,1.7319,1.7267,1.7214,1.7047,1.682,1.6754,1.6712,1.6699,1.6705,1.6663,1.6596,1.6596,1.651,1.6486,1.6448,1.6552,1.6588,1.665,1.6699,1.6833,1.6963,1.7219,1.7676,1.8005,1.8372,1.8836,1.8896,1.8758,1.8434,1.8407,1.8342,1.8167,1.8045,1.78,1.7697,1.7631,1.7733,1.7841,1.7954,1.8094,1.8133,1.8187,1.8285,1.841,1.8563,1.8963,1.963,2.043,2.1277,2.2251,2.3164,2.3912,2.4402,2.4579,2.4219,2.371,2.2463,2.1095,1.7921,1.2833,0.8732,0.5827,0.2968,0.0347,-0.2149,-0.4337,-0.6479,-0.8053,-0.9696,-1.0725,-1.1792,-1.258,-1.3227,-1.3499,-1.3651,-1.3867,-1.4075,-1.4376,-1.4672,-1.4979,-1.5352,-1.5701,-1.6094,-1.6614,-1.7271,-1.7723,-1.8287,-1.8635,-1.9035,-1.9434,-1.974,-1.9993,-2.0187,-2.0324,-2.0463,-2.0523,-2.0564,-2.0579,-2.0596,-2.0596,-2.0596,-2.0596,-2.0596,-2.0596,-2.0596,-2.0596,-2.0596,-2.0596,-2.0596,1.7659,1.7686,1.7706,1.7652,1.7679,1.7684,1.7643,1.7604,1.7578,1.7414,1.7253,1.7093,1.7044,1.7038,1.7038,1.7002,1.6931,1.6924,1.6897,1.6831,1.6823,1.6866,1.6902,1.6976,1.7115,1.7212,1.7439,1.7824,1.8569,1.8827,1.9159,1.9784,1.9954,1.9924,1.9599,1.9593,1.9496,1.9332,1.9388,1.9367,1.9086,1.8927,1.8588,1.8626,1.88,1.8995,1.9035,1.9079,1.9172,1.9376,1.9598,2.0035,2.0605,2.118,2.1811,2.2531,2.3298,2.3999,2.4477,2.4755,2.4844,2.4413,2.4126,2.2675,2.1847,1.7141,1.4332,1.1407,0.7997,0.5239,0.258,0.0287,-0.2285,-0.4276,-0.6223,-0.7811,-0.9348,-1.0725,-1.1322,-1.1775,-1.2042,-1.2401,-1.2645,-1.3007,-1.3345,-1.3894,-1.4306,-1.4781,-1.5249,-1.5828,-1.6494,-1.7223,-1.7781,-1.8408,-1.8929,-1.9324,-1.9673,-1.9914,-2.0169,-2.0323,-2.0474,-2.0545,-2.0599,-2.0599,-2.0596,-2.0596,-2.0596,-2.0596,-2.0596,-2.0596,-2.0596,-2.0596,-2.0596,-2.0596,-2.0596,1.8003,1.7963,1.7956,1.7956,1.7969,1.7984,1.7977,1.7963,1.7848,1.7774,1.7747,1.7454,1.733,1.7247,1.7247,1.7247,1.7247,1.7253,1.7229,1.7248,1.7293,1.7325,1.734,1.7407,1.755,1.772,1.7929,1.8604,1.9391,1.9587,1.995,2.0436,2.067,2.0798,2.0819,2.0826,2.0753,2.0751,2.0848,2.1229,2.086,2.0298,1.9853,1.9701,1.9797,1.9958,2.0074,2.0184,2.0254,2.0531,2.099,2.148,2.1927,2.2443,2.2623,2.3257,2.3741,2.4206,2.4501,2.4819,2.4978,2.4978,2.4859,2.4356,2.3452,2.1786,1.8975,1.6484,1.3048,1.0027,0.737,0.4804,0.2195,-0.0702,-0.278,-0.5026,-0.6875,-0.855,-0.9219,-0.9791,-1.0255,-1.0642,-1.111,-1.1477,-1.2022,-1.2577,-1.3147,-1.3717,-1.4285,-1.4989,-1.5683,-1.6551,-1.7316,-1.7966,-1.8717,-1.9231,-1.9642,-1.9935,-2.0185,-2.0336,-2.0467,-2.0555,-2.0598,-2.0599,-2.0596,-2.0596,-2.0596,-2.0596,-2.0596,-2.0596,-2.0596,-2.0596,-2.0596,-2.0596,-2.0596,1.84,1.84,1.8386,1.84,1.8368,1.8379,1.8372,1.8347,1.8238,1.8205,1.8168,1.8069,1.7814,1.7434,1.7434,1.7482,1.7536,1.7577,1.761,1.7609,1.7692,1.774,1.7773,1.7881,1.8068,1.8273,1.8548,1.9317,2.0148,2.0558,2.1303,2.2316,2.2571,2.2446,2.1962,2.1953,2.1941,2.1906,2.1882,2.2088,2.2108,2.1759,2.1675,2.1675,2.1855,2.1937,2.2084,2.2214,2.2272,2.2479,2.2753,2.3146,2.3483,2.3774,2.3962,2.3954,2.4409,2.4502,2.4748,2.4851,2.4979,2.5179,2.5056,2.5017,2.4351,2.3927,2.1846,2.0807,1.7678,1.4618,1.1918,0.9514,0.6896,0.3314,0.0615,-0.2071,-0.4363,-0.5624,-0.6567,-0.7294,-0.7987,-0.8508,-0.9085,-0.9594,-1.025,-1.0851,-1.1545,-1.2154,-1.2917,-1.3845,-1.4727,-1.5755,-1.6699,-1.7736,-1.8574,-1.9176,-1.9617,-1.9916,-2.0195,-2.0375,-2.0509,-2.057,-2.0605,-2.0596,-2.0595,-2.0596,-2.0596,-2.0596,-2.0596,-2.0596,-2.0596,-2.0596,-2.0596,-2.0596,-2.0596]}]]